GEFSNGP_500_meanwind_000.txt.gz
Wind_Speed
33 37 43 48 54 59 62 66 69 70 73 76 76 76 71 61 53 51 54 58 62 64 64 61 58 57 56 54 52 52 52 52 51 49 48 48 48 48 48 47 46 43 41 40
35 38 43 49 56 61 66 69 70 71 74 77 77 76 67 57 52 51 57 62 65 66 63 60 56 51 49 48 49 50 52 52 52 51 49 45 43 44 46 47 46 43 41 38
38 40 45 53 59 64 68 69 70 72 74 78 79 72 62 53 51 56 62 66 67 65 61 55 51 51 51 50 51 53 56 56 56 54 51 48 45 41 40 43 43 41 38 37
39 44 50 56 60 65 68 68 70 72 76 79 77 64 56 52 54 59 64 67 65 61 55 52 50 49 50 51 53 56 59 60 57 54 52 49 44 41 37 36 38 39 37 36
43 47 52 59 63 67 69 69 70 73 77 78 72 60 53 53 57 62 65 65 61 57 53 50 49 51 52 54 55 56 58 60 57 55 54 50 44 38 34 31 30 34 37 37
45 50 56 61 65 67 69 69 71 74 77 76 67 57 54 57 61 64 64 60 55 51 49 48 50 52 54 54 55 56 59 61 60 56 55 50 44 38 32 28 26 26 32 37
46 51 56 63 67 69 69 69 71 74 76 72 61 55 57 61 63 64 60 55 51 49 48 49 51 55 56 57 57 59 62 61 59 56 52 49 45 41 35 30 26 23 25 33
47 52 58 64 68 68 67 68 70 73 74 67 58 55 58 62 63 61 56 51 48 47 48 50 53 56 58 59 60 63 65 62 58 55 51 47 44 42 39 33 28 23 22 26
47 52 59 64 67 67 66 67 69 72 73 63 56 56 60 62 62 59 53 48 46 46 49 52 55 57 59 61 62 65 64 62 59 55 51 48 45 42 39 35 31 26 22 22
48 54 61 66 68 66 64 65 69 73 69 60 55 57 61 62 61 55 49 45 44 47 50 53 55 57 61 62 63 64 61 61 60 57 53 50 48 45 40 35 31 28 25 22
49 55 62 66 67 66 64 65 69 71 65 59 56 58 61 61 59 51 45 43 45 49 53 54 55 58 61 62 64 62 60 60 61 60 57 52 48 45 41 36 32 29 26 22
49 55 62 65 66 64 63 65 69 70 63 58 57 60 61 60 56 47 42 44 48 51 54 55 56 59 60 62 63 60 60 60 61 62 60 55 50 44 41 38 33 29 27 25
50 56 62 65 65 63 62 65 68 67 61 56 58 60 61 59 52 44 42 45 49 51 54 55 56 59 60 62 62 58 58 61 63 62 62 58 52 46 40 37 34 29 26 24
51 56 61 63 62 61 62 64 66 65 60 56 58 59 60 56 48 42 42 46 49 51 53 53 55 58 60 61 62 56 56 60 63 63 63 62 56 49 43 36 30 28 23 21
53 56 61 63 61 60 61 63 65 63 58 56 57 59 58 53 45 41 43 46 49 51 51 51 53 58 61 61 63 56 54 56 59 63 63 65 65 58 50 41 33 27 23 19
53 57 61 61 59 59 60 62 64 62 57 55 56 58 56 49 42 40 44 47 48 49 49 49 52 56 59 61 63 57 52 55 58 61 64 65 66 65 58 48 39 31 25 20
53 56 59 59 58 58 59 61 62 60 56 54 55 56 53 46 40 42 45 47 47 48 49 49 51 54 57 60 62 59 53 55 58 60 62 64 66 66 66 58 46 38 30 23
52 55 57 57 56 57 58 60 60 58 54 53 54 54 51 43 39 40 43 45 46 48 49 48 49 52 56 57 58 60 57 55 56 59 61 62 63 65 66 65 59 48 38 30
50 54 56 55 54 55 57 59 59 57 54 52 53 52 48 41 37 39 42 43 44 46 46 46 48 51 53 55 57 58 58 57 56 57 59 60 60 60 62 63 62 61 54 44
50 54 55 53 52 54 56 58 58 55 52 50 51 51 46 39 37 39 41 43 45 45 44 44 46 49 51 54 56 56 57 59 57 56 57 59 60 60 60 60 61 60 59 57
51 55 54 52 51 53 55 57 56 53 50 48 50 48 43 36 35 37 41 44 45 44 43 43 44 47 50 53 54 54 55 57 58 56 55 57 59 59 59 58 58 57 57 56
51 53 52 51 51 52 54 55 55 52 48 47 48 47 41 35 33 35 38 41 41 42 42 42 42 44 48 52 53 53 53 54 56 57 56 56 58 59 59 57 56 55 54 54
51 52 51 50 49 50 51 53 54 52 47 46 47 45 40 34 33 34 36 38 38 40 42 42 40 40 44 48 50 51 51 51 54 55 56 57 57 58 59 59 58 56 54 53
51 51 49 48 47 48 49 51 53 50 45 44 45 44 39 32 30 30 32 34 35 38 40 41 40 38 39 43 46 48 49 50 50 52 54 55 56 57 57 58 58 58 56 54
50 50 49 46 45 46 48 50 51 48 43 42 44 44 39 33 29 28 30 31 32 35 38 40 40 38 37 38 42 45 46 48 49 49 50 51 53 55 56 56 57 57 57 56
50 49 46 44 43 44 46 48 49 46 43 41 43 43 39 33 27 26 27 29 30 32 35 37 38 38 37 36 37 40 43 44 46 47 49 49 49 51 54 55 55 56 56 55
49 47 44 42 41 42 44 46 47 45 41 40 41 41 39 33 27 25 25 26 28 29 32 34 36 36 36 35 35 36 38 41 43 44 46 47 47 49 50 51 53 54 54 54

GEFSNGP_500_meanwind_006.txt.gz
Wind_Speed
28 29 32 37 41 46 51 56 62 68 73 74 74 75 77 75 72 69 68 68 65 59 55 52 52 53 53 54 55 56 56 54 53 53 53 52 51 48 43 38 34 30 29 31
28 30 32 37 42 48 53 58 64 70 74 75 73 75 76 73 71 68 68 67 61 55 53 52 53 54 54 56 57 56 55 53 52 53 54 54 52 49 44 39 34 29 25 26
32 34 36 40 46 50 54 60 66 71 74 73 72 74 74 72 69 68 68 64 57 53 52 52 54 55 56 58 58 57 55 52 52 54 57 57 55 52 47 41 35 30 25 23
35 37 39 43 47 51 56 62 67 72 74 72 72 73 72 69 68 67 66 60 53 52 52 54 55 56 57 60 60 58 55 52 54 57 59 59 58 56 52 44 36 30 26 22
37 39 40 43 49 54 58 62 68 72 72 71 72 73 70 68 67 67 63 56 53 53 54 55 55 56 59 61 61 59 54 53 55 57 59 59 60 60 56 46 37 30 25 21
37 40 43 45 50 55 60 65 69 72 71 70 71 72 69 68 67 66 60 54 53 54 55 55 55 57 59 61 61 58 54 54 56 58 59 60 62 63 59 47 35 28 23 20
38 40 42 46 51 56 61 66 69 71 69 68 70 70 68 67 66 64 57 53 53 55 55 55 55 57 59 61 61 58 55 56 57 59 60 62 64 65 59 45 31 25 21 18
40 43 45 48 51 55 60 65 69 69 67 67 69 69 66 65 65 61 54 52 54 55 55 55 55 56 59 60 60 58 56 57 59 61 62 63 66 66 59 44 29 21 18 17
40 42 44 47 51 55 60 64 68 68 66 67 68 67 65 64 63 58 52 52 54 54 55 55 55 56 58 59 58 57 56 57 60 62 63 65 68 68 61 45 29 20 16 15
40 41 44 47 51 55 58 62 67 66 65 66 67 66 63 63 61 55 51 51 53 54 54 53 54 57 58 58 57 56 55 57 60 62 63 66 69 70 65 49 33 21 15 13
39 41 43 47 52 55 57 62 65 65 64 65 66 64 62 61 59 53 49 50 52 53 53 52 54 56 57 56 56 55 56 58 60 62 63 64 68 71 69 56 40 27 17 11
39 41 44 47 52 55 57 62 65 64 63 64 64 62 61 59 56 50 47 48 50 52 52 51 53 55 56 56 56 56 56 57 60 61 62 63 66 69 71 64 48 33 23 14
38 40 43 47 52 54 57 61 64 63 62 63 63 62 60 58 54 49 45 46 48 51 51 51 52 54 56 55 56 57 56 58 60 61 62 63 65 67 70 69 59 43 30 21
38 40 43 47 51 53 55 60 62 62 61 61 62 61 59 57 53 47 44 44 46 49 50 50 51 53 54 54 55 56 57 58 60 62 63 63 64 66 68 69 67 57 43 30
38 40 43 47 50 51 54 58 61 61 60 60 61 59 58 56 53 47 43 42 44 47 49 49 50 51 52 53 54 55 56 57 60 62 63 63 63 64 65 66 67 65 58 46
39 40 43 47 49 50 53 58 61 60 58 58 59 58 57 56 52 47 42 40 42 45 48 49 49 48 49 52 53 54 55 57 59 60 61 61 62 62 63 63 64 64 63 59
39 40 43 46 48 49 53 57 59 58 57 56 57 57 56 55 52 48 43 40 40 42 46 48 47 46 47 49 51 53 54 55 56 58 59 59 61 61 61 61 61 61 61 60
38 40 42 45 46 48 52 56 57 56 55 55 56 56 55 54 52 48 44 41 40 41 44 47 46 45 46 47 48 51 53 54 54 56 57 58 59 60 60 60 60 59 59 58
39 40 42 44 45 47 51 54 56 55 54 54 55 54 53 52 50 48 44 40 39 40 42 44 44 44 44 44 45 48 50 52 53 53 55 56 56 57 58 59 59 59 58 57
39 40 42 43 44 47 50 54 55 54 52 52 53 53 52 50 49 47 43 39 37 37 39 41 42 43 42 41 42 45 47 48 50 51 52 53 54 55 56 57 58 59 59 58
37 40 41 43 45 48 50 53 53 52 51 50 51 51 51 49 48 47 43 39 37 36 37 39 40 41 40 40 41 42 44 45 46 48 49 51 52 52 53 54 55 56 57 58
37 39 40 43 46 48 50 51 51 50 48 48 49 50 49 48 47 45 43 39 36 35 35 36 38 38 39 39 39 39 40 42 43 45 47 49 50 50 50 50 52 53 55 56
38 38 41 43 45 47 48 50 50 48 46 46 47 48 48 47 45 45 42 39 35 33 32 33 35 36 37 38 38 37 37 38 40 42 44 46 48 48 48 48 48 49 50 52
38 39 40 40 43 45 47 48 48 47 45 44 45 47 47 46 44 44 42 38 34 32 30 31 32 34 35 36 37 36 36 36 36 38 40 42 44 46 46 47 47 47 47 48
37 37 37 39 42 45 47 48 47 45 43 43 44 45 46 45 43 42 41 38 34 31 28 28 29 31 33 34 36 36 36 36 35 36 37 38 40 42 44 45 45 46 45 46
38 37 37 40 43 47 48 48 46 44 41 41 42 43 44 44 41 40 40 38 34 30 27 26 27 28 29 31 33 35 36 37 36 35 35 36 37 39 41 42 43 43 44 45
39 39 40 43 46 48 49 48 45 42 40 39 41 42 42 43 40 38 38 37 33 30 27 25 25 25 26 28 30 32 34 35 36 36 35 34 34 36 37 38 39 40 41 42

GEFSNGP_500_meanwind_012.txt.gz
Wind_Speed
25 27 28 31 34 36 39 43 48 53 57 60 64 69 72 74 74 75 74 73 70 64 60 60 62 63 63 63 60 57 55 56 58 60 61 62 62 63 63 63 61 55 45 35
25 25 27 30 34 37 40 44 50 55 59 62 65 69 72 74 74 74 74 72 68 62 59 60 62 63 63 62 59 56 55 57 60 62 63 63 64 65 66 65 59 48 36 25
29 28 28 33 38 41 42 46 51 56 60 62 66 70 72 74 73 74 73 71 66 60 58 60 62 63 63 61 58 56 56 58 61 63 64 65 66 68 70 66 55 40 25 14
34 33 32 37 40 43 45 47 52 56 60 63 66 70 72 73 73 73 72 69 64 59 57 59 62 63 62 61 58 56 56 59 62 64 65 66 68 71 72 65 50 33 19 7
41 40 38 38 42 45 48 49 53 57 61 63 66 70 72 73 72 72 71 69 63 58 56 58 61 62 61 60 58 56 56 59 62 65 67 68 70 72 72 62 47 31 16 5
45 45 45 44 44 46 48 51 54 58 62 63 66 69 71 72 71 71 71 68 63 58 55 58 60 61 61 60 59 57 57 59 63 66 68 69 71 74 73 63 48 32 17 6
48 49 48 49 48 48 49 52 55 58 61 63 65 69 71 71 71 71 70 68 63 57 55 57 59 60 60 60 59 58 58 60 63 66 68 69 71 74 74 65 51 36 21 9
53 54 54 54 52 49 49 51 54 57 61 62 65 68 70 70 70 70 69 67 62 57 54 56 58 59 59 59 59 58 58 60 62 65 67 69 70 72 73 69 57 41 27 15
52 54 56 57 53 49 48 50 53 57 60 61 64 68 70 69 69 69 69 66 62 56 54 55 57 58 58 58 58 58 58 59 60 63 66 68 69 70 72 72 64 51 36 22
52 55 58 57 54 50 48 50 53 57 60 61 64 67 69 68 68 68 68 65 61 56 53 53 55 57 57 56 57 58 58 58 58 61 64 67 69 69 71 72 70 62 48 33
51 56 59 59 55 51 49 50 53 57 59 61 64 67 68 68 67 67 67 65 61 56 52 52 53 55 55 55 55 56 56 56 56 58 62 65 68 70 70 71 71 69 61 48
51 56 59 60 58 53 50 50 53 56 59 61 64 67 67 67 66 66 65 64 60 56 52 50 51 53 54 54 54 54 54 55 55 56 59 62 65 68 69 69 69 68 67 61
51 55 59 61 58 54 51 51 53 56 58 61 64 66 67 66 65 65 64 63 60 56 51 49 49 51 52 52 52 52 53 54 54 55 56 58 61 63 66 68 68 67 67 65
51 55 58 60 59 55 52 51 53 55 58 61 64 65 66 65 64 63 63 62 60 56 51 48 48 49 50 50 50 50 51 52 53 54 54 55 57 59 62 64 66 67 66 65
51 54 57 60 59 56 53 52 52 54 57 60 62 64 64 64 63 62 62 61 59 55 51 47 46 47 48 49 48 48 48 50 51 52 52 52 53 55 57 60 63 65 65 65
51 53 56 59 60 58 55 52 52 53 56 58 61 63 63 62 61 60 60 60 58 55 51 46 44 44 46 47 47 46 46 47 49 50 50 50 50 51 53 55 58 60 62 63
52 54 56 59 60 59 56 53 51 52 54 57 60 62 63 61 59 58 58 59 57 54 50 45 42 42 43 45 45 45 44 45 46 47 48 48 48 49 50 52 54 56 59 61
52 54 57 59 60 60 57 53 51 52 53 56 59 62 63 60 58 57 56 57 56 53 50 45 41 40 41 43 44 44 43 43 43 44 45 46 46 47 48 50 51 53 55 56
53 54 57 59 60 60 58 53 51 51 53 56 59 61 62 60 57 55 55 55 55 53 50 46 41 39 39 40 42 42 42 42 42 42 43 43 44 45 46 48 49 51 52 53
54 55 58 60 61 60 57 53 51 51 53 55 59 61 61 59 56 53 53 53 53 52 49 46 42 38 37 38 40 41 41 41 41 40 41 41 41 42 44 46 47 49 50 50
56 57 59 61 61 60 56 53 51 50 52 55 58 60 60 58 54 51 51 51 52 50 48 45 42 38 36 36 37 38 39 40 40 40 39 39 40 40 42 44 45 47 48 49
57 58 60 61 61 58 55 52 50 49 50 54 57 59 59 57 53 50 49 49 49 48 46 44 42 39 35 34 34 36 37 38 39 39 39 39 39 40 41 42 44 45 46 47
59 60 61 61 59 56 54 51 49 48 49 53 56 58 58 56 52 49 47 47 48 46 45 43 42 39 36 33 33 33 35 36 37 38 38 38 39 39 40 41 42 43 44 45
61 62 61 60 56 54 53 50 48 47 49 53 56 57 57 55 52 48 46 45 46 45 43 42 41 39 36 34 32 31 32 33 34 35 36 37 38 39 39 40 40 41 42 42
63 62 60 57 54 53 52 50 47 47 49 53 55 56 56 55 52 47 45 44 44 44 42 41 40 39 37 34 32 31 30 30 31 32 34 35 36 37 38 39 40 40 40 41
63 61 57 53 51 51 50 49 47 47 50 53 55 56 55 55 52 47 44 42 42 42 41 39 38 38 37 35 33 32 30 29 29 30 32 33 34 35 37 37 38 39 39 40
61 57 53 49 48 49 48 47 47 48 51 53 55 55 54 53 51 47 44 42 41 41 41 39 37 37 37 36 35 33 32 30 29 29 30 30 31 33 34 36 37 37 38 38

GEFSNGP_500_meanwind_018.txt.gz
Wind_Speed
29 32 34 36 37 38 38 38 38 38 39 43 47 51 54 59 63 66 69 70 70 71 73 73 71 68 67 67 66 65 65 64 63 64 67 70 74 77 76 69 53 34 21 17
29 32 35 39 41 41 41 41 40 40 40 43 46 51 54 59 63 66 68 68 69 71 73 72 70 67 66 66 66 65 64 64 64 65 67 70 74 77 76 68 52 33 18 11
29 33 37 42 46 46 44 44 44 43 43 45 47 51 55 59 62 65 67 68 68 70 72 71 69 66 65 65 64 64 63 64 64 65 67 70 73 76 75 69 55 37 20 9
30 35 40 43 47 49 47 47 47 46 46 47 49 52 55 58 62 65 67 67 67 69 71 70 68 66 64 64 63 62 62 63 64 64 66 69 72 74 74 71 61 44 28 16
32 36 39 44 48 51 51 50 52 51 50 50 51 52 55 57 62 65 67 67 67 68 69 69 67 65 63 62 62 61 61 62 63 64 64 67 70 72 73 72 66 53 36 24
31 36 41 44 48 51 53 54 56 55 54 52 52 52 54 57 61 65 67 66 66 67 68 68 66 63 61 61 60 60 60 61 62 62 63 65 68 71 72 72 69 61 47 32
30 34 38 43 47 51 52 55 58 58 56 54 52 53 54 57 61 65 67 66 65 66 67 67 65 62 60 60 59 59 59 60 60 60 62 64 66 69 71 71 70 66 58 45
32 37 40 44 47 50 52 55 57 59 58 56 55 54 55 57 60 64 66 66 65 65 66 66 64 62 59 58 58 58 58 58 58 59 60 61 63 65 67 69 68 67 64 56
31 34 38 42 46 49 52 55 57 60 61 59 56 55 55 57 60 64 66 65 64 64 64 64 63 61 58 57 56 56 56 56 56 57 58 59 61 62 64 65 66 66 65 62
31 34 38 43 46 49 52 55 58 61 62 61 58 56 55 56 60 63 65 65 63 62 63 63 62 60 57 55 54 54 53 53 53 54 56 57 59 60 61 62 64 65 65 63
32 36 38 42 46 49 53 55 58 61 63 62 59 56 55 56 59 62 64 64 62 61 61 61 61 59 56 53 53 52 52 51 51 51 53 56 58 59 59 60 61 62 63 63
36 39 42 44 47 50 53 56 58 61 63 63 60 57 55 55 58 61 63 63 61 60 60 60 59 58 55 52 51 50 50 49 49 49 50 53 55 57 58 58 58 59 61 62
39 40 42 45 48 50 53 56 58 61 62 63 61 58 55 55 57 60 62 62 61 59 58 59 58 56 54 51 49 49 48 48 47 47 48 50 52 54 55 56 57 56 57 58
41 43 44 46 48 50 53 56 58 60 62 62 61 58 55 54 56 59 61 62 61 59 57 57 57 55 53 51 48 47 47 46 46 46 47 48 49 51 52 53 54 54 54 54
42 44 46 47 49 50 53 56 58 60 61 61 61 58 55 54 55 58 60 62 60 58 56 55 55 54 52 50 48 46 45 45 45 45 45 46 47 49 50 51 52 52 52 52
42 46 48 49 50 51 53 56 58 59 61 61 60 58 56 54 54 57 60 61 60 57 55 54 53 53 51 50 47 45 44 43 43 44 44 45 45 46 48 49 50 50 50 50
44 48 49 50 51 51 53 55 57 59 60 60 59 57 55 54 54 56 59 60 59 57 55 53 52 51 50 48 47 45 43 42 42 42 43 44 44 45 46 47 48 49 49 50
46 50 52 52 52 52 53 55 56 58 59 60 58 56 55 53 53 55 57 59 58 56 54 52 50 49 49 47 46 44 43 42 41 41 41 42 43 44 45 46 46 47 47 48
48 52 53 52 52 52 53 54 56 58 59 59 57 55 54 52 52 54 56 57 57 55 54 51 49 48 48 46 45 44 43 42 40 40 40 41 42 43 43 44 45 45 45 45
49 53 53 52 52 52 53 54 56 57 58 59 56 54 52 51 51 52 55 56 56 55 54 51 49 47 47 46 44 43 43 42 40 40 39 39 40 41 41 42 43 44 44 44
49 52 52 52 52 53 53 54 56 57 58 58 55 52 51 50 50 51 53 54 54 54 53 51 48 47 46 45 44 43 42 42 41 40 39 38 38 39 39 40 41 42 43 42
49 51 51 52 53 53 53 55 56 57 58 57 54 51 50 49 48 49 52 53 53 53 52 50 48 46 45 45 44 43 42 42 41 41 40 39 37 37 37 38 39 40 41 41
49 50 52 53 53 53 54 56 56 57 58 57 54 50 48 47 47 48 50 51 51 51 51 49 47 45 45 44 44 43 41 41 41 42 41 40 38 37 36 36 37 38 39 39
51 52 53 53 53 54 55 56 56 57 57 56 52 49 47 46 46 47 49 49 49 50 49 48 46 45 44 43 43 42 41 41 41 42 42 41 40 38 36 35 35 35 36 37
53 53 54 54 54 55 56 55 55 56 56 55 51 47 45 45 45 46 47 48 48 48 48 47 45 44 43 43 43 42 41 40 41 41 42 42 41 39 37 35 33 33 33 34
53 53 54 54 55 55 55 54 54 55 55 53 49 46 44 44 45 46 46 46 47 47 46 46 44 43 43 42 42 42 41 40 40 41 41 42 41 40 38 36 33 31 31 32
53 53 54 54 54 54 53 53 53 54 54 51 47 44 43 44 44 45 45 45 45 45 45 44 43 42 42 42 41 41 41 40 39 40 41 41 41 40 39 36 32 30 29 30

GEFSNGP_500_meanwind_024.txt.gz
Wind_Speed
11 15 19 23 27 31 34 38 41 45 48 52 55 56 56 56 55 55 55 57 60 64 68 69 71 72 74 74 72 70 67 65 64 64 66 67 68 69 71 73 73 69 60 45
12 15 18 21 25 29 33 37 41 46 49 53 57 58 59 58 58 56 56 58 61 64 67 69 70 71 73 73 71 69 66 64 62 62 64 66 67 68 69 71 72 71 65 53
13 15 17 20 24 27 32 37 41 46 49 54 57 60 61 61 60 58 58 59 61 64 67 68 69 70 71 71 70 68 65 63 61 61 62 65 66 67 67 69 71 71 68 61
15 17 20 23 25 28 32 36 41 45 49 53 57 61 64 64 63 61 60 60 61 64 67 68 68 69 70 70 69 67 64 62 60 59 61 63 64 65 66 67 68 70 70 65
19 20 21 24 28 31 34 36 41 45 49 53 57 61 64 66 65 63 61 60 62 64 66 67 67 68 69 69 68 66 63 60 59 58 59 60 62 64 64 65 66 68 69 68
23 25 26 28 30 32 37 40 44 47 51 54 58 61 64 67 67 65 62 61 62 64 66 66 66 67 67 68 68 66 62 59 57 57 58 59 60 62 63 63 64 66 67 68
25 27 29 30 33 35 37 41 44 47 51 54 57 60 64 67 68 67 64 62 62 63 65 66 65 65 66 67 66 65 62 59 56 56 56 57 58 59 61 62 63 64 65 66
28 29 32 32 34 37 38 41 43 47 50 53 57 60 64 67 68 68 66 63 62 63 64 65 64 64 65 66 66 64 61 58 56 55 54 55 56 57 58 60 60 60 61 63
30 30 35 35 36 38 40 42 44 47 50 54 57 60 64 67 69 69 67 64 62 62 63 64 63 63 63 64 65 63 61 58 56 54 53 53 54 54 55 57 58 58 59 60
34 31 36 37 38 41 43 44 46 47 50 54 57 60 63 66 68 69 68 65 62 62 62 63 62 61 62 63 63 62 59 57 55 53 53 52 52 52 53 54 55 56 57 58
37 36 38 37 40 43 45 47 48 48 50 53 57 60 62 65 67 68 68 66 63 61 61 62 61 60 61 61 62 61 59 56 54 53 52 51 51 52 52 53 55 56 56 56
40 41 43 40 41 45 47 49 49 50 51 53 56 59 62 64 66 67 68 66 63 60 60 60 60 59 59 59 60 60 58 56 54 52 50 50 50 51 52 52 53 53 54 55
44 46 47 44 45 47 49 51 52 51 52 54 56 58 61 63 65 66 67 66 63 59 59 59 59 57 57 57 58 58 57 55 53 51 50 48 47 47 48 50 51 51 51 51
45 48 49 47 48 49 51 53 53 53 53 54 56 58 60 62 64 65 66 66 63 59 58 58 57 56 55 56 56 56 55 54 52 51 50 49 47 46 46 46 47 49 49 49
43 48 51 51 51 52 53 54 55 55 54 55 56 57 59 61 63 64 65 66 62 58 56 56 55 54 53 54 54 55 54 53 52 50 49 48 47 46 45 45 45 46 46 46
42 45 48 50 52 53 54 55 56 56 56 56 57 57 58 59 61 63 64 65 62 57 55 54 53 53 52 52 52 53 53 52 51 50 49 48 47 46 44 43 43 44 44 44
42 43 45 48 51 53 55 56 57 57 57 57 56 56 57 58 60 61 62 64 62 57 54 53 52 51 50 50 50 51 51 51 50 49 48 47 46 45 44 42 41 42 42 43
44 43 45 48 51 54 56 57 58 58 58 57 55 54 56 57 59 60 61 63 61 56 53 52 50 49 49 48 49 49 50 50 50 49 48 46 46 45 44 42 40 39 40 40
51 49 48 49 51 54 57 58 59 59 58 56 54 53 55 56 58 59 60 62 60 56 52 51 49 48 47 46 47 47 48 48 48 48 47 46 45 44 43 42 40 38 38 38
61 58 56 54 53 55 56 58 59 59 57 55 53 53 54 55 56 57 58 60 59 55 51 49 48 46 46 45 45 45 46 47 47 47 47 45 44 44 43 42 40 38 36 36
68 66 63 59 56 54 55 57 58 58 57 55 52 52 53 54 55 56 57 59 58 55 50 48 47 45 44 44 43 44 44 45 46 46 46 45 44 43 42 42 40 37 36 34
73 71 67 61 57 53 53 56 58 58 57 55 53 52 53 53 54 54 55 57 57 54 49 47 45 44 43 43 42 42 42 43 44 45 45 44 43 42 42 41 39 37 35 33
71 71 69 64 59 55 54 56 57 58 57 55 53 52 52 53 53 53 54 55 56 53 49 46 44 42 41 41 41 40 41 41 43 43 44 43 42 41 41 40 38 36 34 33
65 63 63 61 59 57 56 57 58 58 57 54 52 52 52 52 51 51 52 54 55 52 48 44 43 41 40 40 40 39 39 40 41 42 42 42 41 40 39 39 37 35 33 32
61 58 57 56 55 55 56 58 59 58 56 54 52 52 51 50 50 51 51 53 53 51 47 43 41 40 39 38 38 38 37 38 39 40 41 41 40 39 38 38 36 34 32 31
57 55 54 53 53 55 58 59 60 58 56 54 53 52 50 49 49 50 50 51 52 50 46 42 40 39 38 37 37 36 36 36 37 38 39 39 39 38 37 36 34 32 31 30
55 54 53 52 52 55 57 59 60 58 57 55 53 51 50 49 48 49 49 50 50 48 44 41 39 38 37 36 35 35 34 34 35 36 37 38 37 36 35 34 32 30 29 29

GEFSNGP_500_meanwind_030.txt.gz
Wind_Speed
19 17 16 16 17 19 21 24 26 28 32 35 38 41 45 48 52 55 59 63 66 68 70 70 68 67 67 67 68 70 73 75 76 74 70 67 64 63 63 63 64 65 66 68
22 21 20 19 20 21 23 26 28 30 32 36 38 42 45 48 52 56 59 63 67 69 71 72 70 68 68 68 68 69 72 74 75 73 70 66 63 62 62 62 63 64 65 66
25 25 25 22 22 23 24 27 30 32 34 38 40 42 46 48 52 56 59 63 67 70 72 73 72 69 68 68 68 69 71 73 74 73 70 66 63 61 61 61 61 62 63 65
29 28 28 25 26 27 27 29 31 33 36 39 42 43 47 49 52 56 59 63 66 69 72 74 73 71 69 68 67 68 70 72 73 72 69 66 62 60 60 60 60 60 61 62
33 33 31 28 29 30 31 30 33 35 37 40 43 45 46 49 52 55 58 62 65 69 71 73 74 72 70 68 67 67 68 70 72 72 69 65 62 60 58 59 59 59 60 60
37 37 35 31 32 34 36 35 35 37 39 41 45 48 49 51 52 55 58 62 65 68 71 73 74 73 70 68 67 66 67 69 71 71 69 65 62 59 58 57 58 58 59 59
40 41 39 35 36 38 39 39 40 41 42 44 46 49 51 52 53 55 57 61 64 67 69 72 74 73 70 68 66 66 66 68 69 70 68 65 62 59 57 56 56 57 56 56
43 43 40 38 39 40 42 42 42 44 45 46 47 49 51 52 53 54 56 60 63 65 68 70 72 73 71 68 66 65 65 66 68 69 68 65 61 58 56 54 54 53 53 53
46 43 40 39 41 43 45 45 45 46 47 47 48 49 51 52 53 53 55 58 62 64 66 69 70 73 71 68 66 64 64 64 66 68 68 66 61 58 55 53 52 51 51 51
46 42 39 40 42 44 47 48 48 49 49 49 50 50 51 52 52 52 53 57 60 63 65 67 69 71 71 69 66 64 62 63 64 66 68 66 62 58 54 51 50 49 49 49
47 41 38 39 42 45 47 49 50 51 51 51 52 51 52 52 52 52 52 55 59 61 63 65 67 69 70 69 65 63 61 61 62 64 66 66 64 59 55 52 49 49 48 48
46 40 40 40 39 41 45 49 51 52 51 52 52 52 51 52 51 51 51 54 57 60 61 63 65 67 69 68 65 62 60 60 60 62 64 64 63 60 55 52 50 48 48 47
50 46 45 43 40 41 45 48 50 52 52 52 52 52 51 52 51 51 51 53 56 58 60 61 63 64 67 67 65 62 59 58 58 60 62 63 61 58 55 52 50 48 46 45
56 55 54 50 48 46 46 47 50 52 52 52 53 53 52 52 52 51 51 53 55 57 58 59 61 62 64 66 65 61 58 56 56 57 59 61 60 58 54 50 48 47 45 43
63 63 63 60 57 54 51 51 52 53 53 53 54 54 54 54 53 52 53 54 55 57 57 57 59 60 62 64 64 60 57 55 54 55 57 59 59 58 54 50 47 45 44 42
70 71 70 68 65 61 59 57 57 56 56 56 56 55 56 56 56 55 55 55 56 56 56 56 57 57 59 61 62 60 56 53 52 53 54 57 58 57 55 51 46 44 42 40
74 74 74 73 71 68 65 63 61 59 59 59 58 58 59 59 58 57 57 57 57 56 56 54 54 55 56 59 61 59 55 52 51 50 52 54 56 57 55 51 46 42 41 39
71 72 72 72 72 71 69 66 64 63 61 61 61 61 60 61 60 59 60 58 56 56 54 52 52 52 53 56 58 58 54 51 49 48 50 52 54 55 55 51 47 42 40 39
67 70 71 71 70 70 69 67 66 65 63 63 63 62 61 61 61 61 61 58 55 55 53 50 50 50 51 53 56 56 53 49 47 46 47 49 52 53 54 52 47 42 39 37
64 66 68 69 69 68 68 67 67 66 65 64 63 62 62 61 61 62 61 58 55 55 51 48 48 48 48 51 54 54 51 48 46 45 45 47 49 51 52 51 48 42 38 36
61 64 66 68 68 68 68 67 67 66 65 64 62 61 60 61 61 61 61 57 55 54 49 47 46 45 46 48 51 52 49 46 44 43 43 44 47 49 51 50 48 43 38 35
61 64 66 68 69 69 68 68 67 65 63 61 60 59 59 59 60 60 60 57 55 53 48 45 44 43 43 46 49 49 47 44 43 41 40 42 44 47 49 49 47 43 38 34
64 65 67 68 68 68 67 66 65 64 62 59 58 56 56 57 58 59 59 57 55 51 46 43 42 40 41 43 46 47 45 42 41 40 39 39 41 44 47 48 47 43 38 33
68 68 68 68 68 67 66 64 62 61 60 58 55 53 53 53 55 56 56 56 54 49 44 41 39 38 39 41 43 44 43 40 39 38 37 37 38 42 44 46 46 43 38 33
70 70 69 68 67 66 63 61 59 57 56 55 53 51 50 51 53 54 54 54 51 47 42 40 37 36 37 39 41 42 40 38 37 36 35 35 36 39 42 44 44 42 38 33
71 70 68 66 64 62 60 59 56 54 53 53 52 50 50 51 52 53 53 51 48 43 39 37 35 34 35 37 38 39 38 36 35 34 34 33 33 36 39 42 43 42 38 33
68 66 64 62 60 58 58 56 54 52 53 53 52 51 52 52 52 52 51 49 45 40 37 35 33 32 33 35 36 37 36 34 33 33 32 31 31 33 37 40 42 41 38 33

GEFSNGP_500_meanwind_036.txt.gz
Wind_Speed
29 31 33 33 33 34 35 34 35 33 33 31 35 37 39 42 44 46 49 51 54 56 57 58 60 62 65 68 70 73 76 79 80 79 77 77 79 80 79 75 69 65 64 64
31 33 37 36 33 35 36 36 36 37 36 34 39 39 41 44 46 48 50 52 54 56 58 59 60 61 64 67 69 72 74 77 80 79 77 77 78 79 78 74 69 64 63 62
34 35 39 37 33 35 38 37 38 40 39 40 42 43 43 46 48 49 51 52 55 57 59 59 59 61 63 66 68 71 73 76 79 79 77 76 77 78 78 75 69 64 62 61
39 38 41 35 34 36 39 40 40 42 42 44 46 46 46 48 50 51 52 53 56 58 59 59 59 60 62 65 68 70 72 74 77 79 77 76 75 76 77 75 69 64 60 59
41 42 43 36 34 37 41 42 42 44 45 47 49 49 48 50 51 53 53 55 56 58 59 59 59 59 61 63 67 69 71 73 75 77 77 75 74 75 76 74 70 64 60 58
44 46 47 40 37 39 41 42 42 46 47 49 50 51 51 52 53 54 55 55 57 58 59 59 58 58 59 62 65 68 70 71 73 76 76 75 73 73 74 74 70 64 59 57
45 48 49 42 40 41 41 41 44 46 48 50 52 54 54 54 55 56 56 56 57 58 58 57 57 57 58 61 64 67 69 70 71 73 75 74 72 72 72 73 70 64 59 56
47 50 48 42 42 40 40 41 43 47 49 52 53 54 55 56 56 57 57 56 56 56 56 56 56 56 57 60 63 66 68 68 69 71 73 73 71 70 71 71 69 64 59 55
53 52 48 46 44 41 41 43 45 48 51 53 55 55 56 56 57 57 57 56 55 55 54 55 56 56 57 59 62 65 66 67 67 69 71 71 70 68 68 69 68 65 59 54
58 55 52 50 47 45 45 48 49 51 52 54 56 56 56 57 58 58 58 58 57 55 55 55 55 56 57 59 61 64 65 66 66 66 68 69 68 66 66 67 67 65 60 54
63 59 57 54 53 53 54 53 53 54 55 56 58 58 58 58 59 59 60 60 59 58 57 56 56 57 57 59 61 63 64 64 64 64 66 67 66 65 64 65 67 65 61 55
66 63 65 62 58 58 59 59 58 59 59 59 60 61 61 61 61 62 62 62 63 62 61 59 58 58 59 59 61 62 63 63 63 62 63 65 65 63 62 63 65 65 61 55
66 65 67 65 63 62 62 62 61 61 61 62 62 63 63 63 63 64 65 65 65 65 64 63 61 60 60 60 60 61 62 62 61 60 60 62 62 61 60 60 63 64 61 55
63 65 67 65 63 62 63 63 63 62 62 63 63 63 64 65 64 65 66 66 66 66 66 65 63 61 61 62 61 61 61 61 60 57 57 59 60 59 58 58 59 61 60 55
57 59 60 59 59 59 59 59 60 59 59 60 61 61 61 61 61 62 63 64 64 64 65 65 64 63 62 62 61 60 60 60 58 55 54 56 57 57 55 55 56 58 58 55
53 54 54 54 54 54 54 55 55 55 56 57 57 57 57 57 57 57 59 61 61 61 62 63 63 63 62 62 61 59 59 58 56 53 51 52 54 54 53 52 53 55 55 53
47 48 49 49 49 49 50 50 51 51 51 51 51 52 53 53 53 54 55 56 57 58 59 60 60 61 61 61 60 59 57 55 53 50 48 49 51 51 50 49 50 52 53 52
39 41 42 42 43 44 46 46 47 48 48 48 48 48 49 50 50 51 52 53 53 54 56 57 58 59 58 59 58 57 54 52 50 47 45 46 48 48 47 46 47 49 50 51
34 35 37 40 42 44 46 48 49 49 50 51 51 51 51 52 52 51 51 51 52 52 53 55 56 56 56 56 56 55 52 50 47 45 42 43 45 45 44 43 44 45 47 48
36 38 39 41 43 45 47 48 50 51 53 54 55 56 56 56 56 55 54 54 53 53 53 53 54 55 55 55 55 53 51 48 45 42 39 39 41 42 41 40 41 42 44 46
43 44 46 47 48 49 51 53 55 56 58 60 62 62 62 61 60 60 59 57 55 54 53 52 52 53 53 53 53 52 49 46 42 39 36 37 38 39 38 38 38 39 41 43
48 50 50 51 52 54 57 60 62 64 65 67 68 69 68 67 66 65 63 61 58 56 53 51 50 51 51 51 50 49 47 44 41 37 34 34 36 36 35 35 35 36 38 41
52 53 54 56 59 61 62 65 67 68 69 70 70 70 70 69 68 66 64 61 59 56 53 51 49 48 49 49 48 46 44 42 38 35 31 32 33 33 32 32 32 33 35 38
54 55 57 59 62 63 65 66 67 68 69 70 71 71 71 69 67 66 64 62 59 55 52 49 47 46 46 46 45 43 41 39 36 32 29 30 31 31 30 29 30 31 33 35
55 56 58 60 62 64 66 68 68 70 71 72 72 70 69 68 67 65 63 60 57 53 50 47 45 45 44 42 41 39 37 35 33 30 27 28 28 28 27 27 27 28 30 33
55 56 58 60 63 65 67 68 69 70 70 69 67 65 64 63 62 59 56 54 51 48 46 44 42 41 41 39 37 36 34 33 31 27 26 26 26 26 25 25 25 26 28 31
54 56 57 58 59 60 60 61 63 63 62 60 57 54 54 54 51 47 44 42 40 39 39 38 38 38 37 35 33 33 32 30 28 25 24 24 24 24 23 23 24 25 26 29

GEFSNGP_500_meanwind_042.txt.gz
Wind_Speed
36 35 38 40 38 37 39 40 44 44 44 39 38 41 46 49 51 51 50 50 51 52 53 54 55 56 58 59 59 59 59 59 59 60 63 64 67 70 72 74 75 75 75 74
40 38 41 44 40 38 39 41 43 44 44 39 41 44 46 48 50 51 51 52 53 54 54 55 56 57 58 58 59 59 59 59 60 61 63 65 67 69 72 73 74 74 74 73
45 43 45 45 39 39 40 41 42 44 44 43 43 44 46 47 49 50 51 52 54 54 55 55 56 58 58 58 58 59 59 59 60 62 63 66 67 69 71 72 73 73 72 71
50 49 51 46 43 42 42 43 42 43 44 44 45 45 46 47 49 50 51 52 53 54 55 56 57 58 58 58 58 59 60 60 61 63 64 66 67 69 70 71 71 71 71 70
52 54 55 49 44 45 47 46 43 45 46 46 46 47 47 48 49 50 52 53 55 56 57 58 58 59 59 59 59 60 61 62 62 64 66 67 68 69 69 70 69 69 70 68
54 57 58 51 49 49 50 49 46 48 48 48 49 49 49 50 52 53 54 56 58 58 59 59 59 60 60 61 62 63 64 64 64 65 67 67 68 68 68 68 68 68 68 67
55 58 58 52 52 53 53 51 51 52 52 53 53 54 54 55 57 58 59 59 60 60 60 61 61 62 62 63 64 65 66 66 66 66 67 68 68 67 67 67 66 65 66 65
57 59 57 53 55 54 55 56 57 57 57 58 58 58 59 59 60 61 62 63 63 62 62 62 63 63 64 64 66 67 67 67 67 67 67 67 67 66 65 65 64 63 63 63
58 57 55 56 57 57 59 61 62 62 62 62 62 62 62 62 62 63 64 64 64 64 63 63 64 64 64 64 66 67 67 67 67 67 66 65 64 63 63 62 62 60 61 60
57 54 53 55 56 58 60 63 64 64 63 63 63 62 62 62 62 62 62 62 63 63 63 62 63 63 63 63 64 64 64 65 65 64 63 63 61 61 60 59 59 58 58 57
52 51 53 53 54 57 59 61 62 62 62 62 62 62 62 61 61 60 59 60 61 61 61 60 60 60 61 61 61 61 61 61 61 61 60 60 59 58 57 56 55 55 54 54
47 46 50 50 51 52 54 55 57 57 57 57 58 58 57 56 56 56 57 57 57 57 57 57 58 58 57 57 57 58 58 58 57 56 56 55 54 53 53 53 52 51 51 51
42 43 45 47 48 48 49 50 50 50 50 51 51 51 51 50 50 51 52 52 52 53 53 54 54 54 54 54 55 55 56 55 55 54 53 52 51 50 49 49 49 48 48 49
40 42 43 43 44 44 45 45 45 45 45 46 46 46 47 47 47 48 49 49 50 50 51 51 51 52 52 53 53 53 53 53 53 53 52 51 49 47 46 46 46 45 45 46
39 40 40 40 40 39 40 40 40 41 42 44 45 47 48 48 48 48 48 49 50 50 50 51 52 52 53 52 52 51 52 52 52 51 50 49 47 45 43 43 43 42 43 43
39 39 39 39 39 39 40 39 40 41 42 43 45 46 47 47 47 48 49 50 51 51 52 53 53 54 54 54 53 53 53 52 51 50 49 47 45 42 41 41 40 40 40 40
39 39 39 39 40 40 41 41 42 43 44 45 46 46 46 47 48 50 52 53 54 55 56 57 57 57 57 56 56 55 54 53 52 51 49 46 43 40 39 38 37 37 38 37
40 40 41 42 42 42 43 44 45 46 47 48 48 49 50 52 53 54 55 56 57 58 59 60 60 60 59 58 57 56 54 53 52 50 48 45 41 38 37 36 35 35 35 35
44 45 45 46 47 48 48 49 49 50 51 52 52 53 55 56 57 58 59 60 61 62 61 62 62 61 61 60 58 56 54 52 50 47 45 42 39 36 34 34 32 32 32 32
45 47 48 49 50 51 52 53 53 53 54 55 56 56 57 58 59 60 61 62 64 65 65 65 65 64 62 60 58 54 52 49 47 44 43 40 36 33 32 31 30 29 29 28
46 47 49 50 51 52 54 55 56 56 56 57 58 58 58 59 60 61 62 63 64 65 65 65 64 63 60 57 55 52 49 47 44 42 40 38 34 31 29 28 27 27 26 25
49 49 50 51 52 53 54 56 57 57 57 57 57 57 58 59 60 61 62 64 63 64 63 62 61 59 57 54 52 49 46 44 41 39 38 36 32 29 26 26 25 24 23 22
49 50 50 51 52 53 54 55 56 56 55 55 55 56 57 58 59 60 60 61 61 61 60 59 57 56 54 51 48 46 42 40 38 37 35 33 29 26 24 23 22 21 20 19
49 50 51 52 53 53 53 53 53 52 52 52 53 55 56 56 56 58 58 58 58 57 56 56 54 52 49 45 42 39 37 34 33 33 32 29 26 23 22 21 20 18 17 16
48 49 50 51 52 52 52 50 49 48 49 49 51 52 53 53 53 53 54 55 55 55 53 51 48 45 41 38 35 31 29 29 28 28 28 25 23 21 20 19 17 16 14 13
47 48 48 49 49 49 48 47 46 46 46 47 46 47 48 49 50 51 52 52 51 50 47 44 43 40 35 32 28 25 23 23 24 24 24 22 21 20 18 17 15 13 12 11
47 48 48 47 47 46 45 44 43 43 43 43 42 42 44 46 47 48 49 49 47 46 42 40 38 34 30 26 23 20 18 18 20 22 23 21 19 18 16 15 13 11 9 8

GEFSNGP_500_meanwind_048.txt.gz
Wind_Speed
46 45 45 47 46 44 45 46 50 51 51 50 52 54 54 54 54 54 54 54 54 54 54 55 55 56 56 57 58 59 60 62 63 65 66 67 67 68 69 70 69 69 69 69
50 48 50 52 48 46 47 48 50 53 53 51 54 56 56 57 57 57 56 56 55 56 55 55 56 57 57 57 58 59 61 62 65 66 67 67 68 68 69 68 68 68 67 67
54 52 55 54 48 48 50 50 52 54 54 55 57 57 57 58 58 58 57 57 57 57 57 57 57 58 59 59 61 62 63 64 66 67 67 67 67 68 68 67 66 66 66 63
57 57 59 54 51 51 53 53 52 54 56 57 58 57 57 58 58 58 58 58 58 58 59 59 60 61 62 62 63 63 64 66 67 67 66 66 66 66 65 64 63 63 61 59
57 58 59 54 52 54 56 55 53 55 57 58 58 57 56 57 57 58 58 59 60 61 61 61 62 63 63 63 64 65 65 65 65 65 65 64 63 62 61 60 59 58 57 56
53 56 58 55 53 54 55 56 55 57 57 57 56 56 55 55 56 57 58 59 61 61 61 61 62 63 63 63 63 63 63 63 62 62 61 60 59 58 58 57 56 55 54 54
50 53 54 53 53 54 55 56 56 56 56 55 56 57 57 56 57 57 58 58 58 59 59 59 59 59 58 58 58 58 58 57 57 57 56 56 56 56 56 55 53 53 53 52
49 51 51 51 53 53 54 54 54 54 55 56 57 57 57 57 56 56 55 55 56 55 54 54 55 54 53 53 54 54 54 54 54 54 54 55 55 55 54 53 52 51 51 51
48 49 49 50 51 52 53 53 53 53 53 54 54 55 54 54 53 53 52 52 52 51 50 49 50 51 52 51 52 52 52 53 54 54 54 54 53 53 51 50 49 49 49 49
47 46 47 48 49 49 50 51 51 51 51 51 51 51 50 49 49 49 49 48 48 48 48 48 49 50 51 51 51 52 52 53 54 53 53 53 53 52 51 50 49 49 48 48
47 46 47 46 47 48 49 50 50 50 51 50 50 49 48 47 46 46 47 47 48 48 47 47 49 50 51 51 52 53 53 53 53 54 54 55 55 54 53 52 51 49 47 46
48 48 50 49 48 49 49 49 49 49 49 48 48 48 48 47 47 48 48 48 48 47 48 49 49 50 51 53 54 54 54 55 56 56 56 56 55 54 53 52 50 48 46 44
50 50 51 51 51 51 51 51 50 50 49 49 49 48 48 48 48 48 49 49 48 48 49 50 50 51 53 54 55 56 56 56 57 57 57 56 56 55 54 53 50 47 44 42
52 52 52 52 52 53 53 53 52 51 51 50 49 49 49 48 49 49 49 50 50 51 51 52 52 53 54 54 55 56 56 56 58 58 58 57 56 55 54 53 50 46 42 40
54 54 54 54 54 54 53 53 51 50 50 50 50 49 49 49 50 50 51 51 51 51 52 53 53 53 54 55 55 56 57 58 59 59 58 56 55 54 53 50 47 43 40 37
55 55 55 54 54 53 53 52 51 50 50 49 49 49 50 50 50 50 51 51 51 52 53 53 54 54 54 55 56 57 58 59 61 59 57 55 54 52 49 46 44 40 36 34
55 54 54 54 53 53 53 53 52 51 50 49 49 49 49 49 49 50 50 51 52 53 54 54 54 54 55 56 57 58 59 60 59 58 56 54 52 50 47 44 40 36 33 32
54 54 53 53 53 53 53 53 53 52 51 51 50 50 50 51 51 51 51 51 52 52 52 52 53 54 54 56 57 58 58 58 57 55 54 52 50 46 44 40 36 33 31 31
52 52 52 52 51 51 51 51 51 51 51 51 50 50 50 51 52 52 52 52 52 51 50 50 51 52 53 55 56 56 56 56 55 55 54 50 46 42 39 35 31 29 29 28
50 50 50 49 49 50 50 50 50 50 50 51 50 50 50 50 51 50 50 49 50 49 49 50 51 52 53 54 54 54 55 55 56 54 51 47 43 37 33 30 27 26 25 24
48 47 47 47 48 48 48 49 49 49 50 50 50 49 49 49 48 48 47 46 46 47 48 49 50 51 52 52 53 54 54 54 53 50 45 41 36 31 27 25 24 23 21 21
46 46 46 47 47 47 48 49 49 49 48 48 48 48 47 46 45 45 45 45 45 46 47 47 48 49 50 51 52 52 52 51 49 45 39 34 29 25 22 20 20 19 18 18
44 45 45 46 46 46 46 47 47 46 45 45 45 45 44 43 43 42 41 42 43 44 45 45 46 47 48 49 50 49 48 46 42 38 32 28 24 21 18 17 17 16 16 15
43 43 44 44 44 44 44 43 43 43 43 43 43 43 42 41 39 40 40 41 42 42 42 43 44 45 46 47 47 46 44 41 37 33 29 26 23 19 16 15 14 13 14 13
43 43 42 42 42 42 42 41 40 40 40 40 40 40 40 39 38 38 38 38 39 39 40 42 43 44 45 45 44 43 40 37 33 29 27 23 18 14 12 11 11 11 11 11
42 42 41 41 41 40 40 39 38 38 38 37 36 36 36 36 36 36 36 36 37 38 40 41 41 42 42 42 41 38 35 32 28 26 23 18 14 10 8 8 9 10 9 8
40 40 40 39 39 39 39 38 37 36 36 36 34 34 34 35 35 35 34 35 36 38 39 39 39 39 39 38 37 34 32 29 26 23 18 13 10 7 5 6 7 8 8 7

GEFSNGP_500_meanwind_054.txt.gz
Wind_Speed
39 39 41 42 41 41 43 44 47 46 47 47 50 51 51 51 51 51 52 52 52 51 50 49 48 48 48 48 48 48 49 50 52 54 56 57 59 60 60 61 61 61 61 62
37 37 39 39 37 38 40 42 44 45 45 45 48 49 50 50 50 51 51 51 51 50 48 48 48 48 48 48 49 50 51 52 53 54 55 56 56 57 57 57 57 57 59 60
35 35 36 35 34 36 37 38 40 41 43 44 45 46 47 48 49 50 50 49 49 48 47 47 47 48 48 49 50 51 52 52 53 53 53 54 54 55 55 55 56 57 57 57
35 36 36 34 34 35 37 37 38 39 41 43 44 45 46 47 48 48 47 47 47 46 46 47 48 49 49 50 51 51 51 51 51 51 52 53 53 53 53 54 55 55 55 55
36 38 38 34 36 38 38 38 38 39 40 42 43 44 44 45 46 46 47 47 47 47 47 48 48 49 48 49 50 50 50 50 50 51 51 51 52 52 53 54 54 55 55 55
36 38 39 38 39 40 41 41 41 41 42 43 44 45 44 45 46 46 47 48 49 48 49 49 49 49 48 49 49 49 49 49 49 50 51 51 52 53 53 54 55 55 56 56
38 40 40 41 43 43 44 45 45 45 46 46 47 48 48 48 48 48 48 49 49 49 49 50 50 49 49 49 49 49 49 49 50 51 51 52 52 52 54 55 56 57 57 57
41 43 43 45 46 47 48 48 48 49 50 50 50 51 51 51 51 51 51 51 51 50 50 50 50 49 49 49 49 49 49 50 50 51 51 52 53 54 55 56 57 57 58 57
45 45 46 48 50 51 52 52 52 53 53 54 54 54 54 54 54 54 53 53 53 52 50 50 50 51 50 50 50 50 50 50 50 52 53 54 55 56 56 57 57 58 58 57
49 48 49 52 53 54 55 55 56 56 57 58 58 58 57 57 57 56 56 55 54 53 51 51 52 52 53 52 51 51 50 51 52 53 54 55 56 56 56 57 57 58 58 57
53 54 55 56 56 57 58 59 59 59 60 60 60 60 60 59 59 58 57 56 55 54 53 52 52 52 53 52 51 51 51 52 53 53 54 55 55 56 57 57 58 58 57 55
58 58 60 60 61 62 62 62 62 62 63 63 63 62 62 61 60 59 58 57 56 55 54 53 53 53 53 53 52 52 52 52 53 54 54 55 56 56 57 57 57 56 56 54
61 61 62 63 64 65 65 65 65 65 65 64 64 63 63 61 60 59 58 57 56 55 54 53 53 53 53 52 52 52 53 54 54 55 55 55 55 55 55 56 56 55 55 53
63 64 64 65 66 66 66 66 66 65 65 64 64 63 63 61 60 58 57 56 55 54 53 53 53 53 53 53 53 53 53 53 54 55 54 54 54 55 55 56 55 54 53 51
66 66 66 67 67 67 66 66 65 65 64 63 62 62 62 60 58 57 56 55 54 53 53 53 53 53 53 53 52 52 52 52 53 52 52 53 54 55 55 55 54 53 51 48
66 66 66 66 65 65 64 63 62 62 62 61 61 60 59 58 56 55 54 54 54 53 53 53 53 53 53 52 51 51 50 51 51 50 51 52 53 53 54 53 52 49 47 44
64 63 62 62 61 60 60 60 60 59 59 59 59 58 57 55 54 53 52 52 52 52 53 52 51 51 51 50 49 49 49 49 49 49 50 51 51 51 51 50 48 45 42 39
60 59 58 58 57 57 56 56 56 56 56 56 56 55 54 53 52 51 50 50 50 51 51 50 50 49 48 47 46 46 47 47 47 48 49 49 49 48 48 46 43 42 38 35
55 54 54 53 53 53 53 53 53 53 53 53 53 52 51 51 50 50 49 49 49 48 47 48 48 46 45 44 44 45 45 45 46 46 47 47 46 46 44 42 40 37 34 30
52 51 51 51 51 51 51 51 51 51 51 51 51 50 49 49 49 48 47 47 47 46 45 45 44 43 42 42 43 43 43 43 44 44 45 45 44 43 41 38 36 32 29 26
48 48 48 49 48 49 49 50 50 50 50 50 50 49 49 48 47 46 45 44 44 44 43 42 41 40 40 40 40 41 41 41 42 43 43 42 40 39 36 33 31 27 25 22
46 47 47 47 47 47 48 48 49 49 49 49 49 48 48 46 45 44 44 43 42 41 40 39 38 38 37 38 38 39 39 40 40 40 39 38 37 35 32 29 26 23 21 18
45 45 45 46 46 46 46 47 48 48 47 47 47 46 45 44 43 42 41 40 40 38 37 36 36 35 36 36 37 37 38 38 38 37 36 35 33 31 28 24 22 20 17 15
44 44 44 44 44 44 45 45 45 45 45 45 44 44 43 42 40 40 39 38 37 36 34 34 34 34 34 35 36 37 37 37 35 34 33 32 30 28 25 21 18 16 13 12
43 43 43 43 43 43 43 43 43 43 43 42 42 41 41 40 39 38 37 36 35 34 33 33 33 33 33 34 35 35 35 34 33 32 31 29 27 25 22 18 15 12 11 9
42 42 42 43 43 43 43 43 42 42 41 40 39 39 39 38 38 37 36 35 34 33 33 32 31 31 32 33 34 33 32 31 31 29 28 27 24 21 18 14 11 9 7 5
41 42 41 41 41 42 42 42 41 40 40 39 38 37 37 37 36 36 35 34 33 32 31 30 30 30 31 31 31 31 30 29 28 27 25 24 21 17 14 10 7 5 3 3

GEFSNGP_500_meanwind_060.txt.gz
Wind_Speed
30 29 30 29 28 29 32 33 34 33 34 35 36 37 37 39 40 41 41 43 44 45 46 47 48 48 49 49 50 50 51 52 52 54 55 56 56 56 57 57 58 59 60 61
29 29 29 27 27 29 31 32 34 35 35 36 38 38 38 40 42 43 44 46 47 48 49 50 50 51 51 52 52 53 54 54 54 55 56 56 57 58 58 58 59 59 59 60
29 29 29 28 28 30 31 32 34 36 37 38 39 40 41 43 45 47 48 49 51 52 52 53 54 54 54 55 55 56 56 57 57 57 57 57 58 58 59 59 59 59 59 60
31 30 30 29 30 32 34 34 36 37 39 40 42 43 45 47 49 51 52 54 55 56 56 57 57 57 57 58 58 58 59 59 59 59 58 58 57 57 57 58 58 59 59 59
33 34 32 31 33 35 37 37 38 40 42 44 45 47 48 51 53 55 57 58 59 60 60 60 60 60 60 60 60 60 60 60 60 59 58 57 57 57 57 57 57 58 58 58
35 37 36 36 38 39 41 43 43 45 47 48 50 52 53 55 58 59 60 62 63 63 63 63 63 62 62 62 61 61 61 60 60 59 58 57 57 57 57 57 57 57 56 57
36 39 39 40 42 44 46 48 49 50 52 54 56 58 60 61 63 64 65 66 66 66 66 65 65 64 63 63 62 61 60 60 59 59 58 57 57 57 57 56 55 55 55 56
39 41 42 45 47 48 50 52 53 55 56 58 60 62 64 65 67 68 68 69 69 69 68 67 66 65 64 63 62 61 60 59 58 58 58 57 57 56 56 55 55 55 55 55
43 44 46 49 51 53 55 56 58 59 61 63 64 66 67 69 70 70 71 71 70 70 68 67 66 65 64 62 61 60 59 58 58 57 57 57 56 55 54 54 54 54 54 53
47 47 49 52 54 56 58 60 61 63 65 66 68 69 70 72 72 73 72 72 71 70 68 66 65 64 63 62 60 59 58 57 57 56 55 54 54 54 53 53 52 52 52 52
52 52 54 55 57 59 61 64 65 67 68 70 72 72 73 74 74 73 72 71 70 69 67 65 63 62 62 61 60 58 57 56 55 54 53 52 52 51 51 51 51 51 50 50
55 56 58 59 61 63 65 66 68 69 71 72 74 74 74 74 73 72 70 69 68 66 65 63 62 61 60 59 58 57 55 54 53 52 51 50 49 49 49 49 49 49 48 48
58 59 61 63 65 67 68 69 70 72 73 74 74 74 74 72 71 69 68 67 66 65 63 62 60 59 58 57 56 55 54 52 51 50 49 48 48 47 45 45 46 46 46 46
61 63 64 66 67 69 70 71 72 73 73 74 73 72 71 70 68 67 65 65 64 62 61 60 59 57 56 55 54 52 51 50 49 47 47 46 45 44 44 43 43 43 44 45
65 66 67 68 69 70 71 72 73 73 72 71 70 69 68 66 65 63 62 62 60 59 58 58 57 55 54 52 51 49 48 46 46 45 44 43 42 42 42 42 42 42 42 42
66 68 69 69 70 71 71 71 71 70 69 67 65 64 63 62 61 60 59 59 58 56 56 55 54 52 51 49 48 46 44 43 42 41 40 39 40 41 41 41 41 40 40 39
67 68 68 69 69 69 69 68 67 65 64 62 61 61 59 58 58 56 56 55 55 54 54 53 51 49 47 46 44 42 40 38 37 37 37 37 38 39 39 38 37 37 37 37
68 68 68 68 67 65 64 62 61 60 59 59 58 57 56 56 55 54 53 52 52 51 51 50 47 45 44 43 41 39 36 34 34 35 35 35 36 36 36 35 35 35 35 34
65 64 64 63 62 61 59 58 57 56 55 55 54 53 52 52 52 51 51 50 49 48 46 45 43 42 41 39 37 34 33 32 33 33 33 33 33 34 34 34 34 34 33 32
62 61 60 58 57 56 56 55 54 52 51 51 51 50 49 49 49 49 47 46 46 46 43 42 40 39 36 35 33 32 31 31 31 31 31 32 32 33 33 33 32 32 31 29
59 58 56 55 53 52 52 51 50 49 49 48 48 48 47 46 46 46 45 43 42 42 41 39 37 35 34 32 31 30 30 30 30 30 31 31 32 32 31 31 30 30 29 27
56 54 53 52 51 49 48 48 48 47 46 45 45 45 45 44 44 43 43 43 41 40 38 36 35 33 32 30 29 29 29 29 29 30 30 30 30 30 30 29 29 29 27 25
53 52 51 50 50 48 46 45 45 45 45 44 44 44 44 43 43 43 40 39 39 38 36 34 33 32 30 29 28 28 28 28 28 29 30 29 29 29 29 29 28 27 25 23
52 51 50 49 49 47 45 43 43 43 43 43 42 42 42 41 40 40 40 38 37 36 34 33 31 30 29 28 27 27 27 28 28 28 28 28 28 28 28 27 26 25 22 19
52 51 50 49 47 45 43 41 40 40 40 40 39 39 40 40 39 38 37 36 35 34 33 31 30 29 28 27 26 26 26 27 27 27 27 27 27 27 26 25 23 21 18 15
51 49 48 46 45 43 41 39 38 38 38 38 37 37 37 38 38 37 36 35 34 33 32 30 29 28 27 26 25 24 25 26 26 26 26 26 26 24 23 21 19 16 14 12
48 46 44 43 41 40 38 37 37 37 37 37 36 36 36 37 37 36 35 34 33 31 30 29 28 26 25 24 23 23 24 24 24 25 25 24 23 22 20 17 15 13 12 10

GEFSNGP_500_meanwind_066.txt.gz
Wind_Speed
30 31 31 29 28 29 31 30 31 26 26 26 28 29 31 33 34 36 38 41 43 45 47 49 51 53 55 57 59 61 63 64 66 67 67 68 68 68 69 69 69 68 68 67
31 31 31 29 28 30 30 30 30 29 28 29 30 32 34 36 38 40 42 45 47 49 52 54 56 59 61 62 64 66 68 69 70 71 71 71 71 71 71 70 70 69 68 68
32 30 32 30 30 30 30 30 31 31 31 32 32 34 37 39 41 44 47 49 51 54 56 59 62 64 66 68 69 71 72 73 74 75 74 74 73 73 72 71 70 69 68 68
34 32 31 31 30 30 30 31 32 32 33 34 36 38 40 43 46 48 51 53 56 59 61 64 66 69 71 72 74 75 76 77 77 77 76 75 74 73 72 71 69 69 68 67
35 33 30 29 30 31 32 32 33 34 35 37 39 42 44 47 50 52 55 58 61 64 66 69 71 73 74 76 77 78 79 79 78 78 77 75 73 72 70 69 68 67 66 65
35 34 31 31 33 33 34 35 35 36 38 41 43 46 48 50 53 56 59 62 65 68 70 72 74 76 77 78 79 80 80 79 79 77 76 74 72 70 69 67 65 64 62 61
35 36 34 34 36 36 36 38 38 39 42 45 48 51 53 55 58 61 64 67 69 72 73 75 77 78 79 80 80 81 80 78 76 75 73 71 69 67 65 63 61 60 58 57
35 37 37 37 38 38 39 40 42 45 47 50 52 54 56 59 62 65 68 70 72 74 75 77 78 80 80 80 80 79 78 75 72 70 68 66 64 62 60 59 57 56 54 53
36 37 39 40 40 41 42 45 47 49 51 53 56 58 61 63 66 69 71 73 74 76 77 78 79 80 80 79 78 76 73 70 67 65 63 61 60 58 56 54 53 52 51 50
38 38 41 42 43 44 46 49 51 53 55 57 60 62 65 67 69 71 73 75 76 77 78 77 77 77 77 76 74 71 68 65 62 60 58 56 55 54 52 51 50 49 48 47
40 40 42 44 46 48 50 51 53 55 58 61 64 66 68 70 72 73 75 76 77 78 78 77 76 74 73 71 68 65 62 60 57 56 54 53 51 50 48 47 48 46 45 44
41 42 44 46 48 50 52 54 56 59 62 64 67 68 70 72 73 74 75 76 77 76 76 74 72 70 67 65 63 61 58 55 53 52 50 48 46 45 45 45 44 43 42 41
44 45 47 49 51 53 55 58 60 63 65 67 68 70 72 73 74 75 75 76 76 74 72 70 68 64 62 60 58 56 54 52 50 48 46 45 44 42 40 39 40 39 39 38
47 49 51 53 55 57 59 61 63 65 67 68 70 71 73 73 74 74 74 73 72 69 67 65 62 59 57 56 54 52 51 49 48 45 43 42 41 39 38 37 35 35 36 37
51 53 54 56 58 60 62 63 65 66 67 69 70 72 73 73 73 72 70 69 67 64 62 60 57 55 54 52 51 49 48 47 45 42 41 40 38 37 37 36 35 33 32 34
54 56 57 59 60 62 63 64 66 67 68 69 70 71 72 72 70 68 67 65 63 60 58 56 53 52 51 50 48 47 45 44 43 40 39 38 37 36 35 34 33 32 32 32
56 57 59 60 61 63 64 66 67 68 69 70 71 71 70 69 67 64 62 60 58 56 55 53 51 50 49 48 47 45 43 42 41 39 38 36 35 35 34 33 32 31 32 32
58 59 60 61 62 63 64 66 67 68 69 69 69 68 67 65 63 60 58 56 53 52 52 52 50 48 47 46 44 43 42 41 38 37 35 34 34 33 33 32 31 31 31 31
58 59 60 62 63 64 65 66 67 67 67 67 66 65 62 61 60 58 56 53 51 50 48 48 47 46 45 44 43 42 41 39 36 34 33 33 32 32 32 31 31 31 31 30
58 59 61 62 63 65 66 66 67 66 65 64 63 61 59 57 56 55 52 50 49 48 47 46 45 44 43 42 41 40 39 37 34 33 32 32 31 31 30 30 31 30 29 29
58 60 61 63 64 65 65 65 65 63 62 61 61 59 57 55 53 52 49 46 45 45 44 44 43 42 41 41 39 38 37 34 33 32 31 30 30 30 30 30 29 28 28 29
59 61 63 64 65 64 63 63 63 62 61 59 58 57 55 52 49 47 46 45 43 42 42 41 41 40 40 39 37 36 34 33 32 30 30 29 29 29 29 28 28 27 27 27
61 62 63 64 64 64 62 61 61 61 59 57 55 53 51 49 46 44 41 41 41 40 40 40 39 39 38 37 35 34 33 31 30 29 28 28 28 28 27 27 26 25 25 24
61 62 63 63 63 63 62 60 60 58 56 54 51 49 47 45 42 41 40 38 39 39 38 38 38 38 36 35 34 33 31 30 29 27 27 27 27 26 26 25 24 23 23 22
61 62 62 62 62 61 60 58 56 53 50 48 45 44 43 41 39 37 36 36 37 37 37 37 38 36 35 34 33 31 29 28 27 26 26 25 25 25 24 24 23 22 20 19
61 61 61 61 60 59 56 54 50 47 44 42 39 38 38 38 37 36 35 35 36 36 36 36 36 35 34 33 31 30 28 27 26 25 24 24 24 23 23 22 21 19 18 17
59 59 58 57 55 54 51 48 45 42 40 38 36 35 35 35 35 34 34 35 35 35 36 35 35 34 33 32 30 29 27 26 25 24 24 23 23 22 21 20 19 17 16 15

GEFSNGP_500_meanwind_072.txt.gz
Wind_Speed
34 34 35 35 34 34 36 37 38 35 33 32 35 37 37 37 38 38 39 41 42 43 45 47 49 51 53 56 58 61 64 66 69 71 73 76 78 80 81 82 84 85 86 86
35 36 37 37 34 35 37 38 38 37 35 35 36 36 37 38 39 40 42 43 45 46 48 50 53 55 57 60 63 65 68 70 73 75 78 79 81 82 83 85 85 86 86 86
38 37 39 38 35 36 38 38 38 38 37 36 36 36 37 39 40 42 44 45 47 49 51 54 56 59 61 64 67 70 72 75 77 79 81 82 84 85 85 86 86 85 84 83
41 40 41 39 38 38 39 38 38 38 37 36 36 37 39 41 42 44 46 48 50 52 54 57 60 62 65 68 71 74 76 78 80 82 83 85 85 86 86 86 85 83 80 77
43 43 43 39 39 39 40 39 38 37 37 37 38 40 41 43 44 46 49 51 53 55 58 60 63 66 69 72 75 77 79 81 82 84 85 86 86 86 85 84 81 77 73 70
44 45 45 42 40 40 41 40 37 37 38 39 40 41 43 45 46 49 51 54 56 58 61 64 67 70 73 75 78 80 81 82 84 85 86 86 85 84 82 79 75 70 65 62
43 45 45 42 41 39 39 39 38 38 39 40 41 43 45 47 49 52 54 57 59 62 65 68 71 74 76 78 80 81 83 84 85 85 85 84 82 79 76 72 67 63 59 56
44 45 44 42 41 40 40 40 39 40 40 42 43 45 47 50 52 55 57 60 63 65 68 71 74 76 78 80 81 83 84 84 84 83 81 79 76 72 68 65 60 56 54 50
43 43 44 43 43 41 41 40 40 41 43 44 46 48 50 53 55 58 60 63 66 68 71 73 76 78 80 81 83 83 83 82 81 79 75 72 69 65 61 58 55 52 49 46
42 42 42 42 42 41 41 41 42 44 45 47 49 51 53 56 58 60 63 66 69 71 73 74 76 78 81 82 83 83 82 79 77 73 69 65 62 59 56 54 51 49 45 43
41 41 41 41 41 41 41 42 44 45 47 49 51 54 56 58 61 64 66 69 71 73 74 76 78 79 81 82 82 81 78 75 71 67 64 60 56 54 52 50 49 46 44 42
41 41 41 41 41 42 43 44 46 48 50 52 54 57 59 61 64 66 69 71 72 74 76 77 79 80 80 81 79 77 73 69 65 62 58 55 52 49 47 47 45 44 43 42
41 41 41 41 42 43 45 47 48 50 53 55 57 60 62 64 66 68 70 72 73 75 77 78 79 79 79 78 75 72 68 64 61 57 55 52 50 47 43 41 42 42 42 41
41 41 41 42 43 45 47 49 51 53 55 58 60 62 64 66 68 69 71 73 75 76 78 79 79 78 76 73 70 67 63 60 56 54 51 49 47 45 43 40 38 37 38 39
41 41 42 44 45 47 49 51 53 56 58 60 62 64 66 68 69 70 72 74 75 77 78 78 77 74 71 69 65 62 58 55 52 50 48 46 45 43 41 40 38 36 35 35
41 42 44 46 47 49 51 54 56 58 60 62 64 65 67 68 69 71 73 75 77 77 77 76 74 71 67 64 61 57 54 51 49 47 46 44 43 41 40 38 37 36 34 34
43 44 46 48 49 52 54 56 58 60 62 63 65 66 67 69 70 72 74 75 76 76 74 73 70 66 62 60 56 53 50 47 45 44 43 42 40 39 38 37 35 34 34 34
45 47 48 50 52 54 56 58 60 61 63 64 66 67 69 71 73 74 75 76 75 73 70 68 65 61 58 55 52 49 46 44 42 42 41 39 38 38 37 35 34 33 33 33
48 49 51 52 54 56 57 59 61 62 64 66 67 69 71 73 75 76 76 75 73 70 66 63 60 56 53 51 48 45 43 41 40 39 39 38 36 36 36 34 33 33 33 32
49 51 52 54 56 58 60 61 63 64 66 68 70 72 73 74 75 75 74 71 69 67 62 58 54 51 48 45 43 41 39 38 37 37 37 35 34 34 34 33 32 32 31 30
51 53 55 56 58 60 62 64 66 67 68 70 72 74 74 74 74 73 71 67 63 60 56 52 49 46 43 41 39 37 37 36 36 35 35 33 33 32 31 30 30 30 29 28
54 55 57 59 60 62 64 66 68 69 70 72 73 74 74 73 71 69 66 63 58 54 50 46 44 41 39 37 35 35 34 34 34 34 33 32 31 31 30 29 29 28 28 27
56 58 60 62 63 65 66 68 69 71 72 72 73 73 72 70 67 64 59 55 52 48 44 41 39 37 36 34 33 33 32 33 33 32 32 31 30 29 28 28 27 27 27 26
59 61 63 64 66 67 68 69 70 71 72 72 71 71 69 65 61 58 55 50 46 43 39 37 35 34 33 32 32 31 32 32 32 31 31 30 29 28 27 26 26 26 25 24
62 63 65 66 68 69 70 71 71 71 71 69 68 65 63 60 57 52 49 45 42 39 36 34 33 32 32 31 31 31 31 31 31 30 29 28 28 27 26 25 25 25 24 23
63 65 66 68 69 70 71 71 70 69 68 66 63 59 57 54 51 47 44 41 38 36 34 32 32 32 31 31 31 31 31 31 30 29 28 27 26 25 25 24 24 23 22 21
64 65 66 67 68 69 69 69 67 65 63 61 57 53 50 48 45 42 40 38 35 34 33 32 32 32 31 31 31 31 30 29 29 28 27 26 25 24 23 23 23 21 21 20

GEFSNGP_500_meanwind_078.txt.gz
Wind_Speed
30 30 30 30 30 30 31 31 34 33 32 32 36 37 37 38 39 40 40 40 40 40 41 41 42 43 44 46 48 50 52 54 56 59 62 65 67 70 73 76 78 80 82 83
32 32 33 33 31 32 33 34 36 37 35 35 37 38 39 40 40 40 40 41 41 42 42 43 44 45 47 49 50 53 55 57 60 63 66 68 71 74 76 79 81 82 84 85
34 34 36 36 31 33 35 35 37 38 38 38 38 39 40 41 41 42 42 42 42 42 43 44 46 47 49 51 53 55 58 60 63 66 69 72 74 77 79 81 82 83 85 85
37 36 39 37 34 35 37 37 38 39 40 40 41 41 41 41 42 42 42 42 43 44 45 46 48 49 51 53 56 58 61 64 67 70 72 75 77 79 81 82 83 84 84 83
39 40 41 38 37 37 39 38 38 40 41 42 42 42 41 40 41 41 41 42 44 45 46 48 50 51 53 56 59 61 64 66 69 72 75 77 79 81 82 83 83 83 81 79
40 42 43 39 37 38 39 39 38 39 40 40 40 40 40 40 40 41 42 43 44 46 48 50 52 54 56 59 61 64 66 69 72 75 77 79 80 82 82 83 82 80 77 75
41 43 44 41 39 39 39 40 38 38 39 39 39 39 40 40 41 41 42 44 45 47 49 52 54 56 59 61 64 66 69 71 74 76 78 80 81 82 82 82 80 77 74 70
41 43 44 42 42 41 41 40 39 38 38 38 39 39 40 41 42 43 44 46 47 49 51 54 56 59 61 64 66 69 71 73 75 77 79 80 81 81 81 79 76 72 68 64
42 43 44 44 44 43 42 41 40 40 39 39 39 39 40 41 42 44 46 47 49 51 53 56 59 62 64 66 69 71 72 74 76 77 79 80 81 80 78 75 72 68 63 59
41 42 43 44 44 43 43 42 41 40 40 39 39 40 40 42 43 45 47 49 51 53 56 58 61 64 66 69 71 73 74 75 77 78 79 79 79 77 74 70 66 63 59 55
42 42 43 42 42 42 42 42 41 40 40 40 40 41 42 43 45 47 49 51 54 56 58 61 63 66 68 71 72 73 75 77 78 79 79 78 76 73 69 65 62 59 55 52
41 41 42 42 42 42 42 42 41 41 41 41 42 43 44 46 47 49 52 54 56 59 61 63 66 68 70 72 73 75 77 78 79 79 78 76 72 67 63 60 57 54 52 49
41 41 42 42 42 43 43 42 42 41 42 42 43 44 46 48 50 52 55 57 59 61 63 65 67 69 71 73 75 77 78 79 79 78 76 73 68 63 58 54 52 49 47 46
41 42 42 43 43 42 42 41 41 41 42 43 45 47 49 51 53 55 57 59 61 63 65 67 69 71 73 76 77 78 79 79 78 76 72 68 63 58 54 50 46 43 42 42
41 41 42 42 41 41 40 40 41 42 43 45 47 49 51 53 55 57 59 61 63 65 67 70 72 73 76 77 78 79 78 77 75 71 67 62 57 53 49 46 43 40 39 39
40 40 40 39 39 39 39 40 41 43 45 47 49 51 53 55 57 58 61 63 66 67 70 72 74 76 77 78 79 78 76 73 70 66 61 56 51 48 45 42 40 38 38 38
36 36 36 37 37 39 40 42 44 45 47 49 51 53 55 57 59 61 63 66 68 70 72 74 76 77 78 78 78 76 72 68 64 59 54 49 46 44 41 39 37 37 37 37
34 35 36 37 39 40 42 44 46 48 49 51 52 54 57 59 61 63 66 68 70 72 74 76 77 77 77 77 74 71 67 62 57 52 48 44 42 40 38 37 36 36 36 35
34 35 37 39 40 42 44 46 47 49 51 53 55 57 59 62 64 67 69 71 73 74 75 76 77 76 75 72 69 65 61 56 51 46 43 40 39 37 37 36 36 36 36 34
36 37 39 40 42 43 45 47 49 51 53 56 58 60 63 65 68 70 72 73 75 76 76 76 75 73 70 67 63 58 54 50 45 41 39 37 36 35 35 35 35 35 34 34
37 39 40 41 43 45 47 49 51 54 56 59 62 64 66 68 71 73 74 74 75 76 76 74 72 69 65 60 56 52 48 44 41 38 36 35 35 34 34 34 34 34 33 32
38 40 41 43 45 48 51 53 56 58 61 63 66 68 70 71 73 74 75 75 75 74 73 70 67 63 59 54 50 47 43 40 37 35 34 34 34 33 33 33 33 32 32 30
40 42 45 47 49 52 55 57 60 62 64 66 69 71 72 73 74 75 74 73 73 70 68 65 61 57 53 49 45 42 39 37 35 34 33 33 33 32 32 32 31 31 30 29
44 47 49 52 54 56 59 61 63 65 67 69 71 72 73 74 73 73 72 70 68 66 63 60 56 52 48 44 41 38 36 35 33 33 32 32 32 31 31 30 30 29 29 28
49 51 54 56 59 61 63 64 66 68 69 70 71 71 72 72 71 70 69 67 64 62 58 54 50 46 43 40 37 35 34 33 32 32 32 31 31 30 29 29 29 28 27 27
53 55 58 61 63 65 66 67 68 69 70 70 69 69 69 69 68 67 65 62 59 55 51 47 43 41 38 36 35 33 32 31 31 31 31 30 29 29 28 28 27 27 26 26
58 60 62 63 65 66 67 68 69 69 69 69 68 67 67 65 63 62 59 56 53 49 46 42 40 38 36 35 33 32 31 30 30 30 29 29 28 28 27 26 26 25 25 24

GEFSNGP_500_meanwind_084.txt.gz
Wind_Speed
31 32 30 29 28 28 29 29 29 28 28 28 32 34 33 34 35 36 37 38 40 41 42 43 44 45 45 46 46 47 47 48 49 50 51 52 54 55 57 59 61 63 65 67
32 32 32 31 30 29 29 29 30 30 30 29 34 36 36 37 38 39 39 41 42 43 44 45 45 46 46 47 47 47 48 49 50 51 53 54 56 57 59 61 64 66 68 70
33 33 34 34 30 30 30 30 32 33 31 33 35 36 37 39 40 41 42 43 44 44 45 46 46 46 46 47 47 48 49 50 51 53 55 56 58 60 62 64 66 68 71 73
35 35 38 32 30 30 31 31 32 33 33 35 35 36 38 40 41 43 43 44 44 45 45 45 46 46 47 47 48 49 50 51 53 55 57 58 60 63 65 67 69 71 73 75
37 37 36 33 32 31 32 32 31 33 35 37 37 39 39 41 42 43 44 44 44 44 45 45 46 46 47 48 49 50 52 54 55 57 59 61 63 65 67 69 71 73 75 77
38 39 38 34 33 33 34 34 32 34 36 38 38 39 40 41 43 43 43 43 44 44 45 46 46 47 48 49 50 52 53 55 57 59 61 63 66 68 70 72 73 75 76 78
38 39 38 36 34 34 35 34 34 35 36 37 39 40 41 42 42 43 43 43 44 44 45 46 47 48 49 50 52 54 55 57 59 61 64 66 68 70 72 74 75 77 78 79
38 39 37 34 35 36 37 37 37 37 37 38 39 40 41 42 42 43 43 44 44 45 45 46 48 49 50 52 54 56 57 59 61 64 66 68 70 72 74 76 77 79 80 79
36 36 36 36 36 36 37 38 38 38 39 39 40 41 41 41 42 43 44 44 45 45 46 47 49 50 52 54 56 57 59 61 63 66 68 70 72 74 76 78 80 80 81 80
35 35 35 35 36 38 39 39 39 40 41 41 41 41 41 42 43 44 44 45 46 46 47 49 50 52 54 56 58 59 61 63 66 68 70 72 74 76 78 80 81 81 81 79
34 35 35 35 37 38 39 40 40 41 41 41 42 42 42 43 44 44 45 46 47 48 49 50 52 54 56 58 59 61 64 66 68 71 73 75 76 78 80 81 82 81 79 76
34 35 36 37 37 39 40 41 41 42 42 42 42 42 43 44 45 45 46 47 47 49 50 52 54 55 57 60 62 64 66 69 71 73 75 78 79 79 80 80 79 77 74 70
35 36 38 38 38 39 40 41 42 42 42 43 43 44 44 45 45 45 46 47 48 50 52 53 55 57 59 62 64 67 69 72 74 76 78 80 81 82 80 77 74 71 67 63
37 38 39 39 39 40 41 42 42 42 43 43 44 44 45 45 45 45 46 48 49 51 53 55 57 59 62 65 67 70 72 75 77 79 81 82 82 82 80 76 70 64 59 55
38 39 39 40 41 42 42 43 43 43 43 44 44 44 44 44 44 45 47 49 51 52 55 57 60 62 65 68 70 73 76 78 80 82 82 82 81 79 75 70 65 59 52 48
39 39 40 41 42 42 43 43 43 43 43 43 42 42 43 43 45 47 49 51 53 55 57 60 62 65 69 72 75 77 79 81 82 83 82 81 78 74 69 64 58 53 47 44
39 40 40 41 42 42 42 42 41 41 40 40 41 41 43 44 46 48 50 53 55 57 60 64 67 70 73 76 79 81 82 82 83 82 80 77 73 68 62 57 53 47 43 40
38 39 39 38 38 38 38 37 37 37 38 39 41 42 44 46 48 50 53 55 58 61 65 69 72 74 77 80 81 82 83 82 81 78 75 71 66 62 56 52 47 43 39 36
34 34 34 34 34 34 35 35 36 37 39 41 42 44 46 48 51 53 56 59 63 66 69 72 75 78 79 81 82 82 81 79 76 73 70 65 60 55 51 47 43 39 36 34
32 32 33 33 33 34 35 36 37 39 41 43 44 46 49 52 55 58 61 64 68 71 74 76 78 79 80 81 81 80 78 75 71 68 64 59 54 49 45 42 39 36 34 33
31 32 32 33 34 35 36 38 39 41 43 45 48 51 53 56 60 63 66 68 71 75 77 78 79 80 80 80 78 76 73 69 65 61 57 52 47 43 40 37 35 34 32 32
31 32 33 34 35 36 38 40 42 44 47 49 53 56 58 61 64 67 70 73 75 77 78 79 79 79 78 76 73 70 66 63 59 54 49 45 42 39 36 34 33 32 31 31
32 33 34 36 37 39 41 43 45 48 51 54 57 60 63 66 69 72 73 75 77 78 78 78 77 76 74 70 67 64 60 56 52 48 44 41 38 36 34 32 31 30 30 30
34 35 37 38 40 42 44 47 49 52 55 58 62 65 68 71 72 74 76 76 77 77 76 74 73 70 67 64 61 58 54 50 47 44 41 38 36 35 33 31 30 29 29 29
36 38 39 41 44 46 48 51 54 57 60 63 66 69 72 74 75 75 75 75 75 74 72 69 66 63 60 58 55 52 49 47 44 41 38 36 34 33 31 30 29 28 28 27
39 41 43 45 48 50 53 56 59 62 65 67 69 71 73 74 74 74 73 72 71 69 66 62 59 57 55 53 50 48 45 43 40 38 36 34 32 30 29 28 27 27 27 26
42 44 47 50 52 55 58 61 64 66 69 70 71 72 72 72 71 71 70 68 65 62 59 56 54 52 50 48 46 43 41 39 37 35 33 31 30 28 27 26 26 25 25 24

GEFSNGP_500_meanwind_090.txt.gz
Wind_Speed
26 26 28 28 29 30 32 32 32 29 29 26 28 31 32 32 32 33 33 33 34 34 35 37 39 40 42 44 45 46 47 48 49 49 50 50 51 51 52 53 54 55 56 57
28 28 29 30 29 30 31 31 31 30 28 26 30 32 33 33 33 33 34 35 36 37 38 39 40 42 44 45 46 47 48 49 49 50 51 51 52 53 54 55 56 57 58 59
28 28 31 32 28 29 30 30 31 31 27 28 31 32 33 33 34 35 36 37 37 38 40 41 43 44 45 46 47 48 48 49 50 51 51 52 53 54 55 56 57 58 60 61
28 29 33 27 26 28 29 30 31 32 30 31 32 34 34 35 36 37 37 38 39 41 42 43 44 45 46 46 47 48 49 50 50 51 52 53 54 55 56 57 58 60 61 62
30 31 31 28 27 27 30 30 30 32 32 33 34 35 35 36 36 37 38 39 41 42 43 44 45 45 46 47 47 48 49 50 51 52 53 54 55 56 57 58 59 61 62 64
32 32 32 26 26 28 31 31 27 30 32 33 34 34 34 35 36 38 39 40 41 42 43 44 45 45 46 47 47 48 49 50 51 52 53 55 56 57 58 60 61 63 64 67
32 33 32 28 27 28 31 28 28 30 32 33 33 34 34 35 37 38 39 41 42 43 44 44 45 45 46 47 48 48 49 50 51 53 54 56 57 58 60 62 63 65 67 69
33 34 30 27 30 30 29 30 30 31 31 32 33 34 35 37 38 39 40 41 42 43 44 44 45 45 46 47 48 49 50 51 52 54 56 57 58 60 62 64 66 68 71 73
33 32 30 31 31 31 31 31 31 31 32 33 33 34 35 36 37 38 39 41 42 43 43 44 45 45 46 48 49 50 51 52 54 55 57 58 60 62 64 67 70 72 75 78
34 33 32 32 32 32 32 32 33 33 33 33 33 34 35 36 37 39 40 41 41 42 43 43 45 46 47 49 50 51 52 53 55 56 58 60 62 65 68 71 74 78 81 83
34 33 33 33 33 33 34 34 33 33 33 33 34 35 37 37 38 39 40 41 42 42 43 44 45 47 49 50 51 52 53 55 56 58 60 62 65 68 72 75 80 83 85 87
33 32 34 34 34 34 34 34 34 34 35 35 36 37 38 38 39 40 41 41 42 43 44 45 47 48 50 51 52 53 54 56 58 60 63 66 69 72 76 80 83 86 87 88
33 33 34 34 34 34 34 34 35 35 36 37 37 38 38 38 39 40 41 42 43 44 45 46 48 49 50 51 53 55 57 59 62 65 68 71 75 78 80 82 84 86 87 86
33 33 33 33 34 34 34 35 35 36 37 37 37 38 39 40 41 42 43 44 44 45 46 47 49 50 51 53 55 57 60 63 66 70 73 77 80 83 85 86 86 84 84 83
33 34 34 34 34 35 35 35 36 36 36 37 38 39 41 42 42 43 44 45 45 45 47 48 50 51 53 56 59 62 65 68 71 75 78 81 84 86 87 88 87 84 81 76
33 33 33 34 34 35 35 36 36 37 38 39 40 41 42 42 43 43 44 44 44 45 48 50 52 54 56 60 63 66 69 73 76 79 82 84 86 87 87 86 84 79 74 68
31 32 33 34 34 35 36 37 37 39 40 40 41 41 42 42 42 43 43 44 45 47 50 52 54 57 61 64 68 71 74 77 80 82 84 86 87 86 84 81 76 71 65 60
30 31 32 33 34 35 36 36 37 38 38 39 39 40 40 41 41 42 44 45 47 50 53 56 59 62 65 69 72 75 78 80 82 84 86 86 84 82 78 73 68 64 58 53
30 31 31 32 33 33 34 34 35 36 37 37 38 39 40 41 42 44 45 47 50 53 56 60 63 67 70 74 77 79 81 83 84 84 84 82 79 75 70 66 61 57 53 48
30 30 31 31 32 32 33 34 35 35 36 37 38 39 40 42 44 46 48 51 55 58 61 65 68 72 75 77 80 82 83 83 83 82 80 77 73 68 63 59 55 51 48 44
30 30 31 31 32 32 33 34 34 35 36 37 39 40 42 44 47 49 52 55 59 63 66 70 73 76 78 81 82 82 82 82 81 79 75 70 65 61 57 53 50 47 43 41
30 31 31 32 32 32 33 34 35 36 37 39 41 43 45 48 51 54 57 61 64 67 71 74 77 79 81 81 81 81 80 79 76 72 67 63 59 55 52 48 45 42 40 38
31 31 31 32 32 33 34 35 36 38 40 42 44 46 49 52 55 58 61 65 69 72 75 77 79 80 81 80 80 79 77 73 69 65 61 57 54 51 47 44 42 39 37 35
31 31 32 32 33 34 36 37 38 40 43 45 48 51 54 56 59 63 67 70 74 76 78 79 80 80 79 78 76 73 69 65 62 58 55 52 49 46 43 41 38 36 34 32
31 32 33 34 35 36 37 39 41 43 46 49 52 55 59 62 65 68 72 74 76 78 78 78 78 77 76 73 69 66 62 59 56 53 50 48 45 42 40 38 36 33 31 30
32 33 34 35 36 38 39 42 44 47 50 52 56 60 63 67 70 73 75 76 77 77 76 75 74 72 69 65 62 59 56 54 52 49 47 44 41 38 36 34 32 31 29 28
33 34 35 37 38 41 43 46 48 51 54 57 60 64 67 70 73 74 75 76 75 74 72 70 67 64 61 59 56 53 51 49 47 44 42 39 37 34 32 30 29 28 26 25

GEFSNGP_500_meanwind_096.txt.gz
Wind_Speed
34 32 32 32 33 33 35 35 35 31 30 25 26 30 31 32 32 33 33 34 34 35 35 36 36 37 38 39 40 41 42 44 45 46 48 49 50 51 52 52 53 53 53 54
34 33 33 34 33 33 33 32 31 30 27 24 27 30 30 30 31 32 33 34 35 36 36 36 37 38 39 40 41 42 43 44 46 47 49 50 50 51 52 52 52 53 53 54
34 33 35 35 29 29 30 29 29 29 25 26 28 30 30 31 32 32 33 34 35 36 37 37 37 38 39 40 42 43 44 45 47 48 49 50 50 51 51 52 52 53 55 56
35 36 38 30 27 27 28 29 29 29 27 27 28 29 30 30 31 32 33 34 35 35 36 37 37 38 40 41 42 43 44 46 47 49 49 49 50 50 51 53 54 55 55 56
37 38 36 31 26 25 28 28 27 28 27 27 29 30 29 30 32 32 33 34 34 35 36 37 38 39 40 41 43 44 46 47 47 48 48 49 50 51 53 54 54 55 56 58
38 38 36 28 26 26 29 27 24 27 28 29 29 30 28 30 31 32 33 34 35 36 37 38 38 40 41 42 43 45 46 46 47 47 48 49 51 52 53 55 56 57 58 60
36 36 33 28 26 27 29 25 25 28 28 29 29 29 29 30 31 32 34 35 36 37 38 39 40 41 42 43 44 45 46 46 47 48 49 50 52 53 55 56 57 59 60 61
34 36 31 27 28 28 28 29 29 29 29 29 30 30 30 31 32 32 34 35 36 37 38 40 41 42 42 43 44 45 46 46 47 49 50 51 53 55 56 58 59 60 62 63
36 34 31 31 30 30 30 30 30 30 30 30 31 31 32 32 33 34 35 36 37 37 39 40 41 42 43 43 44 45 46 47 48 50 51 53 55 56 58 60 61 63 65 67
36 35 34 32 32 32 32 32 32 32 32 31 31 32 33 33 34 35 35 36 37 38 39 40 41 41 42 43 44 45 47 48 49 51 53 55 56 58 60 62 64 66 69 72
37 35 34 34 33 34 34 34 33 33 33 33 33 33 34 34 34 35 36 37 38 39 40 40 40 41 42 44 45 47 48 49 51 53 54 56 58 60 62 64 68 71 73 76
36 34 35 34 35 35 34 34 34 34 34 34 34 34 34 34 35 36 37 38 38 39 40 41 41 42 44 45 46 48 49 51 53 55 57 59 60 62 65 68 71 74 77 80
36 35 35 35 34 34 34 34 35 35 35 35 35 34 34 35 36 37 37 38 39 40 41 42 43 44 45 46 48 49 51 53 55 57 59 61 64 66 68 71 74 77 80 82
35 35 35 34 34 34 34 34 34 34 34 34 34 35 35 36 36 37 38 39 40 41 42 43 44 45 47 48 50 51 53 55 57 60 62 65 68 71 74 76 77 78 81 83
35 35 34 34 34 34 34 34 34 34 34 34 34 35 35 36 37 38 39 40 41 42 43 44 46 47 49 50 52 54 56 58 60 63 66 69 72 75 78 80 82 82 81 81
34 34 33 33 33 33 33 33 33 33 33 34 34 35 36 37 38 38 39 40 42 43 44 46 47 49 50 52 54 56 58 61 64 67 70 74 77 79 81 83 83 82 80 79
33 32 32 32 32 31 31 32 32 33 33 34 35 36 37 38 38 39 41 42 43 44 46 47 49 50 52 54 57 59 62 65 68 72 75 78 80 82 82 82 81 80 78 77
32 31 31 31 30 30 30 30 31 31 33 34 35 36 37 38 39 40 41 42 44 45 47 49 50 52 55 57 60 63 66 69 73 76 79 81 82 82 82 81 80 79 76 73
30 30 30 30 30 30 30 31 32 33 34 35 35 36 37 38 39 40 41 43 45 47 48 50 52 55 58 61 64 68 71 74 77 80 81 82 81 81 81 80 78 75 71 67
29 29 29 29 29 30 31 31 32 33 34 35 36 37 38 39 40 41 43 45 47 49 51 53 56 59 62 66 69 73 76 78 80 81 81 81 81 80 78 76 73 69 64 60
28 28 29 29 30 31 31 32 33 34 35 36 37 38 39 40 41 43 45 47 49 51 54 56 60 63 67 70 73 76 78 80 81 81 81 80 79 76 73 69 66 62 58 55
29 29 30 30 31 31 32 33 34 35 35 36 38 39 40 41 43 45 47 49 52 54 57 61 64 68 71 74 76 78 80 80 80 80 79 76 73 70 66 63 60 57 53 50
30 30 31 31 32 32 33 34 35 36 37 38 39 40 42 44 45 47 49 52 55 58 62 65 69 72 74 76 78 79 79 79 78 76 73 70 67 63 60 57 54 51 48 45
31 31 32 32 33 34 34 35 36 37 38 39 41 42 44 46 48 51 53 56 59 63 66 69 71 74 76 78 78 78 77 76 73 69 66 63 61 58 55 52 49 46 42 39
31 32 32 33 33 34 35 36 36 38 39 41 43 44 46 48 51 53 56 60 63 66 69 71 73 76 77 77 76 75 72 69 66 63 61 58 55 53 50 47 44 40 37 35
31 32 32 33 33 34 35 36 37 39 40 42 44 46 49 51 54 57 60 64 67 69 71 73 74 75 75 74 72 69 65 62 59 57 55 52 50 48 45 41 39 36 33 31
31 31 32 33 34 34 35 37 38 40 42 43 46 49 52 55 58 61 64 66 69 70 72 73 73 72 71 68 65 61 58 56 54 51 49 47 45 42 38 35 33 30 29 27

GEFSNGP_500_meanwind_102.txt.gz
Wind_Speed
41 39 38 37 37 37 37 36 34 30 29 24 26 28 28 28 28 27 26 27 28 29 30 30 31 32 32 33 34 34 35 35 36 38 39 40 41 42 43 44 45 46 47 49
40 39 38 38 37 37 36 34 32 31 27 23 27 29 29 28 28 27 26 27 28 29 29 30 30 31 32 33 34 34 35 36 37 39 40 41 42 42 43 44 45 47 48 49
39 38 39 40 35 34 33 32 32 31 25 25 27 28 29 28 27 26 26 27 28 28 29 29 30 31 32 33 33 34 36 37 38 39 40 41 42 43 44 45 47 48 49 49
40 39 41 35 32 32 32 32 32 30 27 26 27 28 27 27 26 26 26 27 27 28 29 30 30 31 32 33 34 34 35 36 38 39 40 41 42 44 45 46 47 48 49 51
41 40 40 36 32 31 32 30 29 29 27 26 27 27 26 26 26 26 27 27 27 28 28 29 30 31 32 33 34 35 36 36 38 39 41 42 44 45 45 46 47 49 50 52
41 41 40 34 32 31 31 29 27 28 27 27 27 27 25 25 25 26 26 26 27 28 29 29 30 31 32 34 34 35 36 37 39 40 42 43 44 45 46 47 48 50 51 53
42 40 38 34 31 30 30 27 27 28 28 27 26 25 25 25 25 26 26 27 27 28 29 30 31 32 33 34 35 36 37 38 39 41 42 43 44 45 46 48 49 51 53 55
41 41 36 32 30 28 27 28 28 28 27 27 26 26 25 25 25 26 26 27 28 28 29 30 32 33 34 34 35 36 37 39 40 41 42 43 44 46 47 49 51 53 54 56
39 36 32 30 29 28 29 29 28 28 28 27 27 26 26 26 26 27 27 28 29 30 31 32 33 33 33 34 35 37 38 39 40 41 42 44 45 47 48 50 52 54 56 58
39 36 32 31 29 29 29 29 29 29 29 28 28 27 27 27 28 28 29 29 29 30 31 32 32 33 34 35 36 36 38 39 41 42 43 44 46 48 50 52 55 57 59 61
37 35 33 31 30 29 30 30 30 30 30 29 29 29 29 29 29 29 30 30 31 31 32 32 33 34 34 35 36 38 39 40 41 43 44 46 48 50 52 55 57 60 62 65
34 32 32 31 31 32 32 32 31 30 30 30 30 29 29 29 30 30 31 31 31 32 32 33 33 34 35 36 37 39 40 41 43 44 46 48 50 52 54 57 60 63 65 68
35 34 33 33 33 33 33 32 31 30 30 30 30 30 30 30 31 31 31 32 32 32 33 33 34 35 36 37 38 40 41 43 44 46 48 50 53 55 57 59 62 65 68 71
36 35 34 34 34 33 33 32 32 31 30 30 30 30 30 31 31 31 32 32 32 33 33 34 35 36 37 38 40 41 43 44 46 49 51 53 56 58 61 63 66 68 71 74
36 36 35 35 34 34 33 32 31 31 30 30 30 30 30 31 31 31 32 32 33 33 34 36 37 38 39 40 41 43 45 47 49 52 54 56 59 62 64 67 70 72 74 76
36 36 35 34 33 33 32 32 31 31 31 30 30 30 30 31 31 31 32 33 33 34 36 37 38 39 40 42 43 45 47 50 52 54 57 60 63 66 69 71 73 75 77 78
35 34 34 33 32 32 31 31 31 31 30 30 30 30 31 31 32 32 33 34 35 36 37 38 39 41 42 44 46 48 50 53 55 58 61 63 67 70 72 74 76 77 77 77
33 33 33 33 32 31 30 30 30 30 30 30 30 30 31 31 32 33 34 35 36 37 38 39 41 43 44 46 48 51 53 56 58 61 64 67 70 73 75 76 77 77 76 75
32 31 31 31 31 30 30 29 29 29 29 29 30 30 31 32 33 34 35 36 37 38 40 41 43 45 47 49 51 54 56 59 62 65 68 70 73 75 76 77 76 75 73 71
31 31 31 30 30 30 29 29 29 28 29 29 30 31 32 33 34 35 36 37 38 40 42 43 45 47 49 52 54 57 60 63 65 68 71 73 75 76 76 75 73 71 69 66
30 30 30 29 29 28 28 28 28 28 29 30 31 32 33 34 35 36 37 39 40 42 43 45 47 49 52 54 57 60 63 66 68 71 73 74 75 74 73 71 69 66 63 61
28 29 29 28 28 28 28 28 28 29 30 31 32 33 34 35 36 37 38 40 41 43 45 47 50 52 55 58 61 63 66 68 71 72 73 73 72 71 68 66 63 60 58 56
28 28 28 27 27 28 28 29 29 30 31 32 33 34 35 36 37 38 39 41 43 45 47 50 52 55 58 61 63 66 68 70 71 72 72 71 69 66 63 60 57 54 53 51
27 27 27 27 28 28 29 29 30 31 32 33 34 35 36 37 38 39 41 43 45 47 50 52 55 58 61 63 65 68 70 71 71 71 69 66 63 60 57 54 52 50 48 45
27 27 27 28 28 29 29 30 31 32 33 33 34 35 36 37 39 40 43 45 47 50 52 56 59 61 63 65 67 68 69 70 69 66 63 60 57 54 52 49 46 44 41 38
26 26 27 27 28 29 29 30 31 32 33 33 34 35 37 38 40 42 45 47 50 53 56 59 61 63 64 66 67 68 68 67 64 61 57 54 51 49 47 44 41 38 36 34
26 26 27 27 28 29 30 30 31 32 32 33 34 36 38 40 42 45 47 50 53 56 59 61 62 64 65 67 67 67 65 61 58 54 50 48 46 44 41 38 36 34 32 31

GEFSNGP_500_meanwind_108.txt.gz
Wind_Speed
48 47 47 45 44 44 44 42 41 38 36 33 33 32 32 30 29 27 27 26 26 26 26 27 27 28 28 28 29 30 30 31 32 32 33 34 35 36 37 38 40 41 42 42
48 48 48 48 46 44 43 42 40 38 35 31 32 33 32 31 29 27 26 25 25 26 26 26 27 27 27 28 29 29 30 30 31 32 33 33 35 36 38 39 40 41 42 42
47 47 48 51 47 44 42 41 39 38 33 32 34 33 32 31 29 27 26 25 25 25 26 27 27 27 27 28 28 29 30 30 31 32 33 34 35 37 38 40 41 42 42 44
45 46 50 46 44 43 41 39 38 37 34 34 33 33 32 31 29 27 26 25 25 25 26 26 27 27 27 28 29 29 29 30 31 32 34 35 37 38 39 40 41 42 43 44
46 47 46 44 42 40 39 38 36 35 34 34 33 33 31 29 29 27 26 25 25 25 26 26 26 27 27 27 28 29 29 30 31 33 34 35 37 38 39 40 41 42 44 45
47 46 45 41 38 37 38 38 34 34 34 33 34 33 29 29 28 27 26 25 25 25 26 26 26 27 27 27 28 30 30 32 33 34 35 36 37 38 40 41 42 44 45 47
46 44 42 40 37 35 37 33 31 33 33 32 32 30 28 28 27 26 26 26 25 25 25 26 26 27 28 28 30 31 32 33 34 35 36 37 38 39 40 42 43 45 46 47
46 45 41 37 36 34 31 31 31 30 30 29 29 28 27 27 26 26 25 25 25 26 26 26 27 28 28 30 31 32 33 34 35 36 37 37 39 40 42 43 45 46 47 48
44 42 38 36 34 32 31 30 29 28 28 28 27 27 27 27 27 26 26 26 26 26 27 28 28 29 30 31 32 33 34 35 36 36 37 38 40 41 42 44 45 46 48 50
43 42 39 36 33 32 32 30 29 28 27 27 27 27 28 28 28 27 27 27 27 27 28 29 29 30 31 32 33 33 34 35 36 37 38 39 40 42 43 44 46 48 49 51
43 40 38 36 32 31 31 30 28 28 27 27 27 27 28 28 28 28 28 28 29 29 29 30 30 31 32 33 34 34 35 36 36 37 39 40 41 42 44 45 47 49 51 54
40 38 36 34 33 32 30 30 29 29 28 28 28 28 28 28 28 28 29 29 30 30 31 31 32 32 33 34 34 35 36 36 37 38 39 40 42 43 45 47 49 51 54 56
38 37 37 35 35 34 32 31 30 30 29 29 28 28 28 27 28 29 29 30 31 31 32 32 32 33 33 34 34 35 36 37 38 39 40 41 43 45 47 49 51 53 56 59
38 37 36 36 35 34 33 31 30 31 31 30 30 29 29 29 29 29 30 30 31 31 32 32 32 33 33 34 34 35 37 38 39 40 41 43 45 47 49 51 53 56 59 62
39 38 37 36 36 35 33 32 31 30 30 30 30 30 30 30 30 30 31 31 31 31 32 32 33 33 34 35 36 37 38 39 40 42 44 45 47 49 52 54 57 59 62 64
38 37 37 36 35 34 33 32 31 30 30 30 30 30 30 30 30 30 30 31 31 31 32 32 33 34 35 36 37 38 39 40 42 44 45 47 49 52 55 57 60 62 64 66
38 37 36 35 34 33 32 31 31 31 30 29 29 29 29 29 30 30 31 31 31 32 33 33 34 35 36 37 38 39 40 42 44 45 47 50 52 55 57 60 62 64 67 69
38 36 36 35 34 33 32 31 31 30 29 29 29 29 29 29 30 30 31 31 32 33 33 34 35 36 37 38 39 40 42 44 46 47 50 53 55 58 60 63 65 67 69 71
38 37 36 35 34 34 33 31 31 30 30 29 29 29 29 30 30 31 31 32 32 33 34 35 36 37 38 39 41 42 44 46 48 50 53 55 58 60 63 65 67 68 70 71
36 36 35 35 34 33 32 31 31 30 30 29 29 30 30 30 30 31 31 32 33 34 35 36 37 38 39 41 42 44 46 48 50 53 56 58 61 63 65 66 68 69 70 68
34 34 33 33 33 32 31 30 30 29 29 29 29 30 30 30 30 31 32 33 34 35 36 37 38 39 41 42 44 46 48 50 53 56 58 61 63 64 66 67 69 69 67 64
33 33 33 32 32 31 29 29 28 28 28 29 29 30 30 30 31 32 33 34 35 36 37 38 39 41 42 43 45 48 51 53 56 59 61 62 64 65 67 67 67 65 62 58
30 31 32 32 31 30 29 28 28 28 29 29 29 30 30 31 31 32 33 34 36 37 38 39 40 42 43 45 48 50 53 56 58 61 62 63 65 66 66 65 63 60 56 52
29 30 30 30 30 29 28 28 28 29 29 29 29 30 30 31 32 33 34 35 36 37 38 40 41 43 45 48 50 53 55 58 60 61 63 64 64 63 62 60 58 55 50 47
28 28 29 29 28 28 28 28 28 28 28 29 30 30 31 32 33 34 35 36 37 38 39 41 43 45 48 50 53 55 57 59 61 62 62 62 61 60 58 56 52 48 45 43
26 26 26 26 27 27 27 27 28 28 28 29 30 30 31 32 33 34 35 36 37 39 41 43 45 48 50 52 54 56 58 60 61 60 60 59 58 56 54 50 46 44 42 40
26 26 26 26 27 27 28 28 28 28 29 29 30 31 32 33 33 34 35 37 38 40 43 45 47 49 52 54 56 58 59 59 59 58 57 56 54 51 48 45 43 41 40 37

GEFSNGP_500_meanwind_114.txt.gz
Wind_Speed
50 49 47 47 46 47 48 46 44 38 36 32 31 31 30 30 29 27 25 24 24 24 25 25 25 26 26 26 26 26 27 27 28 28 29 30 31 31 32 32 33 34 35 36
51 50 49 48 46 45 44 44 43 41 38 32 32 33 33 32 29 28 26 25 24 25 25 25 25 25 25 25 26 25 26 26 27 28 28 29 30 31 32 32 33 34 35 36
50 50 50 52 47 46 44 42 42 41 34 32 34 34 33 31 30 28 26 25 25 25 25 25 25 25 25 26 26 26 26 26 27 27 28 29 30 31 32 32 33 34 36 37
49 51 52 48 45 44 43 41 40 38 35 35 33 33 34 33 31 29 26 25 25 25 25 25 25 26 26 26 26 26 26 26 27 27 28 29 30 31 32 33 34 35 36 38
46 50 50 47 45 43 42 40 39 38 36 35 34 36 36 33 31 29 27 27 26 26 26 26 26 26 26 26 26 26 26 26 27 28 28 29 30 31 33 34 35 36 37 38
44 46 48 42 41 40 40 40 37 37 36 35 36 37 32 30 31 30 29 28 27 26 26 25 25 26 26 25 26 26 26 27 27 28 29 30 31 32 33 34 35 36 38 39
42 43 44 40 40 40 39 33 32 35 35 35 35 31 28 31 31 30 29 28 27 26 25 25 25 25 26 26 26 26 26 27 28 29 30 31 32 33 34 35 36 37 38 39
43 44 41 37 38 36 33 32 32 32 33 34 33 31 31 31 30 30 29 28 27 26 25 25 25 25 26 26 26 26 27 28 29 30 31 31 33 34 35 36 37 38 39 40
43 42 38 37 34 32 33 32 31 32 32 32 33 32 32 31 30 29 29 28 27 26 25 26 26 26 26 26 27 27 28 29 30 30 31 32 33 34 35 36 37 38 39 40
45 44 40 35 34 32 32 31 30 30 30 31 30 31 31 31 30 29 28 27 27 26 26 26 26 26 27 27 28 29 29 30 31 31 32 33 34 35 36 37 38 38 39 41
43 44 41 38 34 32 31 29 29 29 29 29 29 29 29 30 30 29 29 28 27 27 27 27 27 27 28 28 29 30 30 31 31 32 32 33 34 35 36 37 38 39 40 42
41 40 39 39 37 34 31 29 29 29 29 28 28 28 28 28 29 29 28 27 27 27 27 27 28 28 28 29 29 30 30 30 31 32 33 34 35 35 36 37 38 40 42 44
40 41 42 41 39 36 33 31 29 29 29 28 29 29 28 28 28 28 28 27 27 27 27 27 27 28 28 28 29 29 29 30 31 32 33 34 35 35 36 38 40 42 44 46
41 43 44 42 40 38 37 34 31 30 29 28 28 28 28 28 28 27 27 27 27 27 27 27 28 28 28 28 29 29 30 31 32 32 33 34 35 36 38 39 41 43 46 48
43 44 45 43 40 39 38 35 32 30 29 29 28 28 28 27 27 27 27 27 27 27 27 27 28 28 28 28 29 29 30 31 32 33 34 35 36 37 39 41 43 45 47 50
43 45 45 44 41 39 37 34 32 30 30 29 28 28 27 27 27 27 27 27 27 27 28 27 28 28 28 29 29 30 31 31 32 33 34 35 37 38 40 43 45 47 49 52
43 44 44 42 39 37 35 33 31 30 30 29 28 28 27 28 28 27 27 27 27 27 27 27 28 28 28 29 29 30 31 32 33 34 35 37 38 40 42 45 47 49 51 54
42 42 43 42 39 37 35 33 32 30 29 29 28 28 27 28 28 27 27 26 26 26 27 27 27 28 28 29 29 30 31 32 33 35 36 38 40 42 45 46 48 51 53 55
40 40 41 41 39 37 35 33 32 31 29 29 28 27 28 27 27 27 26 26 26 26 27 27 27 28 28 29 30 31 32 33 35 36 38 40 42 44 46 48 50 52 55 56
41 41 40 39 39 36 34 33 32 31 30 29 28 27 27 26 26 25 25 25 26 26 27 27 27 28 29 30 31 32 33 35 36 38 40 42 43 45 47 49 52 54 56 58
39 39 39 38 37 36 34 32 31 30 29 28 28 27 26 25 25 24 25 25 26 27 27 27 28 29 30 31 32 33 35 36 38 40 41 43 44 46 48 51 54 56 57 58
36 37 38 37 36 34 33 32 31 30 29 28 27 27 26 25 24 25 25 26 27 27 27 28 29 30 31 32 34 35 36 38 39 40 42 44 46 48 51 54 56 57 58 58
34 35 36 36 35 33 33 32 31 30 29 28 27 26 25 25 25 26 26 26 27 27 28 29 30 31 33 34 35 36 37 39 40 42 44 45 48 51 53 56 58 58 57 56
32 33 34 35 35 34 33 32 30 29 28 27 26 26 26 26 26 26 26 26 27 28 29 31 32 33 34 35 36 37 38 40 42 43 45 47 50 53 56 57 57 56 55 53
32 32 33 33 33 33 32 30 29 28 27 26 26 26 26 26 26 26 26 26 28 29 30 31 32 34 35 36 37 38 40 42 43 45 47 50 53 55 57 57 56 53 52 51
30 31 31 30 30 30 30 29 28 27 27 26 26 26 25 25 25 26 27 28 29 30 31 32 33 34 36 37 38 40 41 43 45 47 50 53 55 56 56 55 53 51 50 49
28 29 29 29 29 28 28 28 27 27 26 26 25 25 25 26 26 27 28 29 29 30 31 32 34 35 37 38 39 41 43 45 47 50 52 54 55 55 54 53 51 49 48 46

GEFSNGP_500_meanwind_120.txt.gz
Wind_Speed
44 45 45 47 48 49 52 50 48 44 42 39 39 35 34 34 35 35 35 35 35 35 35 34 33 33 33 32 32 31 31 31 30 30 30 30 30 30 30 30 31 31 31 32
43 44 45 47 48 48 49 48 46 44 42 39 38 37 36 36 36 35 34 34 35 35 34 33 33 32 32 31 30 29 29 29 29 29 29 29 29 29 29 30 30 31 31 32
44 43 46 48 47 46 46 47 46 44 40 39 39 38 37 37 37 36 35 34 34 34 34 33 32 32 31 30 29 28 28 28 28 28 28 28 28 28 29 29 30 30 31 32
43 42 43 43 42 44 43 44 45 45 42 40 39 38 39 39 38 37 36 35 35 34 34 33 32 31 30 29 28 28 28 28 28 27 27 27 28 28 29 29 30 31 32 33
41 41 41 42 41 41 42 44 43 45 44 42 40 42 42 41 40 39 38 37 35 34 33 33 32 31 30 29 28 28 28 28 27 27 27 27 28 28 29 30 30 31 32 33
41 42 40 39 39 41 42 43 43 44 44 42 42 43 41 40 40 39 38 37 36 35 34 33 32 31 30 29 29 28 28 27 27 27 27 27 27 28 29 30 31 32 32 34
39 41 41 39 39 41 42 40 41 42 42 42 42 40 37 39 40 40 39 38 37 36 35 33 32 31 30 29 29 28 28 27 27 27 27 27 28 29 29 30 31 32 33 34
40 41 40 38 39 41 41 42 41 40 41 41 40 39 39 40 40 40 39 38 37 36 35 34 32 31 30 30 29 28 28 28 28 28 27 28 29 29 30 31 32 32 33 34
37 39 39 38 39 39 41 42 41 40 39 40 40 40 39 39 39 39 38 38 37 35 35 34 33 32 31 30 29 28 28 28 28 28 28 28 29 29 30 31 32 33 34 35
37 41 41 39 39 39 40 41 42 40 39 38 39 39 38 38 38 37 36 37 37 36 35 34 33 32 31 30 29 28 28 28 28 28 28 29 29 30 30 31 32 33 34 35
36 39 40 39 39 39 39 40 41 40 40 39 38 38 37 37 38 37 36 36 35 35 34 33 32 31 31 30 29 28 28 28 28 29 29 29 29 30 31 32 32 33 35 36
36 37 38 39 40 40 39 38 40 40 39 39 36 36 36 35 35 36 36 35 35 34 33 33 32 31 30 29 29 28 28 28 29 29 29 29 30 31 31 32 33 34 35 36
35 37 40 40 40 39 39 38 39 38 37 36 35 34 35 34 33 34 34 34 33 33 32 32 32 31 30 29 29 29 28 28 28 29 29 30 30 31 32 33 34 35 36 36
36 38 40 41 41 41 39 39 39 37 37 36 35 34 34 33 33 33 33 33 32 32 32 31 31 30 29 29 29 28 28 28 28 29 29 30 30 31 32 33 34 35 36 37
37 38 39 40 41 41 40 39 38 37 37 36 34 34 33 31 31 32 32 32 31 31 30 30 30 29 29 28 28 28 28 28 28 29 29 30 31 32 33 33 34 36 37 38
40 41 41 40 41 41 41 40 37 36 36 34 33 33 32 30 30 31 30 30 30 30 29 29 29 29 28 28 28 28 28 28 28 29 29 30 31 32 32 33 35 36 37 38
41 42 42 42 41 40 42 41 38 35 34 33 32 32 31 30 30 30 30 29 29 29 29 29 28 28 28 28 28 27 27 27 28 29 30 30 31 31 33 34 35 36 37 39
40 41 42 42 41 41 43 42 38 36 35 33 31 30 30 29 29 29 29 29 28 28 29 29 28 28 28 27 27 27 27 27 28 28 29 30 31 32 33 34 35 36 38 40
38 39 41 42 42 42 42 41 40 38 36 33 31 30 29 28 28 28 28 28 28 28 28 27 27 27 27 27 27 26 26 27 27 28 29 30 31 32 33 34 36 37 39 42
37 38 40 42 42 42 41 41 40 38 36 34 32 31 29 28 28 27 27 27 27 26 26 26 26 26 26 25 25 25 26 27 27 28 29 30 32 33 34 36 37 39 41 43
37 38 40 42 43 42 41 40 39 37 36 34 33 31 28 27 26 26 25 24 24 24 24 25 25 24 24 25 25 25 26 27 28 29 30 31 33 34 35 37 39 40 42 45
37 38 39 42 44 42 41 39 38 37 35 34 33 31 29 27 26 25 24 24 24 24 24 23 23 23 23 24 25 26 26 27 28 30 31 32 33 35 36 38 40 41 44 46
37 38 39 41 42 41 40 39 38 37 35 33 32 30 29 28 26 24 24 24 24 24 24 24 23 23 24 25 26 26 27 28 29 31 32 33 34 36 38 39 41 43 46 48
36 37 39 40 41 40 39 38 37 37 35 33 31 30 29 28 26 25 24 24 24 24 24 24 24 24 25 26 26 27 28 29 30 31 32 34 35 37 39 40 42 45 48 50
35 37 38 38 38 39 39 38 37 37 35 33 31 29 28 26 25 25 24 24 25 25 25 25 25 25 26 26 27 28 29 30 31 32 33 35 36 38 40 42 45 47 49 51
35 36 36 36 36 37 38 37 37 35 33 31 29 28 27 25 25 24 24 24 25 25 25 25 25 25 26 26 27 28 29 30 31 33 34 36 38 40 42 44 46 48 50 51
33 34 34 34 35 36 36 36 35 33 31 29 28 28 27 26 25 24 24 24 24 25 25 25 25 25 26 27 28 30 30 31 32 34 36 37 39 41 43 45 47 48 50 51

GEFSNGP_500_meanwind_126.txt.gz
Wind_Speed
34 33 34 36 38 40 43 44 43 40 42 40 39 37 36 36 38 40 41 42 42 43 43 42 42 42 41 41 40 40 39 39 38 37 36 36 35 35 34 35 34 34 34 34
32 33 33 34 35 38 40 42 44 42 41 41 40 39 36 35 36 38 39 40 40 41 41 41 40 40 39 39 38 38 37 37 36 35 35 34 34 34 34 34 33 33 33 33
31 33 33 34 35 35 37 40 42 44 42 42 40 38 37 36 36 37 39 39 39 39 39 39 39 38 38 37 37 36 35 35 34 34 33 33 33 33 33 32 32 32 32 32
31 32 33 31 34 35 36 38 41 44 44 42 40 40 39 39 38 38 39 40 39 39 39 39 39 38 37 37 36 35 34 34 33 33 32 32 32 32 32 31 31 31 31 31
29 31 32 30 32 35 36 38 41 43 44 44 41 42 42 40 40 41 41 41 40 39 39 39 38 38 37 36 35 34 33 33 32 32 31 31 31 31 30 30 30 30 30 30
28 29 30 30 30 33 36 38 40 42 43 44 43 44 42 42 42 41 41 41 40 39 39 39 38 37 36 35 34 33 32 32 31 31 30 30 30 30 30 30 30 30 30 30
28 30 30 29 30 33 35 37 39 41 42 43 44 43 42 43 44 42 41 42 41 40 39 38 37 35 34 33 33 32 32 31 30 30 29 29 29 29 29 29 29 29 29 30
28 31 31 30 31 33 33 36 37 39 41 42 43 43 44 44 44 43 42 42 42 41 39 37 35 35 34 33 33 32 31 30 30 29 29 29 29 28 28 28 28 29 29 30
28 29 31 33 32 34 35 35 37 38 40 41 42 43 44 44 43 43 43 43 42 41 39 37 36 35 34 34 33 31 31 30 29 29 28 28 28 28 28 28 28 29 29 29
29 29 31 34 34 35 37 36 36 37 39 40 40 41 42 43 43 43 43 42 41 40 39 38 36 34 34 33 32 31 31 30 29 28 28 27 27 27 27 28 28 28 29 29
29 29 32 34 35 36 38 38 36 36 38 39 38 39 41 41 42 41 41 41 40 39 38 37 36 34 33 32 31 31 30 30 29 28 28 28 27 27 27 28 27 28 29 30
30 30 34 35 36 37 39 40 38 37 37 38 38 38 39 38 39 39 39 40 40 39 38 37 36 35 34 32 32 31 30 29 29 28 28 27 27 27 28 28 28 28 29 30
30 33 35 36 37 37 38 39 39 39 38 37 36 37 37 37 38 38 37 37 38 38 38 37 36 35 34 32 31 30 30 29 29 28 27 27 27 28 28 28 28 29 29 30
31 33 35 36 37 38 38 39 39 38 39 38 35 35 36 37 38 38 38 37 37 37 37 37 36 34 33 32 31 30 30 29 28 28 27 27 27 28 28 28 28 29 29 30
31 34 35 36 37 37 37 38 39 39 40 39 37 36 36 36 37 38 38 37 37 37 37 36 34 33 32 32 31 31 30 29 29 28 27 27 27 27 27 28 28 29 29 30
31 33 35 36 36 37 37 37 38 39 39 39 38 37 36 36 36 36 36 36 36 36 36 34 32 32 32 31 31 30 29 29 29 28 27 27 27 27 27 27 28 28 29 30
31 33 35 36 36 37 37 37 38 39 39 38 38 37 36 36 35 35 35 35 34 35 34 33 32 32 31 31 30 29 28 28 28 27 27 27 27 27 27 27 28 28 29 30
30 33 35 36 35 36 37 37 38 38 38 38 38 38 37 36 35 35 35 34 34 34 34 33 32 31 30 30 29 28 27 27 27 27 27 26 26 26 27 27 27 28 29 29
28 32 34 36 37 37 37 37 38 38 37 38 39 39 37 36 36 35 35 34 33 33 32 31 31 30 29 28 27 26 26 26 26 26 25 25 25 26 26 26 26 27 29 30
29 32 34 36 38 38 38 37 37 37 38 38 38 39 38 36 36 35 34 33 32 31 30 29 29 29 29 28 26 26 25 25 24 24 24 24 24 25 25 26 26 28 30 31
29 32 35 36 37 38 39 39 38 38 38 38 39 39 38 36 35 35 34 32 32 30 29 28 28 28 27 26 25 24 24 23 23 23 23 23 24 24 25 26 27 29 30 31
29 32 35 37 38 39 39 38 38 40 40 39 39 39 37 36 34 34 34 32 31 30 28 27 27 26 25 24 23 23 23 22 22 23 23 23 24 24 25 26 28 29 30 31
29 33 36 38 39 39 38 37 37 38 39 39 39 38 37 36 34 33 33 32 31 30 29 28 26 25 24 23 23 22 22 21 21 22 23 23 24 24 26 27 28 29 30 32
28 32 35 36 37 38 37 37 37 38 38 38 38 38 38 37 35 34 32 30 29 29 27 26 25 24 23 22 22 21 21 21 21 22 22 23 23 25 26 27 28 30 31 33
26 30 34 36 36 36 36 36 36 37 37 38 37 37 37 37 36 34 33 31 29 28 26 25 24 24 23 22 22 22 22 22 22 22 22 23 24 25 27 28 29 31 33 34
28 31 34 36 36 36 36 36 36 37 37 36 37 37 36 36 35 33 32 30 29 27 26 25 24 23 23 22 22 22 22 22 22 23 23 24 25 27 28 29 30 32 33 35
29 32 34 36 37 37 36 37 38 37 37 35 34 35 35 35 34 33 31 29 28 26 25 24 23 23 22 22 22 23 23 23 23 24 24 25 26 28 29 30 31 33 35 36

GEFSNGP_500_meanwind_132.txt.gz
Wind_Speed
26 26 27 28 30 32 34 35 38 36 35 32 33 34 34 33 34 36 39 43 46 47 49 50 50 50 51 50 50 50 49 48 47 46 45 44 43 41 40 39 38 38 37 36
26 27 27 28 29 31 33 34 36 38 36 33 32 31 33 33 32 34 37 41 44 45 47 48 49 49 49 49 48 48 48 47 45 45 45 44 42 41 40 39 37 37 36 35
25 26 27 26 28 31 31 33 36 39 36 35 34 31 31 32 32 34 36 39 41 42 44 46 47 47 48 48 47 46 45 45 44 42 42 42 41 40 39 37 36 35 34 34
24 25 26 24 26 28 29 32 36 38 38 37 36 34 32 32 32 33 35 39 40 40 42 44 45 46 45 46 45 44 42 42 41 40 39 38 38 37 37 36 35 34 34 33
22 23 24 23 25 27 28 29 34 38 39 39 38 36 34 33 34 35 37 39 41 40 40 42 43 43 44 43 43 42 40 39 38 38 37 37 36 35 35 35 34 34 33 33
22 23 23 22 24 27 29 29 32 34 37 39 39 38 35 35 35 35 38 39 40 41 40 40 40 40 41 41 40 39 38 37 37 36 36 35 35 34 34 33 32 32 32 31
21 23 23 22 24 27 27 29 32 32 34 37 38 38 36 35 36 37 38 40 40 40 39 39 39 39 39 38 37 37 36 36 35 35 34 34 33 33 32 31 31 31 30 30
22 23 22 22 25 27 27 29 31 32 33 35 37 37 36 35 36 38 38 38 39 40 40 39 39 38 38 37 36 35 35 34 34 33 33 32 32 31 30 29 29 29 28 28
23 22 23 25 26 27 28 29 31 32 34 35 36 37 38 36 37 39 39 39 39 40 40 39 38 37 36 35 34 33 33 32 32 31 31 30 30 29 28 28 28 27 27 27
25 24 25 27 28 28 29 30 30 31 32 35 35 36 37 38 37 39 40 41 40 40 39 38 37 35 34 34 33 32 31 31 30 30 29 28 27 27 27 26 26 26 26 26
27 26 27 28 30 30 30 31 32 31 31 33 35 35 36 37 38 40 41 41 40 40 39 38 37 35 34 33 32 31 30 30 29 28 27 26 26 26 25 25 25 25 25 25
28 27 29 29 31 31 31 30 32 31 31 32 33 35 36 37 38 40 40 41 41 41 40 39 38 36 34 32 31 31 30 29 28 27 26 26 25 25 24 24 24 24 24 25
28 29 29 29 30 31 32 32 32 32 32 32 33 35 36 37 37 39 40 41 41 40 39 38 38 37 35 33 32 31 30 29 28 27 26 25 25 24 23 23 23 23 24 25
27 30 30 30 30 31 32 32 32 32 32 33 34 35 36 38 38 38 40 41 41 40 39 38 37 36 35 34 32 31 30 29 28 27 25 25 24 24 24 23 24 24 24 25
26 29 28 28 29 30 32 32 33 33 32 33 33 34 36 38 39 38 39 40 40 39 39 38 37 36 35 34 33 31 30 29 28 26 25 25 24 24 24 24 24 24 24 25
24 26 26 26 27 29 32 33 33 33 33 33 33 34 36 37 38 38 39 39 39 38 38 38 37 36 35 34 33 32 30 29 28 27 25 25 25 24 24 24 23 23 23 24
22 23 24 25 27 29 31 32 33 34 34 33 34 34 35 37 38 38 39 39 39 39 38 38 37 37 36 34 33 32 30 29 27 26 25 25 25 24 23 23 22 22 23 23
22 22 23 23 24 27 30 32 33 34 34 34 35 35 35 36 37 39 39 39 40 39 38 37 37 36 36 34 33 31 30 28 27 25 24 24 24 23 23 22 22 22 22 22
20 21 21 22 24 27 29 31 33 34 34 36 37 36 35 36 37 38 39 40 40 38 37 37 37 36 35 34 32 31 30 28 26 25 24 24 23 23 22 22 22 22 22 22
21 21 21 20 23 27 28 30 32 33 35 36 37 36 35 35 36 36 37 38 39 39 39 38 36 35 34 33 32 31 29 27 26 25 24 23 23 23 22 22 22 21 21 22
22 23 22 22 24 27 28 29 30 32 34 36 37 36 35 35 35 35 35 36 37 38 38 37 35 34 33 32 31 30 29 28 27 25 24 23 23 22 22 22 21 21 21 22
23 23 22 23 25 27 29 29 30 32 33 35 36 36 35 35 34 34 35 35 35 35 35 35 34 33 32 31 30 29 28 27 26 25 24 23 22 22 22 21 21 21 21 22
24 23 22 23 25 28 29 30 31 32 33 34 35 36 36 35 34 33 34 35 34 34 34 34 33 32 31 30 29 28 27 25 24 23 22 22 22 21 21 21 20 21 21 22
24 24 23 23 25 27 29 31 31 32 33 34 35 36 36 36 35 35 35 35 34 33 33 33 33 32 31 29 28 27 25 24 23 22 21 21 21 20 20 20 20 21 22 23
23 22 23 25 26 28 29 30 32 33 33 34 35 36 36 36 36 35 35 35 34 32 32 33 33 31 30 28 27 26 24 23 22 21 21 20 20 20 20 20 20 21 22 23
20 21 22 24 26 28 30 32 32 33 34 34 35 36 36 36 36 35 35 35 34 33 32 31 31 30 28 28 27 26 25 23 22 21 20 20 20 20 21 21 21 22 23 24
20 21 22 23 26 28 31 32 32 33 35 35 35 36 36 37 36 36 35 35 33 33 32 31 31 29 28 27 26 25 23 22 22 21 20 20 20 20 20 21 21 22 24 25

GEFSNGP_500_meanwind_138.txt.gz
Wind_Speed
20 19 20 21 21 24 26 27 29 30 30 27 27 29 33 36 38 41 42 44 46 48 50 52 52 52 51 51 52 52 51 51 49 47 46 46 46 44 44 43 41 40 40 40
20 20 22 21 21 22 25 27 28 29 28 26 28 28 30 34 36 38 40 42 44 46 49 51 52 52 51 51 51 52 51 50 49 47 46 46 46 45 44 43 42 42 41 40
19 19 21 20 21 23 23 24 27 29 28 28 29 30 31 31 33 35 37 41 43 44 46 48 50 51 51 50 51 52 52 51 50 48 47 46 46 45 44 44 43 41 40 39
18 18 18 18 21 23 24 24 26 28 29 30 29 29 30 30 31 33 34 38 41 43 45 46 47 48 49 50 51 52 51 50 50 49 47 46 46 45 43 43 42 41 40 39
17 18 18 18 20 22 24 25 26 28 29 31 30 29 29 30 31 32 33 36 40 42 44 45 45 46 47 49 50 50 50 50 49 49 48 47 46 45 43 42 41 40 39 39
19 19 19 17 19 21 24 24 28 29 31 32 31 30 28 30 31 32 34 36 38 40 41 43 43 44 45 47 48 48 48 48 47 47 47 45 43 43 42 41 40 39 38 37
20 21 20 19 19 21 22 23 26 28 31 32 32 31 29 30 31 32 34 36 37 38 40 40 41 43 44 44 45 45 45 45 44 44 43 43 42 41 41 41 40 39 37 36
22 23 20 21 21 22 23 24 25 28 31 32 32 31 31 31 32 33 35 36 36 37 38 40 40 41 41 42 43 43 43 43 43 42 42 41 41 40 39 39 38 37 35 35
23 22 22 23 23 23 24 25 26 28 30 32 32 31 31 32 33 33 33 35 37 37 38 39 40 41 41 42 42 42 42 41 41 41 40 39 39 39 38 37 36 35 34 33
23 22 23 25 25 24 25 26 27 29 31 31 31 31 32 32 33 33 34 35 37 38 38 38 39 41 41 41 41 40 40 39 39 39 38 38 37 36 35 34 34 33 32 31
23 23 25 25 26 26 26 26 27 29 32 31 30 30 32 33 34 35 35 35 36 37 37 37 39 41 41 41 40 39 38 37 37 36 36 35 35 34 33 31 31 31 30 30
23 23 25 25 26 27 27 28 28 30 32 32 31 30 30 32 34 36 37 37 36 37 37 37 38 40 40 40 39 38 38 37 35 35 35 33 32 31 31 30 29 29 28 28
22 22 24 23 25 27 28 28 29 29 31 33 32 31 31 31 33 35 36 38 38 37 38 37 38 38 39 39 38 37 36 36 35 34 33 32 31 30 29 28 28 27 26 26
23 22 22 22 23 25 26 27 28 29 30 32 33 33 32 32 33 34 35 37 38 38 38 38 38 38 38 38 38 37 36 35 34 33 32 31 29 29 28 27 26 26 26 25
22 22 21 21 21 22 24 25 26 28 29 32 33 33 33 33 34 34 35 36 37 38 38 38 38 38 37 37 36 37 36 35 34 32 32 31 29 28 27 26 26 26 25 25
20 19 19 19 19 21 23 24 25 26 28 30 32 32 33 34 35 35 35 36 37 37 37 38 38 37 36 36 36 35 35 35 34 33 32 30 29 28 26 26 25 25 25 23
18 17 17 17 19 21 22 23 23 24 27 29 31 32 33 35 35 34 35 36 37 37 37 37 37 37 36 36 35 34 34 34 33 33 31 30 29 27 26 25 25 25 24 23
18 17 17 17 18 20 21 22 23 24 26 29 30 32 34 35 36 35 35 36 38 38 38 37 37 36 36 35 35 35 34 34 32 31 30 29 28 27 26 25 24 24 23 22
18 18 18 18 18 20 21 21 21 23 26 28 30 32 34 35 36 36 36 37 38 39 38 37 37 37 36 35 34 33 33 33 32 31 29 28 27 26 25 24 23 22 21 20
18 19 19 19 19 20 21 21 22 22 25 27 30 32 35 36 37 37 37 37 38 39 38 37 37 36 36 35 34 32 32 31 30 29 29 27 26 25 24 23 22 21 20 19
20 20 19 19 19 20 21 22 22 23 24 26 29 32 34 35 37 37 38 38 38 38 38 37 36 35 35 35 33 32 31 31 30 29 28 27 26 26 24 23 22 21 20 19
21 20 20 19 19 21 22 22 23 24 25 26 29 31 33 34 36 36 37 38 38 38 38 37 36 34 34 34 33 32 31 30 30 30 28 27 26 25 24 22 21 20 19 19
22 21 20 20 21 22 22 23 24 25 25 27 29 31 33 34 35 36 36 37 38 39 38 36 36 35 33 32 32 31 31 30 29 28 28 27 26 25 24 22 21 20 19 19
22 21 21 21 21 22 22 23 25 26 27 28 30 31 32 34 35 36 36 36 36 37 38 37 36 36 34 32 31 31 31 30 28 28 28 27 26 24 24 22 21 19 19 19
21 21 21 21 22 22 23 24 26 27 28 29 30 31 32 33 34 35 35 35 35 36 37 36 35 35 34 32 31 31 30 30 29 28 27 26 25 24 22 22 20 19 19 19
20 20 20 20 21 23 24 25 27 28 28 29 31 32 32 33 34 34 34 35 36 36 36 36 35 34 33 32 32 31 29 28 28 28 27 26 24 23 22 20 20 19 19 18
20 20 20 21 22 24 25 26 28 30 30 30 31 32 32 32 33 35 35 35 36 36 36 35 34 34 33 32 31 30 29 29 28 26 25 24 23 22 22 21 20 19 19 19

GEFSNGP_500_meanwind_144.txt.gz
Wind_Speed
26 25 26 26 25 26 26 26 26 23 22 20 20 20 21 23 28 32 36 39 42 46 48 50 54 56 57 57 57 57 57 55 54 52 52 52 51 48 46 45 43 41 40 39
25 24 25 26 25 26 26 27 26 25 24 23 22 22 22 24 27 31 35 37 40 44 48 50 52 55 56 56 56 56 56 54 53 52 52 52 51 49 47 45 45 43 40 40
25 23 24 23 22 23 25 26 27 26 25 24 24 24 24 25 27 31 34 36 38 42 46 49 50 53 54 55 56 56 55 54 53 52 52 52 51 49 48 46 44 44 43 41
25 23 23 21 21 22 23 24 25 25 25 26 25 25 24 26 28 30 33 35 37 40 44 47 48 50 52 54 55 55 54 54 54 53 52 51 51 49 48 46 45 45 45 43
25 24 22 20 20 21 22 23 25 26 26 26 26 25 25 27 29 30 32 34 36 39 43 46 47 49 50 51 53 55 54 54 53 53 53 52 51 50 48 47 46 45 44 44
25 25 23 21 22 22 22 22 23 25 25 26 26 26 26 28 28 30 32 34 36 38 42 45 46 47 49 50 52 53 54 54 53 53 53 52 51 50 50 48 46 46 45 43
26 26 24 22 23 23 23 22 22 23 24 25 26 26 27 29 29 30 32 34 35 37 40 43 45 46 48 49 50 51 52 53 53 52 52 52 51 50 49 48 47 46 44 43
27 28 25 25 24 24 25 23 23 23 24 25 25 26 28 29 30 30 32 33 35 36 38 41 43 45 46 47 49 49 50 51 51 51 51 51 51 50 48 47 47 45 44 43
28 27 26 27 27 26 26 25 24 24 24 25 25 25 26 28 30 31 32 33 34 35 37 39 41 43 45 46 47 48 48 49 49 49 49 49 49 49 48 47 46 44 42 41
28 26 26 27 27 27 27 26 25 25 25 25 25 25 25 26 28 30 31 33 34 36 36 37 38 40 43 44 45 46 47 47 48 48 46 46 47 47 46 45 44 42 40 39
27 25 25 25 26 27 27 27 26 25 25 25 25 25 25 25 27 29 31 32 34 36 37 37 37 39 40 42 43 45 45 46 46 46 46 44 44 44 44 43 41 41 39 38
25 24 24 23 24 25 26 26 26 26 25 25 25 24 25 25 27 28 29 32 33 35 36 37 37 38 39 40 42 43 44 44 45 45 44 43 43 43 42 41 40 39 38 36
24 23 23 22 23 23 24 25 26 26 25 24 24 24 24 25 27 27 28 30 31 33 35 35 35 36 37 39 41 42 43 43 43 43 42 41 41 41 40 39 38 37 35 33
23 23 22 22 22 22 23 23 24 25 25 24 23 24 24 25 25 26 27 29 31 32 33 35 35 35 36 38 39 40 41 41 41 41 41 40 40 39 38 37 35 34 32 31
23 23 22 21 22 22 22 21 22 23 23 24 24 24 24 25 26 26 27 29 31 32 32 34 35 35 35 37 39 39 39 39 40 40 39 39 39 37 36 35 33 32 31 30
24 23 23 22 22 22 21 21 20 21 22 23 24 24 24 24 26 27 27 28 30 32 32 34 34 35 35 37 38 39 40 40 41 40 38 37 36 36 35 33 32 31 29 28
24 24 23 23 23 22 21 20 19 20 21 23 23 24 24 24 25 26 27 28 29 30 31 32 34 35 35 36 37 38 40 40 40 39 37 36 34 33 32 32 30 29 28 27
24 24 24 23 23 22 21 20 19 19 20 22 23 23 25 25 25 26 27 28 29 30 31 32 33 34 35 35 36 37 38 38 38 37 36 34 32 31 31 30 29 28 26 25
24 24 24 23 22 22 22 20 19 20 20 21 22 23 24 25 25 26 28 29 28 29 31 33 33 34 34 35 35 36 36 37 37 36 35 34 32 31 29 28 27 26 24 24
24 24 23 22 22 23 22 21 20 20 20 21 22 22 24 25 26 26 27 28 29 29 30 32 33 33 33 34 35 35 35 35 35 34 33 32 31 30 29 27 26 25 24 23
24 24 24 23 23 22 22 20 20 20 20 22 23 23 24 25 26 26 26 28 30 31 31 32 33 34 34 34 34 34 33 33 32 32 31 31 30 29 28 26 25 23 22 21
25 25 25 24 23 22 21 20 19 19 20 21 23 24 25 26 27 27 27 28 31 32 32 32 33 34 35 34 34 33 32 31 31 30 29 29 28 27 26 25 24 22 21 20
27 26 25 23 23 22 21 20 20 19 19 21 23 24 25 27 29 29 29 29 31 32 33 34 35 34 34 34 34 32 31 30 29 28 27 27 27 27 25 24 24 22 21 20
27 26 25 24 22 21 20 20 20 20 20 21 24 25 26 27 29 30 30 30 32 34 34 34 35 35 34 34 34 32 30 30 29 28 27 27 27 26 25 24 24 23 21 20
26 25 24 23 22 21 20 20 21 22 22 23 25 26 27 27 29 30 31 32 34 35 36 35 34 34 34 34 34 32 31 30 29 28 28 27 26 26 24 23 23 23 21 20
25 24 23 22 21 21 20 20 21 22 23 24 26 27 28 29 30 31 32 34 35 36 37 36 35 35 34 33 33 32 31 30 29 28 28 27 26 25 24 24 23 22 21 20
23 23 22 21 21 20 20 20 20 21 23 25 27 28 29 30 30 31 33 34 35 36 37 37 36 34 33 33 33 32 31 30 30 29 28 27 26 25 25 24 23 22 21 20

GEFSNGP_500_meanwind_150.txt.gz
Wind_Speed
35 34 30 28 26 24 24 25 26 25 24 21 20 19 19 19 20 21 24 29 33 38 43 45 46 46 46 48 52 54 55 56 57 58 59 59 56 53 51 50 50 49 47 46
34 33 31 28 25 24 23 23 24 24 22 21 21 21 21 21 21 21 24 28 32 36 41 44 45 46 46 48 51 53 53 53 53 54 56 57 56 55 52 50 49 49 48 46
35 32 31 28 23 23 22 22 22 22 20 21 21 21 23 23 22 22 23 27 31 35 38 41 43 45 47 48 49 50 52 53 53 54 54 56 56 54 51 50 50 49 47 46
36 33 31 28 25 24 24 23 23 23 21 20 21 22 22 24 24 23 24 26 29 34 38 39 41 44 46 48 49 49 51 54 54 53 53 53 54 53 51 50 50 48 46 45
36 34 33 28 26 26 25 23 23 23 22 21 22 21 21 23 24 25 26 27 29 32 36 39 40 43 44 46 48 49 50 52 53 52 52 52 53 52 52 50 49 47 46 45
35 34 33 29 27 26 25 24 23 24 23 23 22 21 21 23 24 24 26 28 30 32 34 38 40 42 44 45 46 48 49 49 51 51 51 51 51 49 48 48 47 46 44 43
35 34 32 29 28 26 25 24 24 23 23 23 22 22 22 24 25 25 25 27 29 31 34 37 39 40 42 45 45 45 47 48 48 47 47 48 49 48 46 46 46 46 45 43
35 34 31 30 29 27 26 25 25 24 24 23 22 23 23 23 25 26 25 27 29 30 33 36 38 39 41 44 45 45 45 46 46 45 46 46 47 47 45 43 43 43 43 43
35 32 31 30 29 28 27 26 26 25 24 24 22 22 23 23 24 25 26 27 29 30 32 36 38 40 42 42 44 45 44 45 46 46 46 45 46 46 45 42 40 40 41 42
34 31 30 30 29 27 26 26 25 25 24 24 22 22 22 23 24 25 26 27 29 30 32 35 38 40 42 43 42 43 44 45 45 46 45 45 45 45 43 41 39 38 38 38
34 32 30 28 27 26 25 25 24 24 23 23 23 22 22 22 23 25 26 26 27 30 32 34 37 39 42 43 43 43 44 44 45 45 45 44 44 44 42 41 40 38 37 36
33 32 30 26 25 25 25 24 23 22 21 22 21 21 21 22 22 23 25 26 27 29 31 33 37 38 41 43 43 43 43 43 43 44 44 44 44 43 42 40 39 39 38 37
32 31 30 26 25 25 24 23 22 20 20 20 21 20 20 20 22 22 24 24 25 28 30 32 35 37 40 41 43 43 43 43 43 43 42 43 43 43 42 40 38 38 38 38
32 30 28 26 24 24 23 22 20 19 19 19 19 19 19 19 20 20 22 23 24 26 28 30 32 35 37 39 41 42 42 43 43 43 42 41 42 42 41 40 38 37 37 37
30 29 27 25 24 23 22 21 20 19 19 18 18 18 17 18 19 19 20 22 23 24 26 28 31 34 36 37 38 40 41 41 41 42 43 42 42 42 41 40 38 37 37 36
29 27 26 24 23 22 21 21 20 19 19 18 18 17 17 17 18 18 20 21 22 23 24 27 30 34 35 36 37 38 39 40 40 41 42 42 42 42 40 39 38 37 35 34
26 25 24 24 23 22 21 21 20 20 19 18 18 18 17 17 17 18 20 21 22 23 24 26 29 33 35 36 37 37 38 39 39 39 40 41 41 41 40 38 37 36 35 33
25 24 23 22 22 22 22 21 21 21 20 19 19 19 18 18 18 18 19 20 21 23 25 27 29 31 35 36 38 38 38 38 38 38 39 41 40 39 39 38 37 36 35 34
23 23 22 22 22 22 22 21 20 20 19 19 18 18 18 18 18 19 19 21 22 23 24 27 29 31 32 35 37 38 38 38 39 38 39 38 39 39 37 36 36 35 35 34
22 22 22 21 21 22 21 21 20 19 19 18 18 17 17 18 19 19 20 20 21 22 23 25 27 30 32 33 35 37 37 37 38 38 39 38 37 37 37 37 37 35 34 32
22 22 21 21 22 22 22 21 20 20 20 19 18 17 17 19 20 20 20 21 21 21 22 24 25 28 31 33 35 37 37 37 37 38 38 37 37 36 36 35 34 33 31 30
22 22 22 22 22 22 22 21 21 21 20 19 19 18 18 19 20 20 20 20 21 22 23 24 26 27 30 34 35 36 36 37 38 38 38 37 36 35 34 33 32 31 30 29
23 23 23 23 23 23 23 22 22 21 21 20 20 19 19 20 20 20 20 21 21 22 23 25 26 27 30 33 36 36 36 37 37 37 37 36 35 35 34 33 32 31 30 29
24 24 24 24 24 23 23 23 22 22 22 21 20 20 20 21 21 22 22 22 23 25 25 26 27 29 31 33 35 36 36 35 36 36 36 35 34 33 32 31 30 30 29 28
24 24 24 24 23 23 23 23 22 22 22 21 21 21 21 22 22 23 24 24 25 26 27 27 29 30 31 32 34 35 36 36 35 35 35 34 33 32 31 30 28 27 27 26
24 23 23 23 22 22 22 21 21 20 21 21 21 21 22 23 24 24 25 26 26 27 28 28 29 31 32 32 33 34 35 36 35 34 34 33 32 32 30 29 28 27 26 25
23 23 22 22 21 21 21 20 19 19 20 21 21 22 23 24 25 26 27 27 28 28 29 29 29 31 32 32 33 34 35 35 35 34 34 33 32 31 30 28 27 26 25 24

GEFSNGP_500_meanwind_156.txt.gz
Wind_Speed
43 42 42 41 40 39 39 38 38 36 34 31 29 28 27 26 26 26 25 25 25 26 27 28 28 30 33 37 40 43 45 47 48 47 48 49 51 50 50 50 50 50 49 47
44 43 43 42 40 39 38 38 37 35 32 30 29 28 28 26 25 24 24 25 26 27 28 29 30 31 33 35 37 40 44 46 47 46 47 49 50 51 50 50 49 48 47 47
45 44 44 42 40 40 39 38 36 35 32 30 28 27 28 26 25 24 23 24 26 27 29 29 31 33 35 34 34 38 43 45 46 46 46 48 49 50 51 50 49 48 47 45
47 46 44 42 42 41 40 37 35 34 32 30 28 27 26 25 25 24 24 24 25 26 28 29 31 33 36 36 35 37 41 46 46 44 45 48 49 50 49 49 48 47 46 43
47 48 47 43 42 40 39 36 34 34 32 31 29 27 26 26 25 25 24 24 25 26 28 28 30 32 34 35 36 37 40 43 45 44 44 46 47 49 50 49 47 46 45 43
47 48 48 45 43 41 39 37 34 34 33 31 30 29 26 26 26 26 25 25 25 26 28 29 29 32 33 34 35 36 40 42 43 42 43 45 46 46 47 48 47 46 45 43
46 47 48 45 42 40 39 37 36 35 33 31 31 30 27 26 26 26 26 25 26 27 29 30 30 31 33 34 35 37 41 42 42 41 43 44 45 45 46 47 47 47 45 44
46 46 46 43 41 39 38 38 37 36 34 32 31 29 29 27 27 26 27 27 27 28 29 30 30 32 33 34 35 36 40 41 41 41 43 44 45 45 45 46 46 45 43 43
46 45 43 42 40 39 38 37 36 35 34 32 31 29 28 28 27 27 27 27 28 28 29 29 30 31 33 34 34 35 38 40 41 41 43 44 44 44 45 44 44 43 42 41
46 43 41 40 39 38 37 37 36 35 33 31 30 29 27 26 26 26 26 26 27 28 29 29 29 30 31 33 35 36 38 40 40 40 42 43 44 44 43 44 44 42 41 39
45 42 41 39 38 37 37 36 35 33 32 31 30 28 26 24 24 24 24 24 26 27 29 29 28 28 30 32 34 36 38 39 41 39 40 42 43 44 43 42 43 42 40 38
43 41 41 38 37 37 36 35 34 33 31 29 29 27 25 23 22 22 22 22 24 26 27 27 27 27 29 31 33 35 37 38 39 40 41 42 43 43 42 42 42 42 40 39
42 40 40 38 37 36 36 35 33 31 30 28 27 26 24 22 21 21 21 22 23 24 25 26 26 27 29 31 32 33 35 36 36 38 40 41 43 43 42 42 43 43 41 40
41 40 39 37 36 35 35 33 32 30 28 27 26 25 23 21 20 20 21 21 21 22 23 24 25 26 28 30 32 33 35 35 36 37 38 39 40 41 41 41 41 42 41 40
39 39 38 36 35 34 33 32 30 28 27 26 25 24 22 20 20 19 20 20 20 20 22 23 24 25 27 29 31 33 35 35 35 37 38 39 39 40 41 41 40 40 39 38
37 37 36 35 34 33 32 30 29 27 26 25 23 22 22 21 19 19 19 19 19 19 20 21 23 24 26 28 30 32 34 35 36 37 37 38 39 40 41 41 41 40 39 38
36 35 35 34 33 32 31 29 28 27 26 24 23 22 21 20 19 19 19 18 18 19 20 20 22 23 24 27 30 31 33 34 35 36 37 38 40 40 40 39 40 39 38 38
35 35 34 33 32 31 29 28 27 26 25 24 23 22 20 19 18 19 18 18 18 19 20 20 22 23 24 26 28 30 31 32 34 36 36 38 39 39 40 39 39 39 38 38
34 34 32 31 31 29 28 27 26 25 24 23 22 21 20 20 19 19 18 18 18 18 19 20 21 22 23 25 26 29 31 31 32 35 36 37 38 39 39 39 38 38 38 37
33 32 31 31 30 28 26 26 25 24 23 22 21 21 21 20 20 19 18 18 18 18 19 19 20 22 23 24 26 27 30 31 32 33 35 37 37 38 39 39 38 38 37 36
32 31 30 29 28 27 26 24 24 22 21 21 20 20 20 20 20 19 18 17 17 17 19 19 20 21 21 22 24 26 29 31 32 33 34 35 37 38 38 38 38 37 36 35
30 29 29 28 27 26 24 23 22 22 21 21 21 20 20 20 19 19 17 17 17 18 19 19 19 20 20 22 24 25 27 29 31 33 34 35 36 37 37 37 38 36 35 34
29 28 27 27 26 25 23 22 22 22 22 21 21 21 21 20 19 18 17 17 17 18 18 19 19 19 19 21 23 25 26 28 30 31 33 35 36 36 36 36 37 36 34 32
28 28 27 26 26 24 23 22 22 22 22 21 21 21 21 20 19 19 18 17 17 18 18 19 19 19 20 21 23 24 26 28 29 30 31 34 35 34 35 36 36 36 36 34
28 27 26 26 25 24 23 22 22 21 21 21 21 21 20 20 20 19 18 17 17 18 18 19 19 20 21 22 24 25 25 27 28 29 30 32 33 33 34 34 34 35 35 33
27 26 25 24 23 23 22 22 22 21 21 20 20 19 19 18 18 18 17 17 16 17 18 19 20 20 21 22 24 24 24 26 28 29 29 31 32 33 33 34 34 34 33 32
26 25 25 24 23 23 23 22 22 21 21 20 20 19 18 18 18 17 17 16 16 17 18 19 19 21 22 23 23 24 24 25 27 29 29 31 33 33 32 33 34 34 33 31

GEFSNGP_500_meanwind_162.txt.gz
Wind_Speed
39 39 40 40 40 39 40 41 42 41 40 38 36 35 34 33 32 31 30 28 26 26 26 25 24 24 25 26 27 29 33 35 34 34 39 40 41 43 45 46 46 45 43 44
40 40 41 41 39 39 40 40 41 41 39 37 36 35 34 33 32 31 30 28 26 25 25 24 24 23 24 25 26 27 31 34 36 36 37 38 40 42 44 44 45 45 42 41
42 41 42 41 39 39 40 41 41 41 39 37 35 35 34 33 32 31 29 28 26 25 24 24 24 24 25 25 27 28 30 33 35 36 37 38 40 41 43 44 45 45 43 42
45 44 43 41 41 41 41 40 40 41 39 38 36 35 34 33 32 31 29 27 26 24 24 24 26 26 26 26 27 29 31 33 36 37 37 38 40 42 43 43 43 45 43 42
46 47 46 42 42 42 41 39 39 39 39 39 37 35 33 32 32 32 29 27 26 24 24 25 27 27 27 26 27 28 29 32 35 36 37 38 40 42 42 41 42 44 43 42
47 47 47 44 43 43 42 40 39 39 39 38 37 35 32 32 32 31 29 27 26 25 24 24 26 27 27 28 27 27 28 31 33 35 36 37 39 41 41 40 40 43 43 43
46 47 47 44 43 43 42 41 41 40 39 39 37 36 34 33 31 30 28 28 27 26 24 25 26 27 27 28 28 28 29 31 33 34 35 37 38 39 41 40 41 42 43 44
46 47 45 43 43 42 42 41 41 40 40 39 37 35 34 33 31 30 29 28 28 27 26 26 27 27 27 28 28 28 29 31 33 33 34 35 37 38 40 40 40 42 43 43
46 45 43 42 42 42 41 41 40 40 40 39 37 35 34 33 32 30 29 28 27 26 26 26 26 27 27 28 28 28 29 31 32 33 34 35 36 37 38 39 40 40 41 42
45 42 41 41 42 41 41 41 40 40 40 39 37 35 34 33 32 30 29 27 25 25 24 24 26 27 27 27 28 27 28 30 32 34 35 36 36 36 38 38 39 39 40 40
43 41 40 40 41 41 41 41 40 40 40 38 36 35 34 32 30 29 28 26 24 24 23 23 24 26 27 27 27 26 27 28 30 33 34 34 35 35 36 37 37 39 40 39
42 41 42 41 40 41 41 40 40 40 39 37 35 34 33 31 29 28 27 25 23 23 22 22 23 25 26 26 26 26 27 28 30 32 33 34 35 36 36 36 37 38 38 38
42 41 42 41 41 41 41 41 40 40 38 36 34 33 31 30 28 27 25 23 22 22 21 21 21 23 25 25 26 26 27 28 29 31 33 34 36 36 36 34 36 37 38 38
41 42 42 42 41 40 40 40 40 38 37 35 33 31 30 29 27 26 24 22 21 20 20 20 20 22 23 24 25 25 26 27 28 30 32 34 36 36 35 34 35 37 39 39
41 42 42 41 40 39 38 38 38 36 35 33 31 30 29 28 26 24 21 20 19 19 19 19 20 20 22 23 23 24 24 26 28 29 31 33 35 36 35 35 35 36 38 39
41 41 40 39 37 36 37 36 35 34 33 31 30 29 28 26 24 21 20 19 19 18 19 19 19 20 21 21 22 23 23 24 26 28 30 32 33 34 35 36 37 37 37 37
39 38 36 35 34 34 33 33 33 32 31 29 28 26 25 23 21 20 20 19 18 18 18 19 20 21 21 21 22 23 24 24 25 27 29 32 32 32 34 36 37 37 37 37
35 34 33 32 32 31 31 31 31 30 29 28 26 24 22 20 19 19 19 18 17 17 18 20 21 21 21 21 22 23 24 25 26 27 29 30 31 31 32 35 36 36 37 37
33 33 32 31 31 30 30 30 30 29 27 25 23 21 20 19 18 19 19 18 17 17 18 20 20 21 20 21 21 22 24 25 26 27 29 30 30 31 31 33 35 36 36 36
32 31 31 31 30 30 29 29 28 27 25 23 21 19 18 18 18 18 18 17 17 17 18 19 20 21 20 21 21 22 23 25 26 27 28 28 29 29 31 32 33 34 36 37
31 30 30 30 30 30 29 28 27 25 23 21 19 18 18 17 17 17 17 16 17 17 16 18 20 21 22 22 22 23 24 25 26 27 28 28 29 29 30 32 33 33 34 36
30 30 30 30 29 28 28 27 25 24 22 21 19 18 17 17 16 15 15 15 16 16 16 17 19 21 21 22 23 23 24 25 26 26 27 28 28 29 30 32 32 32 33 34
30 30 30 29 28 28 26 25 24 23 21 20 18 18 17 16 16 15 14 14 15 15 16 17 19 20 21 22 22 23 24 25 25 26 26 27 28 29 30 31 30 31 33 32
30 30 29 28 27 26 25 24 23 22 20 19 18 18 16 16 15 15 14 14 15 15 16 17 18 19 21 22 22 23 24 24 24 25 26 27 28 29 29 30 30 31 31 31
30 29 28 27 26 25 24 23 22 21 19 18 18 18 17 16 15 15 14 14 15 15 16 16 17 19 20 21 22 22 23 24 24 25 26 27 28 29 30 30 30 30 31 31
29 29 28 27 26 25 23 22 21 20 19 18 18 17 17 16 15 14 13 14 14 15 15 16 17 18 19 20 20 21 22 23 24 25 26 27 29 30 30 30 30 30 30 31
28 28 27 26 25 24 22 21 20 19 19 18 17 16 16 15 14 14 13 13 14 14 15 15 17 19 20 20 20 20 21 22 24 26 27 27 28 29 30 30 30 31 31 31

GEFSNGP_500_meanwind_168.txt.gz
Wind_Speed
38 38 38 39 39 40 41 42 44 44 44 43 43 44 44 43 43 42 41 41 40 39 37 35 33 30 30 28 26 23 24 25 25 27 27 28 30 31 34 37 40 41 41 44
38 38 39 40 39 40 41 42 43 44 44 43 44 45 45 44 43 43 42 40 39 38 37 35 32 29 29 27 24 22 22 23 25 26 27 28 28 30 33 36 38 39 40 43
40 39 41 41 39 40 41 42 43 44 45 45 45 45 45 44 43 43 42 41 40 38 37 34 31 28 27 25 23 22 21 23 24 25 26 27 29 30 32 34 36 38 39 40
43 43 43 42 42 41 42 43 44 45 45 45 45 45 45 45 44 43 42 41 39 38 36 33 30 28 27 25 24 23 21 22 23 24 24 25 27 29 30 32 34 35 36 38
45 46 46 43 43 42 43 43 44 45 45 46 46 44 43 44 44 43 42 41 39 38 35 31 29 27 26 24 24 24 23 22 23 22 23 25 27 30 31 32 31 32 35 37
47 48 48 46 45 44 45 45 44 45 45 45 46 45 42 42 43 42 42 41 39 37 35 31 28 27 26 24 24 24 23 23 23 23 24 26 26 29 32 32 32 33 35 35
47 48 48 47 46 45 46 47 47 46 46 46 46 45 44 43 43 42 42 40 38 37 35 32 29 28 27 25 23 23 23 22 22 23 24 25 26 29 30 31 32 33 34 36
46 48 48 47 47 46 47 47 47 46 46 46 45 45 44 43 43 43 41 40 38 36 34 32 29 28 27 26 25 24 23 23 23 24 25 26 26 28 29 29 30 32 34 35
47 47 47 47 47 47 47 47 46 46 46 46 45 44 44 43 43 42 41 39 37 36 34 30 28 27 26 26 26 25 24 23 23 23 24 25 26 28 29 30 31 32 32 33
47 46 46 47 47 47 47 47 46 45 45 45 45 44 43 42 42 41 40 38 36 35 33 30 28 27 27 26 25 24 23 24 24 24 24 25 26 27 29 30 30 31 31 32
47 46 46 46 46 46 45 45 45 44 44 45 44 43 43 42 42 40 38 36 35 34 32 29 29 28 27 26 25 23 22 23 24 24 24 26 27 28 28 29 31 31 30 29
46 45 46 45 45 45 44 44 44 44 44 44 44 43 43 42 41 40 38 35 34 33 31 29 28 27 26 25 24 22 22 23 24 24 24 25 27 28 28 28 30 30 31 30
45 45 45 45 44 44 44 43 43 43 43 43 43 43 43 42 41 39 37 34 33 32 30 28 26 25 24 23 22 21 21 22 23 23 23 23 25 27 27 28 29 31 32 32
43 44 44 43 43 43 43 42 42 42 42 42 42 42 42 41 39 37 35 32 31 29 27 25 24 23 22 22 21 21 21 21 22 22 22 23 23 24 26 27 29 30 31 33
42 42 42 42 42 42 41 41 40 40 40 40 41 40 39 38 36 34 32 30 28 26 24 23 22 22 21 20 20 21 21 21 21 21 21 22 22 24 25 26 28 30 31 32
40 40 41 40 40 39 39 39 39 38 38 39 38 38 36 35 33 31 30 28 26 24 23 21 20 19 19 19 19 20 21 21 22 22 22 23 23 24 26 27 28 29 31 32
38 38 38 37 37 37 37 37 37 36 36 36 36 35 33 32 31 30 28 27 25 23 21 19 18 17 18 18 18 19 20 21 22 22 23 23 23 24 26 27 28 28 30 31
36 35 35 35 35 35 34 34 34 35 35 35 34 33 31 30 29 28 27 25 23 21 20 18 17 17 17 18 18 18 19 19 21 22 22 23 24 24 26 27 28 28 29 30
34 34 33 33 32 32 32 33 33 34 34 34 33 32 31 29 28 27 25 23 21 19 18 17 16 16 16 17 18 19 19 19 20 21 22 23 25 26 25 26 27 28 29 30
32 32 32 32 32 32 32 32 33 34 33 33 32 31 30 28 27 25 23 21 20 18 17 16 16 16 16 17 18 19 19 20 20 22 22 23 24 25 26 26 27 28 29 29
30 30 31 30 30 30 31 32 33 33 33 32 31 30 28 27 25 23 22 21 20 18 17 16 16 16 16 17 18 19 19 20 21 21 22 22 23 24 25 26 26 28 29 28
30 30 30 29 30 31 32 33 33 33 31 30 29 28 27 26 24 23 21 20 19 17 16 16 16 16 16 16 17 18 19 20 20 20 20 21 22 23 24 25 26 26 27 28
29 29 30 30 31 32 33 33 33 32 30 29 28 27 26 25 23 22 20 19 18 16 15 16 16 16 16 16 17 17 18 19 20 20 20 21 22 23 23 24 25 25 25 27
29 30 31 31 32 33 33 32 32 30 29 28 27 26 25 23 22 20 19 18 17 16 15 15 16 16 17 17 17 17 18 19 20 20 20 21 22 22 23 23 24 24 25 25
30 31 31 32 32 33 32 31 30 29 28 27 26 25 24 22 21 19 18 17 16 16 15 15 15 15 16 17 18 19 20 20 20 20 20 21 22 22 22 23 24 24 24 25
30 31 32 32 32 31 30 29 28 27 27 26 25 24 23 21 20 19 18 16 15 15 15 14 14 15 15 16 18 19 20 21 21 20 21 21 22 23 22 22 23 23 24 24
30 31 31 31 31 30 29 28 27 26 26 25 24 23 22 21 19 18 17 16 15 15 14 14 14 14 15 17 18 19 20 21 21 21 21 21 22 23 22 22 22 22 23 23

GEFSNGP_500_meanwind_174.txt.gz
Wind_Speed
34 35 35 35 35 36 37 38 38 38 38 39 40 41 41 41 41 41 41 42 43 43 43 42 41 39 38 37 33 32 31 31 31 30 30 30 30 30 30 31 32 33 34 36
35 35 36 36 36 37 38 38 38 39 39 40 41 42 41 41 41 42 42 42 42 43 42 42 40 38 37 36 33 31 31 31 30 29 28 28 28 28 30 31 30 31 32 33
37 37 38 38 36 37 37 38 39 40 40 41 42 41 42 42 43 43 43 42 42 43 42 41 41 38 37 36 33 32 32 30 29 28 27 25 25 26 27 29 29 29 30 33
39 38 39 38 37 37 38 38 40 40 41 43 43 42 43 44 44 43 43 43 43 43 41 41 40 38 36 35 33 32 31 29 27 26 24 23 24 25 26 26 27 28 29 29
39 40 40 38 38 38 39 39 40 42 43 44 43 42 43 43 43 43 43 43 43 42 42 41 39 37 35 34 33 31 28 26 25 24 23 22 22 22 23 25 25 27 28 29
40 42 41 39 38 39 41 41 41 43 44 45 44 44 43 43 42 42 42 43 43 42 41 40 38 37 36 33 31 29 27 25 24 23 22 21 21 21 22 23 25 26 28 29
41 42 42 40 40 41 42 43 44 45 45 45 45 45 44 44 43 43 43 42 42 41 40 39 38 37 35 31 28 27 26 26 25 24 22 21 21 21 21 22 24 25 26 28
41 43 42 42 42 43 43 44 45 45 45 45 45 44 44 44 43 42 42 41 41 40 39 38 37 36 33 30 28 27 26 25 24 24 24 23 22 21 21 21 22 24 25 27
43 43 43 43 44 44 45 44 45 45 45 45 45 44 44 43 43 42 41 40 39 39 39 37 36 35 32 31 29 27 26 25 24 23 24 23 22 22 21 21 23 24 25 26
44 44 44 44 44 44 44 44 45 45 45 45 44 44 44 43 42 41 40 39 39 39 39 37 36 34 32 31 28 26 25 24 23 22 22 21 21 20 20 20 21 22 24 26
44 43 44 43 43 43 44 44 44 45 45 45 44 44 44 43 42 41 40 39 39 39 38 36 34 32 31 29 27 25 24 23 22 20 20 20 20 20 19 19 19 21 23 26
44 44 45 44 43 43 44 43 44 45 45 44 44 43 42 42 41 39 39 38 38 38 36 34 33 31 30 28 27 25 23 22 21 19 19 18 18 19 19 18 18 20 23 25
45 45 45 44 43 43 44 44 44 44 44 43 42 42 42 41 40 38 37 36 36 35 34 33 31 30 29 27 25 23 21 20 18 17 17 17 17 19 20 20 20 21 22 24
44 45 44 43 43 43 43 43 43 43 43 42 41 40 40 39 37 36 35 34 34 33 32 30 29 29 27 24 22 20 18 16 15 15 15 16 17 18 19 20 20 21 23 24
43 44 43 42 42 42 42 42 42 41 40 39 38 37 37 36 34 33 32 32 31 31 30 29 28 27 26 23 21 19 17 15 14 13 14 15 17 18 19 21 21 21 23 23
41 41 41 40 40 39 39 39 38 37 36 36 35 35 35 34 32 31 31 30 29 29 29 28 26 25 24 21 18 16 15 14 13 13 14 15 17 18 19 20 21 21 22 24
37 37 37 37 36 36 35 35 35 34 34 34 33 33 32 31 31 30 29 29 29 28 28 26 24 23 21 19 16 14 13 13 13 13 14 15 17 18 20 20 20 21 22 24
33 32 32 32 32 31 32 32 33 33 32 32 31 30 30 30 30 30 29 28 28 27 25 23 22 20 18 16 14 12 12 12 13 13 14 15 17 18 20 20 20 21 23 24
28 28 28 29 29 29 29 30 30 30 30 30 30 29 29 29 29 29 28 28 26 24 23 21 19 17 15 14 13 12 12 12 13 14 15 17 18 19 20 20 21 21 23 25
25 25 25 26 26 27 28 29 29 29 29 29 27 27 28 28 29 28 27 26 25 23 20 18 16 15 14 13 13 12 12 12 14 15 16 17 17 18 19 20 21 21 23 25
24 24 25 25 26 27 27 27 27 27 27 27 26 26 26 27 28 28 26 24 23 21 18 16 15 14 14 13 13 12 12 13 14 15 16 16 16 17 18 19 20 21 22 24
23 24 24 25 25 25 26 26 26 26 26 26 26 26 27 27 28 27 25 23 21 19 17 16 14 14 13 13 13 13 13 13 14 15 16 16 16 16 17 19 20 21 23 25
23 24 24 24 24 25 25 26 26 26 26 27 27 27 28 28 27 25 24 23 21 19 17 15 14 13 12 12 13 13 13 14 15 16 16 16 16 17 18 19 20 21 23 25
23 23 24 24 24 25 25 26 27 27 27 27 28 28 28 27 26 24 23 21 20 18 16 14 14 13 12 12 13 14 14 15 15 16 16 16 17 17 18 19 19 21 22 24
23 24 24 25 25 25 26 27 27 28 28 29 29 28 27 25 24 22 21 20 18 16 15 14 13 13 12 12 13 14 15 15 16 16 16 17 17 18 18 18 19 21 22 23
23 24 24 24 25 26 27 28 28 28 29 29 27 26 25 24 22 20 19 18 16 15 14 13 13 12 12 12 13 14 15 15 16 16 16 17 18 18 18 19 20 21 23 23
23 23 24 25 26 26 27 27 28 27 27 26 25 24 23 22 21 19 17 15 14 13 12 12 12 12 12 12 12 13 15 16 16 16 16 17 17 18 19 19 21 22 23 24

GEFSNGP_500_meanwind_180.txt.gz
Wind_Speed
40 40 40 40 38 38 38 38 40 38 37 36 37 38 39 40 40 40 40 41 42 43 44 45 46 46 46 46 46 47 47 46 44 42 41 40 40 39 39 38 38 37 36 35
41 40 40 40 39 39 39 39 39 39 37 36 37 39 39 39 39 39 40 41 43 44 45 46 47 46 45 46 46 47 46 44 42 40 39 38 37 37 37 36 35 34 33 33
41 40 41 41 38 38 38 38 39 39 37 37 38 39 39 40 40 40 41 43 43 45 45 46 46 45 45 46 47 46 45 42 40 38 37 35 34 34 34 33 32 31 30 29
42 41 43 39 37 37 38 37 38 38 38 39 39 39 40 40 41 41 42 43 43 44 45 46 45 45 46 45 46 45 43 40 38 36 34 33 33 32 31 30 28 28 26 27
43 43 43 39 38 38 39 38 37 38 38 39 39 39 39 39 40 41 42 43 43 44 45 45 45 45 45 45 44 44 41 38 35 34 32 31 30 29 29 27 25 24 24 24
44 45 44 40 38 39 40 40 38 38 39 40 41 41 40 40 41 42 43 44 44 44 45 45 45 44 44 43 42 41 39 36 34 32 31 30 29 28 27 25 23 22 21 20
44 44 44 41 40 40 40 40 39 40 40 40 41 42 43 43 42 43 43 44 45 45 44 44 44 44 42 41 40 38 37 34 32 31 30 28 28 27 25 24 22 21 20 20
44 45 43 40 40 40 41 41 41 41 41 41 42 42 43 43 43 43 44 44 45 44 43 43 43 42 41 40 38 35 34 32 31 29 28 28 26 24 23 22 22 20 18 18
42 42 41 40 40 40 41 41 41 41 41 42 42 43 43 43 43 43 44 44 43 42 41 41 42 41 39 37 36 34 33 31 29 27 26 26 24 22 21 21 20 19 18 16
40 40 39 40 40 40 41 41 41 41 42 42 43 43 43 43 43 43 43 42 41 40 40 40 40 39 37 36 35 33 32 31 30 27 25 24 23 21 20 19 18 17 16 14
39 38 38 39 40 40 41 41 41 42 43 43 43 43 43 43 42 41 41 41 40 40 40 40 39 38 36 36 35 34 33 32 30 27 26 24 22 21 20 19 18 16 14 12
39 38 40 40 40 40 41 42 43 43 43 43 44 44 43 42 42 41 40 40 40 40 40 39 38 37 36 36 36 35 33 31 29 27 25 23 21 19 17 16 14 13 12 11
40 41 41 41 41 41 42 43 43 44 43 43 43 43 43 42 41 40 39 39 39 39 38 38 37 36 35 35 34 32 31 29 27 25 22 20 17 15 14 13 12 11 11 11
40 41 42 42 43 43 44 44 44 44 43 43 43 42 42 41 40 39 39 38 38 38 37 35 35 34 33 32 30 29 28 27 25 20 17 15 14 13 12 11 11 11 12 12
38 40 41 41 41 42 42 42 42 41 41 42 41 41 40 39 38 38 37 37 36 35 34 33 33 32 31 30 28 26 25 24 21 17 15 13 12 12 12 11 10 10 12 13
37 37 38 38 38 38 38 38 38 38 38 38 37 37 37 36 36 35 34 34 34 33 32 32 31 29 28 27 26 24 23 21 19 16 14 13 12 11 11 10 10 10 11 12
35 35 34 34 34 35 35 35 35 35 35 35 35 35 35 35 34 33 33 32 32 31 30 29 27 26 26 25 24 22 21 19 17 15 14 13 12 11 11 10 10 10 10 11
31 31 32 32 31 32 32 32 32 33 33 33 33 33 33 33 32 31 31 31 29 28 28 27 26 25 25 24 22 21 19 17 16 14 13 13 12 11 10 9 9 10 10 12
28 28 29 29 29 29 29 29 29 30 30 31 31 31 31 30 29 29 28 28 26 26 26 25 24 24 23 23 22 20 18 16 14 13 12 12 11 11 10 10 10 10 11 12
27 27 27 27 27 27 27 27 27 28 28 29 29 29 28 28 28 27 26 26 25 25 24 23 22 22 22 21 20 18 16 14 13 12 11 11 10 10 10 10 10 11 11 12
25 25 25 25 24 25 25 26 26 27 27 28 27 27 26 26 26 26 25 24 24 24 23 22 21 21 21 19 17 15 14 12 11 11 10 9 10 10 11 11 11 11 12 13
22 22 23 23 23 24 25 25 26 26 26 26 26 25 25 25 24 24 23 23 23 23 22 21 20 20 19 17 15 13 12 11 10 9 9 9 9 10 11 12 12 12 12 14
22 22 22 23 24 24 24 25 25 25 25 25 25 25 24 24 23 22 22 22 22 22 21 20 19 19 17 15 13 12 11 10 9 9 8 8 8 10 11 12 12 12 12 13
21 22 22 23 23 24 24 24 24 24 24 24 25 25 25 24 23 23 22 22 22 22 21 19 19 18 16 14 13 12 11 10 9 8 8 8 8 9 10 11 11 12 12 14
22 23 23 23 24 24 24 24 24 25 24 24 24 25 25 24 23 23 23 23 22 21 20 19 18 17 15 13 12 12 10 10 9 8 8 8 8 9 10 11 11 12 13 15
23 23 24 24 24 24 24 24 24 24 24 24 25 25 24 24 23 23 23 22 21 20 20 19 17 15 14 13 12 11 11 10 9 9 8 8 9 10 10 11 12 13 14 15
22 23 23 23 23 23 24 24 24 24 24 25 24 24 23 22 22 22 21 20 19 19 18 17 15 14 12 12 11 11 10 10 10 9 10 10 10 11 11 12 13 14 15 16

GEFSNGP_500_meanwind_186.txt.gz
Wind_Speed
38 38 37 36 35 35 36 36 37 35 34 33 34 35 35 36 36 36 36 36 37 38 39 39 40 41 42 42 43 44 43 43 42 42 42 42 42 42 43 43 43 43 42 42
39 38 39 39 37 36 36 36 36 35 34 32 34 35 35 35 36 36 36 36 37 38 39 40 41 41 42 42 42 42 42 42 41 41 42 42 42 42 43 42 42 42 41 40
40 38 40 39 35 35 36 35 35 35 33 33 34 35 36 36 36 37 37 37 37 38 39 39 40 41 42 42 42 42 42 41 41 41 42 42 42 43 42 41 41 40 39 38
39 39 42 38 35 35 36 35 35 35 34 35 35 35 35 36 37 37 37 38 38 38 38 39 40 41 41 42 42 42 41 40 41 41 41 42 41 41 40 39 39 38 37 36
39 40 41 37 35 35 36 36 35 35 34 35 35 35 34 35 36 37 38 38 38 39 38 39 40 40 40 41 41 41 40 40 40 41 41 40 40 39 38 37 36 35 33 32
40 41 40 36 35 36 37 37 34 35 34 34 35 35 33 34 36 37 38 38 38 38 38 38 39 39 40 40 39 39 38 39 39 40 39 39 38 37 35 34 33 32 32 30
40 40 39 36 35 36 37 36 35 35 34 34 34 34 34 35 36 37 37 37 38 38 38 38 39 38 38 38 37 37 37 37 38 38 37 37 36 35 33 33 31 30 29 26
39 40 38 35 36 36 36 35 35 35 34 34 34 34 35 35 36 36 36 37 37 37 37 38 38 37 37 36 36 35 36 36 36 35 35 34 34 32 32 31 29 27 25 23
37 38 36 36 36 36 36 35 34 34 34 34 34 35 35 35 35 36 36 36 36 36 36 37 36 36 36 35 34 34 34 34 33 32 32 31 31 30 30 29 26 24 22 21
37 36 36 36 36 35 35 36 35 34 33 34 35 35 35 35 36 36 36 36 36 36 36 36 36 36 35 34 34 33 33 32 32 31 31 30 29 29 28 26 24 22 21 19
36 35 36 36 36 36 37 37 36 35 35 35 36 36 36 36 37 37 37 36 36 36 36 35 35 35 34 33 33 32 31 31 30 30 29 29 28 27 25 24 23 22 19 17
33 32 33 34 35 36 37 37 36 36 36 36 36 36 36 37 37 37 37 36 36 36 35 34 34 33 33 33 32 32 30 30 29 29 29 29 28 25 24 23 22 20 18 16
32 32 32 32 33 35 36 37 36 36 35 35 36 37 37 37 37 36 36 36 35 34 33 32 32 32 32 31 31 30 29 30 30 30 29 28 25 23 22 21 20 19 16 15
32 32 32 32 31 32 33 34 35 35 35 36 37 37 37 36 36 36 36 35 34 32 32 32 31 31 30 30 30 30 30 30 29 28 26 24 23 22 21 20 18 17 15 13
29 31 31 31 31 31 32 33 34 35 35 35 36 36 36 35 35 35 35 33 32 31 31 30 29 29 28 29 29 30 29 28 26 25 23 23 22 21 20 19 16 14 13 11
27 28 29 29 29 30 31 33 33 33 34 34 33 33 33 33 33 32 32 31 30 30 30 29 28 28 28 28 28 27 26 24 23 22 21 21 21 20 18 16 14 12 11 11
25 25 27 28 29 30 30 31 31 31 31 31 31 31 31 30 30 29 29 29 29 29 28 28 28 28 27 27 26 25 24 22 21 20 20 20 19 17 15 13 11 10 10 10
24 25 26 26 27 28 29 30 30 29 28 27 27 27 27 26 26 26 27 27 27 27 27 27 26 25 25 24 23 23 22 21 20 20 19 18 17 15 12 11 10 9 8 9
24 24 24 24 25 25 26 26 27 26 26 25 25 24 24 24 25 26 26 26 26 26 25 25 24 23 23 23 22 21 20 20 19 19 17 16 14 13 10 9 8 8 8 8
23 23 22 22 22 23 23 23 24 24 24 24 24 24 24 24 25 25 25 25 25 24 23 23 22 22 22 21 20 20 20 19 18 16 14 13 11 9 8 7 7 7 7 7
21 21 21 21 21 21 22 22 22 23 23 23 23 23 23 23 23 23 22 22 23 23 22 22 21 21 20 19 19 19 19 18 15 13 12 11 10 9 8 7 7 6 7 7
20 20 20 20 19 19 20 20 21 22 22 22 22 21 21 21 21 20 21 21 21 21 21 21 21 20 20 20 19 18 17 16 14 13 12 11 10 9 8 8 7 7 7 7
17 18 18 18 19 19 19 19 19 20 20 20 20 20 20 20 20 20 21 21 20 20 21 20 21 21 20 20 18 17 16 15 14 13 12 11 10 9 8 8 7 7 8 9
18 18 19 19 19 19 19 18 18 19 19 20 20 20 20 20 21 21 21 20 20 20 20 20 20 20 19 18 17 16 15 14 13 12 12 11 10 9 8 7 7 8 10 10
19 19 19 19 19 19 19 19 19 19 19 20 20 20 20 20 21 21 21 21 20 20 20 20 20 19 17 16 15 14 14 13 12 11 11 11 10 9 8 8 8 9 10 10
19 20 20 20 20 19 19 19 19 19 19 19 20 20 21 21 20 20 21 21 21 21 21 19 18 17 16 14 14 13 12 12 11 10 9 9 9 8 7 7 8 9 10 11
19 20 20 20 20 19 19 18 18 18 18 19 19 20 20 19 19 19 19 19 20 19 18 17 16 15 14 13 13 12 11 10 10 9 8 8 8 8 7 8 8 9 10 11

GEFSNGP_500_meanwind_192.txt.gz
Wind_Speed
40 40 39 39 38 38 38 38 38 36 35 33 33 34 34 35 35 35 35 35 36 36 37 38 39 39 39 40 41 42 41 40 40 40 42 42 43 44 44 44 44 45 45 45
41 41 41 41 39 38 38 38 37 37 35 33 34 35 35 35 36 36 36 36 37 37 38 38 39 39 39 40 41 41 40 39 39 39 40 40 41 43 43 43 42 43 44 45
42 41 42 42 39 39 39 38 38 38 35 34 35 35 35 35 36 36 36 37 38 38 38 38 38 38 38 39 40 39 38 38 38 38 38 39 40 41 41 41 41 42 42 43
42 41 42 39 39 39 39 38 38 38 37 37 37 36 36 37 37 37 37 38 38 38 38 38 38 38 38 39 39 39 38 37 38 38 38 39 39 40 40 40 40 41 41 42
40 41 41 39 38 38 39 39 38 38 38 38 38 37 37 37 38 38 38 38 38 38 38 38 39 39 38 38 38 38 38 38 38 38 38 38 39 40 39 40 40 40 40 40
38 40 40 37 36 37 38 39 38 38 38 38 37 37 36 36 37 37 37 38 38 37 37 38 38 38 38 38 38 38 37 37 38 38 38 38 38 39 38 38 37 37 37 37
37 39 39 37 36 35 36 36 36 37 38 38 38 37 37 37 37 37 37 37 37 38 38 37 38 38 38 38 38 38 37 37 37 37 37 36 37 37 37 37 36 35 35 36
35 37 36 36 36 36 35 34 35 36 36 37 37 37 37 38 38 37 37 37 37 38 37 37 37 37 37 38 38 37 36 36 35 35 35 36 36 36 36 36 34 34 34 34
34 33 33 34 36 36 36 36 36 35 35 36 36 37 37 37 37 37 37 37 37 37 36 36 36 37 37 37 37 35 34 34 34 33 34 34 35 34 34 34 34 33 33 33
32 32 31 32 33 34 35 35 35 35 34 35 34 35 35 35 35 36 36 35 35 35 35 35 36 36 36 35 35 34 34 34 33 32 32 33 33 33 33 33 33 33 33 32
30 30 30 31 32 33 34 34 34 34 34 34 35 35 34 34 34 34 34 33 33 33 34 34 35 36 36 35 35 34 33 33 32 32 31 32 32 32 33 33 32 31 31 30
28 28 29 30 31 31 32 32 33 33 33 32 33 34 33 34 34 34 34 33 33 34 34 35 35 36 36 35 35 33 32 31 31 31 30 30 31 31 32 32 31 31 30 28
28 28 28 29 30 30 31 31 32 33 33 32 32 33 33 33 33 33 33 34 34 35 35 35 35 35 34 34 32 31 31 30 29 29 29 29 29 29 29 29 29 28 27 26
27 27 26 27 28 29 30 31 31 32 32 32 32 32 32 32 32 32 32 33 33 33 34 34 33 33 33 31 30 29 28 28 27 27 27 28 28 28 28 28 28 27 26 25
27 26 26 26 26 27 28 29 29 30 31 31 32 31 31 31 30 31 32 32 32 32 32 32 31 31 30 28 27 26 26 26 25 26 27 27 27 27 28 27 27 25 23 23
27 27 27 26 26 26 27 27 28 29 29 30 30 29 29 30 30 31 31 32 31 31 30 30 29 27 26 25 24 23 24 24 25 26 26 26 26 27 27 26 25 23 22 21
25 25 25 25 25 26 26 27 27 28 28 28 28 28 28 28 28 29 30 30 30 29 28 27 26 24 23 22 23 23 24 24 25 25 26 26 25 25 25 24 23 23 21 20
24 24 24 24 24 24 25 25 26 26 26 26 27 27 27 27 27 27 27 27 26 26 25 24 23 22 22 22 23 24 25 25 25 26 25 25 24 23 23 22 21 21 19 16
23 23 23 23 23 23 23 24 25 25 25 26 26 26 26 26 26 25 24 24 24 24 23 22 22 22 22 22 23 24 24 24 24 24 24 23 22 21 20 20 19 18 15 12
22 23 23 23 23 22 22 23 24 25 25 25 25 25 25 24 24 23 23 23 22 22 22 22 22 22 22 23 22 22 22 22 22 22 22 21 20 19 18 17 16 14 12 10
23 22 23 23 22 22 22 23 23 23 24 23 23 22 22 22 22 22 22 22 22 22 22 21 21 21 21 20 20 20 20 21 21 20 20 19 18 16 15 14 13 12 11 9
22 21 21 22 21 21 22 21 22 22 22 22 21 21 21 21 21 22 22 22 21 21 21 20 20 20 20 19 19 19 19 19 19 19 19 18 16 14 13 13 12 11 10 9
21 21 21 21 22 21 21 20 20 21 21 21 20 20 20 20 21 21 21 20 20 20 20 19 20 20 19 18 19 19 19 19 18 18 17 16 14 13 12 11 11 11 10 8
21 21 21 21 21 21 20 20 19 19 19 20 20 20 19 19 20 20 20 20 19 19 19 19 19 19 19 18 18 18 18 18 17 16 15 14 13 12 11 11 11 10 9 8
20 19 19 19 20 20 20 19 19 19 19 19 19 19 19 19 19 19 19 19 18 18 18 18 18 18 18 18 18 18 18 18 17 15 14 13 12 11 11 10 10 10 9 9
18 17 18 18 18 18 18 18 18 18 17 17 17 18 19 19 19 19 19 18 18 18 18 17 17 18 18 18 17 17 17 16 15 14 14 13 12 11 11 11 10 10 9 8
17 17 17 17 17 17 17 16 16 16 16 16 16 17 17 18 18 18 18 18 18 17 17 17 17 17 16 16 16 15 14 13 13 13 13 13 12 12 11 10 10 10 9 8

GEFSNGP_500_meanwind_198.txt.gz
Wind_Speed
36 35 36 36 36 37 37 37 37 35 34 33 33 33 32 32 32 32 31 32 32 32 31 32 33 34 35 36 37 38 39 40 40 40 40 40 40 40 41 41 42 42 43 44
37 36 36 37 37 37 37 37 36 36 35 33 33 34 34 33 33 32 31 31 32 32 32 33 34 34 35 36 37 38 39 39 39 39 39 39 39 40 40 41 41 42 42 43
37 37 37 38 37 37 37 36 36 35 33 33 33 33 33 33 33 33 32 32 33 33 33 34 34 34 35 36 37 37 37 37 38 38 39 39 39 39 40 40 40 41 41 41
34 35 37 37 36 36 36 36 35 34 33 33 33 33 33 32 33 32 33 33 33 34 34 34 35 35 35 36 36 36 36 36 37 38 38 38 38 38 39 39 39 39 39 39
33 34 35 35 34 34 35 35 35 35 35 34 34 34 33 33 32 32 32 33 34 34 34 35 36 36 36 35 35 35 36 36 37 37 37 37 37 37 37 37 37 37 37 36
31 33 34 33 33 33 34 34 34 35 35 36 35 35 33 33 33 33 33 33 33 33 34 35 35 35 35 34 34 34 34 35 35 36 36 36 36 36 36 36 35 35 34 34
28 29 30 30 30 32 33 33 33 33 33 35 35 35 34 34 34 33 33 33 32 32 33 34 35 35 34 34 34 34 35 35 35 35 35 35 35 34 34 34 34 33 33 33
27 28 27 28 29 30 31 32 32 32 31 32 33 34 34 34 34 34 33 33 33 33 33 34 34 34 34 34 34 34 34 34 34 34 35 34 34 34 34 34 32 32 32 32
26 26 26 27 28 29 29 29 30 31 30 30 30 31 32 32 33 33 33 33 33 33 34 34 34 33 34 34 34 34 34 33 33 33 33 32 33 33 33 32 31 30 30 28
24 24 25 26 26 27 27 28 28 29 28 28 28 28 29 30 30 31 32 33 33 33 34 33 33 33 33 34 34 33 33 33 33 32 31 31 31 30 30 29 28 28 27 28
23 24 25 25 25 25 26 27 27 27 28 28 28 28 28 29 29 30 31 32 32 33 33 32 32 32 32 32 33 33 33 33 33 32 31 30 29 28 28 27 27 27 27 27
23 24 25 24 24 24 25 25 26 26 27 28 28 27 28 28 28 28 29 30 30 31 31 31 31 30 30 30 31 31 31 31 30 29 29 28 27 26 26 26 26 26 26 26
23 24 25 25 25 25 25 25 25 26 26 26 27 27 26 26 27 27 27 28 28 28 28 29 29 29 29 29 29 29 29 28 27 26 26 25 25 24 25 25 25 25 25 25
23 23 23 24 24 24 24 24 24 25 25 25 25 26 26 25 25 26 26 26 26 26 26 26 27 27 27 26 26 26 25 25 24 24 23 22 22 23 23 23 23 24 24 24
22 22 22 22 23 23 23 23 23 23 24 24 24 24 24 24 24 24 24 25 24 24 24 24 24 25 25 24 24 24 23 22 22 21 21 20 21 21 21 22 22 23 23 24
22 22 22 23 22 21 21 22 22 21 22 22 23 23 23 23 23 23 23 24 24 24 24 24 24 24 24 24 23 22 22 21 20 20 20 20 20 20 21 21 22 22 22 23
20 20 21 22 21 21 21 21 21 21 22 22 22 22 22 22 23 23 22 23 23 23 23 23 23 23 23 23 22 21 21 20 19 19 19 20 20 21 22 22 22 22 22 22
19 19 19 20 20 21 21 21 21 21 21 21 21 21 22 22 22 21 21 22 21 22 23 22 22 21 20 20 20 20 19 19 19 19 20 20 21 21 21 22 22 22 22 23
19 19 19 19 20 20 20 20 20 21 21 21 21 21 21 22 22 21 22 22 21 21 22 22 21 20 19 19 19 19 19 19 19 20 20 21 21 22 21 22 22 22 22 22
19 19 19 19 19 19 19 19 20 20 21 21 21 21 21 21 21 21 22 22 21 21 20 20 19 19 19 19 19 19 19 19 19 20 20 21 21 21 22 22 22 21 21 20
18 19 19 20 20 19 19 19 19 20 20 20 20 20 20 20 20 20 20 20 19 19 18 18 18 18 18 18 18 18 18 19 19 20 21 21 22 22 22 22 21 21 20 19
18 18 18 19 19 19 19 19 19 20 19 19 19 19 19 19 19 19 18 18 17 17 17 17 17 17 16 17 17 18 18 19 19 20 21 21 22 22 21 21 20 19 18 17
17 17 18 18 19 19 20 20 19 19 19 19 19 19 20 19 19 18 17 17 17 16 16 16 16 16 16 17 17 17 17 18 18 19 19 20 20 20 19 18 17 17 16 15
16 16 17 18 19 19 20 19 19 19 19 19 19 19 19 19 19 18 18 17 17 17 16 16 16 17 17 17 17 17 17 18 18 18 18 18 18 18 17 16 16 15 14 13
16 16 16 17 18 18 19 19 19 19 19 18 18 19 19 19 19 18 18 17 17 17 16 16 16 17 17 17 17 17 17 18 18 18 18 18 17 16 15 15 13 12 12 12
16 16 16 17 17 18 18 18 17 17 17 17 17 17 18 18 18 17 17 17 17 17 17 16 16 16 16 16 16 16 17 17 17 16 16 16 15 15 13 12 11 10 10 9
16 16 16 16 16 16 16 16 16 16 17 17 17 17 16 16 17 17 16 16 16 16 16 16 16 16 16 15 15 15 15 15 15 15 15 15 15 14 13 12 10 9 8 7

GEFSNGP_500_meanwind_204.txt.gz
Wind_Speed
34 34 35 36 35 36 37 37 37 36 36 36 35 34 33 33 32 33 33 33 32 32 33 33 34 34 35 36 37 37 38 39 39 39 40 40 40 41 41 42 43 44 44 44
34 34 35 36 36 36 37 36 36 36 35 35 36 35 35 34 33 33 33 33 33 33 33 33 33 34 35 36 36 37 37 38 38 39 39 40 40 41 42 43 44 44 44 43
32 33 34 35 34 35 36 35 35 35 34 34 35 35 35 35 34 33 33 33 32 33 33 33 33 34 35 35 36 37 37 38 38 38 38 39 40 40 41 42 43 43 42 42
31 32 34 32 33 34 35 36 36 35 35 35 36 35 35 35 35 34 33 32 32 33 33 33 33 33 34 34 35 36 36 37 37 38 38 39 39 40 40 41 41 41 41 41
30 31 32 32 32 32 33 34 36 36 35 35 35 35 35 35 35 35 34 34 33 33 33 33 33 33 33 34 35 35 36 36 36 37 37 38 38 38 39 39 39 39 40 40
28 29 30 30 31 32 32 33 34 36 35 35 35 35 34 35 36 35 35 34 34 33 33 33 32 33 33 33 34 35 35 35 36 36 36 36 36 37 38 39 39 38 38 38
26 27 28 29 29 30 32 31 32 34 34 34 35 34 33 34 34 34 34 34 34 33 33 33 33 33 33 33 33 33 33 34 35 35 36 36 36 36 37 36 36 36 36 36
25 25 26 26 27 27 28 29 30 31 32 33 33 33 32 32 33 33 33 33 33 33 33 33 32 32 32 32 32 32 32 33 33 34 34 35 35 35 35 35 34 34 34 34
23 24 24 24 25 26 26 27 28 29 29 31 31 32 32 32 32 33 33 32 32 32 32 32 32 32 32 32 31 31 32 32 33 33 33 33 34 34 34 34 33 33 33 32
23 22 23 24 24 25 25 25 26 27 28 28 28 30 31 31 31 32 33 33 33 33 32 33 33 33 32 32 32 32 31 31 32 32 32 33 33 33 33 32 31 31 30 28
24 23 24 24 24 24 25 25 26 26 26 26 27 28 29 30 30 31 32 32 33 33 33 32 32 32 32 32 31 31 31 31 31 31 32 32 32 31 30 30 29 28 27 27
23 24 24 24 24 24 24 24 25 25 25 26 26 26 27 28 29 29 29 30 30 31 32 32 32 32 31 31 31 31 30 31 31 31 31 31 30 29 29 28 28 27 26 26
23 23 23 23 24 24 23 23 23 24 24 24 24 25 26 26 27 27 27 28 28 29 30 30 30 30 30 30 30 29 30 30 30 30 29 29 28 27 27 26 26 26 26 26
22 22 23 23 24 24 24 23 23 23 24 24 24 25 25 26 26 27 27 27 27 27 28 28 28 28 28 28 28 28 28 28 28 28 28 27 26 26 25 25 24 24 25 26
21 22 22 23 24 25 24 24 23 23 23 23 24 24 24 25 25 26 26 25 25 25 25 26 26 27 27 26 26 26 26 26 26 26 26 25 24 24 24 23 23 23 23 23
20 21 22 22 22 23 23 24 23 23 22 22 22 22 22 22 23 23 24 24 24 24 24 24 25 24 24 24 24 24 24 24 24 24 23 23 22 22 22 22 21 21 21 22
19 20 21 21 21 22 22 24 24 24 23 22 22 21 21 21 21 21 21 22 22 23 23 23 22 22 22 22 22 23 23 23 22 22 21 21 21 21 21 21 21 21 22 23
19 19 20 20 21 21 21 22 23 23 23 23 23 22 21 20 20 20 20 20 20 21 21 21 21 21 21 21 21 21 21 21 20 20 20 20 20 20 20 20 21 21 22 24
19 20 19 19 19 19 20 20 21 22 22 22 22 21 21 20 20 19 19 19 19 20 20 20 20 20 20 21 21 20 20 19 19 19 19 20 20 20 20 21 22 22 23 24
20 20 20 20 19 19 19 20 20 21 21 21 21 21 20 20 20 20 20 19 20 19 19 20 20 20 21 21 21 20 20 19 19 19 20 20 20 20 21 22 22 22 23 24
20 20 20 19 19 19 19 19 20 20 20 20 20 20 20 20 20 19 20 19 19 19 18 18 19 19 20 20 20 20 20 20 21 20 20 20 21 21 22 22 22 22 22 23
20 20 20 19 19 19 19 19 19 19 20 20 19 19 20 20 20 19 19 19 19 19 18 18 18 18 19 19 19 19 20 20 20 21 21 20 20 21 21 21 21 22 22 22
19 19 19 19 19 19 19 18 18 18 19 19 19 19 19 19 19 19 19 19 19 19 19 19 19 19 19 19 19 19 19 19 19 20 20 20 20 20 21 21 21 21 22 22
20 20 20 20 20 20 19 19 19 19 19 19 18 18 18 18 18 18 18 18 18 18 18 18 18 18 19 19 18 18 18 19 19 20 20 20 21 21 21 21 21 21 21 21
19 19 19 19 19 19 19 19 19 19 19 19 19 18 18 18 18 18 18 18 18 17 17 18 17 17 17 17 18 18 18 19 19 20 20 20 20 20 20 20 20 19 19 18
18 18 18 18 18 18 18 18 19 19 19 19 19 19 18 17 17 17 18 18 17 17 17 18 18 18 18 18 18 18 18 19 19 20 20 19 19 19 19 19 18 18 17 15
17 17 17 18 18 18 17 18 18 18 18 18 18 18 18 18 18 18 18 17 17 18 18 18 18 18 18 18 18 18 18 19 19 18 18 17 17 17 17 16 16 15 14 13

GEFSNGP_500_meanwind_210.txt.gz
Wind_Speed
30 30 30 31 32 34 35 36 36 33 33 32 33 32 32 32 32 32 32 32 33 32 32 32 33 33 33 32 33 34 34 35 35 36 36 37 37 38 38 38 39 39 40 40
28 28 30 31 31 32 34 35 35 34 33 32 32 32 32 32 32 32 32 31 32 32 32 32 32 32 32 32 33 34 35 35 35 35 35 36 36 36 37 37 37 38 39 40
26 27 28 29 29 31 33 35 35 34 32 32 32 32 32 32 32 32 32 32 31 32 32 32 31 31 31 32 32 33 34 35 35 34 35 35 35 35 36 36 37 38 39 41
25 26 27 27 27 28 30 32 34 34 33 32 32 32 32 32 31 31 32 32 33 32 32 31 31 31 31 31 32 32 33 34 34 34 34 35 35 35 35 37 38 38 39 41
25 25 26 27 26 26 28 30 32 32 32 32 32 32 32 33 32 31 32 33 34 33 32 32 31 30 30 31 31 31 32 33 33 34 34 34 34 35 35 36 37 38 40 41
26 26 26 25 25 25 27 28 29 31 31 31 32 32 31 33 33 32 32 34 35 34 33 32 32 31 30 31 31 31 31 32 33 34 34 34 35 35 35 36 37 38 39 40
26 27 26 25 25 26 27 27 27 29 30 30 31 31 32 33 33 33 33 33 34 34 34 33 32 32 32 31 31 31 32 32 33 34 34 35 35 36 36 37 38 38 39 38
25 25 24 24 25 26 26 27 27 28 29 30 31 31 32 32 33 33 33 33 33 34 34 34 33 33 33 33 32 32 32 33 33 33 34 35 35 36 36 36 37 37 36 36
22 22 21 23 24 24 25 26 26 27 28 29 30 31 31 31 32 33 33 33 33 33 33 34 34 33 33 33 33 33 33 33 32 33 33 33 34 35 35 35 35 35 35 34
21 22 23 23 24 23 23 24 25 25 26 27 28 28 28 29 30 31 32 32 32 32 33 33 33 33 33 33 33 33 33 33 33 32 32 33 33 34 33 33 33 32 32 31
21 21 22 23 23 23 22 23 23 24 24 25 25 26 27 27 28 29 30 30 31 32 32 32 32 33 33 33 33 33 33 33 33 33 32 32 32 31 31 31 31 31 30 29
19 19 20 20 21 22 22 22 22 23 23 24 24 25 25 26 27 28 28 28 29 30 31 31 32 32 32 33 33 33 33 33 33 32 32 31 30 29 29 29 29 28 28 28
19 19 19 19 20 21 21 21 21 21 22 23 23 23 24 25 26 27 27 28 28 29 30 30 30 31 31 32 32 31 31 31 31 30 29 29 28 29 28 27 27 26 27 27
18 19 18 19 19 20 21 21 21 21 21 22 22 23 23 24 24 25 26 26 27 27 28 28 28 29 30 30 30 30 29 29 28 27 27 27 27 27 26 26 26 26 26 26
18 18 18 19 19 19 20 20 20 21 21 21 22 22 22 23 24 24 24 24 24 25 26 26 27 27 27 27 28 28 27 27 26 26 26 26 26 26 25 25 25 26 26 25
17 18 19 19 19 20 20 20 20 20 20 21 21 22 21 21 22 23 24 23 23 23 24 24 24 24 25 25 25 25 25 25 24 25 25 25 25 25 25 24 24 24 24 24
18 18 18 19 19 20 20 20 20 20 21 21 21 21 21 21 22 22 23 23 23 23 23 23 23 23 22 23 23 23 23 23 24 24 24 24 23 23 23 23 23 23 23 22
17 17 17 17 18 19 20 20 21 21 21 21 21 21 21 21 21 22 22 21 21 21 22 22 21 22 22 22 22 22 22 22 22 23 23 22 22 22 22 22 22 21 21 21
16 17 16 16 17 18 19 19 19 20 20 21 20 20 20 20 19 20 20 21 21 20 20 20 20 21 21 21 21 21 21 21 21 22 22 21 20 20 20 20 20 20 20 21
18 18 17 16 16 17 17 18 18 18 19 19 19 19 19 19 19 19 20 20 20 20 20 20 21 21 20 20 20 20 20 21 21 21 21 20 20 20 20 20 19 20 20 20
19 18 17 16 17 17 17 17 17 17 17 17 18 18 18 18 18 18 19 19 19 19 20 20 20 20 19 19 19 19 20 20 21 21 20 20 20 19 19 19 20 20 20 21
18 18 17 17 16 17 17 17 17 17 17 18 17 17 17 17 17 17 18 19 19 19 19 19 19 19 18 18 19 19 20 20 20 20 19 19 19 19 19 19 19 20 21 22
19 19 18 18 17 17 17 17 16 17 17 18 17 17 17 17 17 17 17 17 18 19 19 19 19 19 19 19 19 19 20 19 19 18 18 18 19 19 19 20 20 21 22 22
18 18 18 18 17 17 17 17 17 17 18 18 18 18 18 18 17 17 17 18 18 18 17 17 17 17 18 18 19 18 18 18 18 18 18 18 19 19 19 20 20 21 22 21
17 17 17 17 17 17 17 16 17 17 17 17 17 17 17 17 17 17 18 17 17 17 17 16 16 16 16 16 16 16 16 16 17 17 17 18 18 19 19 19 20 21 20 19
16 17 17 17 16 16 16 16 16 16 16 16 16 16 17 17 17 17 17 17 17 17 17 16 16 16 16 16 15 16 16 16 16 17 18 18 18 19 19 20 20 20 19 18
16 16 16 16 16 15 16 15 15 15 15 15 15 15 16 16 17 17 17 17 17 17 17 17 17 16 16 16 16 17 17 17 17 18 18 18 18 19 19 19 19 18 18 17

GEFSNGP_500_meanwind_216.txt.gz
Wind_Speed
27 27 29 30 31 32 34 34 34 33 33 31 31 31 31 32 33 34 35 35 35 35 36 36 37 38 37 37 37 37 37 36 36 36 36 36 36 36 36 36 36 37 37 38
25 26 27 29 30 31 33 34 34 34 33 31 31 32 31 32 33 33 34 35 36 35 35 36 37 37 37 37 37 37 37 36 36 36 36 36 37 37 37 37 37 37 37 37
24 24 26 27 28 30 31 32 33 33 31 31 30 31 31 31 32 33 33 35 36 36 35 35 36 36 36 37 37 37 37 36 36 37 37 37 36 36 36 37 37 37 37 37
24 25 26 26 27 28 29 30 31 31 30 30 29 30 32 32 32 33 33 34 35 35 35 35 35 35 36 36 36 36 36 37 37 37 37 37 37 37 37 37 38 38 38 38
25 26 25 25 27 28 28 28 30 30 30 30 30 31 31 31 32 32 33 34 35 35 35 35 35 35 35 35 36 36 36 36 37 36 36 36 36 37 37 38 38 38 38 39
26 26 25 24 25 27 28 28 28 29 29 30 30 30 30 31 31 31 32 33 34 34 35 36 35 35 35 34 35 35 35 36 36 36 36 36 36 37 37 38 38 38 39 39
26 26 26 25 25 26 27 27 27 27 28 29 30 30 30 31 31 32 32 33 33 33 34 34 35 35 35 34 34 35 35 36 36 36 36 36 36 36 37 37 38 38 38 39
24 25 25 24 25 25 25 25 26 26 27 28 29 30 31 31 32 32 33 32 33 33 33 34 34 34 34 34 34 34 35 35 35 35 35 35 36 36 36 37 37 38 38 38
23 23 23 24 24 25 25 25 26 26 27 28 28 30 31 31 32 32 33 33 33 33 33 33 34 34 34 34 34 34 34 34 34 34 34 35 35 36 36 37 37 37 37 37
22 22 22 23 23 25 26 26 26 26 27 27 27 29 30 31 32 32 32 33 33 34 34 33 34 34 35 34 34 34 34 34 33 33 34 34 34 35 35 36 36 36 36 37
21 21 21 22 22 23 25 26 26 26 26 26 26 26 27 29 31 32 32 32 32 34 35 34 34 34 34 35 35 34 34 34 34 34 33 34 34 34 34 34 34 34 35 35
18 19 21 21 21 22 23 25 25 25 25 25 25 25 26 27 29 30 31 31 31 32 33 34 34 34 34 34 35 34 34 34 34 34 34 34 34 34 33 33 32 32 32 32
18 19 20 21 21 23 23 24 25 26 25 25 25 25 25 26 27 28 29 30 30 31 31 32 33 33 32 33 33 34 34 33 33 34 34 33 33 32 32 30 29 29 30 30
19 18 19 20 21 21 22 23 25 26 26 26 25 24 24 25 25 26 27 28 28 29 30 31 32 32 32 32 32 32 33 33 33 32 32 32 31 30 29 28 28 28 28 28
19 19 19 20 20 20 21 21 22 24 25 25 25 24 24 23 23 24 25 25 26 27 28 29 30 31 31 31 30 30 31 31 30 30 30 29 29 28 28 28 28 27 26 26
18 18 18 19 19 20 20 20 20 21 22 23 23 23 23 22 22 23 23 24 25 25 26 27 28 29 29 29 29 29 28 28 28 27 27 27 27 26 26 26 26 26 26 26
18 18 18 18 18 18 18 18 19 20 20 21 22 22 22 21 21 22 22 23 23 24 25 25 25 26 26 26 26 26 26 26 25 25 25 25 25 25 24 24 24 25 25 25
18 18 18 18 17 17 17 17 17 18 20 20 20 21 21 21 21 21 22 22 22 22 22 23 23 23 23 23 23 23 24 24 24 24 23 23 23 23 23 24 23 23 24 24
18 18 18 18 18 18 17 17 17 18 19 19 19 20 21 21 21 21 22 21 21 21 21 21 21 21 21 21 21 21 22 22 22 22 21 22 22 22 22 22 22 23 23 23
18 18 18 18 19 19 18 18 18 18 18 19 19 19 20 20 20 20 21 21 21 20 21 21 21 20 20 20 19 20 20 20 20 21 21 21 21 21 22 22 23 23 23 23
18 19 19 19 19 19 19 19 19 19 19 19 19 19 20 20 20 20 19 20 20 20 20 20 21 20 20 19 19 19 19 20 20 20 20 20 20 20 21 22 23 23 22 22
18 19 20 20 20 20 21 21 21 20 20 20 20 20 20 19 19 19 19 19 20 20 20 20 20 20 20 20 20 20 20 20 20 20 20 20 19 20 21 21 21 21 21 21
18 18 19 20 20 21 21 21 22 21 21 21 20 20 20 19 19 18 18 19 19 19 20 20 20 20 20 20 20 20 20 20 19 19 19 19 19 20 20 20 19 19 20 20
18 18 18 18 18 19 19 20 20 20 20 20 19 20 20 19 19 18 18 18 18 18 19 19 20 20 21 21 20 20 20 19 19 19 19 19 19 19 19 18 18 19 19 19
19 18 18 17 17 17 17 17 17 18 18 18 18 18 19 19 18 18 17 17 16 17 17 17 18 18 19 19 19 19 19 19 19 19 19 19 19 18 18 18 19 19 19 19
19 19 18 18 17 17 17 17 17 17 17 17 17 17 18 18 18 18 17 17 16 16 17 17 18 18 18 18 18 19 19 19 19 18 17 17 17 17 17 17 18 18 18 17
19 19 18 18 18 18 17 17 17 16 16 16 16 17 17 17 17 16 16 16 17 17 17 17 18 18 17 17 17 17 17 17 17 16 16 16 15 16 16 16 16 16 16 16

GEFSNGP_500_meanwind_222.txt.gz
Wind_Speed
23 23 24 25 26 27 29 29 30 28 29 29 30 30 31 33 33 33 33 35 35 35 35 37 37 37 37 37 38 38 38 39 39 39 38 38 38 38 38 37 37 37 37 38
23 23 23 24 24 26 28 28 28 28 28 28 29 29 29 30 32 32 32 33 35 35 35 36 36 36 36 37 37 38 38 39 39 39 39 39 38 39 38 38 38 38 38 39
22 22 23 24 24 25 27 27 27 27 27 29 29 29 28 29 30 31 33 33 33 34 35 35 36 36 36 36 37 37 38 38 39 39 39 39 38 38 39 39 39 38 38 39
21 22 23 23 23 24 26 27 28 27 27 29 29 29 29 29 29 30 32 33 33 33 34 35 35 36 36 36 36 37 38 38 38 38 38 39 38 38 38 38 38 39 39 39
20 21 23 22 22 23 25 25 26 26 26 28 29 30 30 29 29 30 31 32 32 33 33 34 35 35 35 35 35 36 37 37 38 38 38 38 38 38 38 38 38 39 39 39
18 20 21 21 22 23 24 24 25 25 25 26 28 29 29 29 28 29 31 31 31 32 33 34 35 35 35 35 35 35 36 37 37 37 38 38 38 38 38 38 38 38 39 39
18 19 20 20 21 22 23 23 24 24 24 25 26 28 29 29 29 29 31 31 31 32 33 34 35 35 35 34 34 34 35 35 36 37 37 38 38 38 38 38 38 38 38 39
19 19 18 19 20 21 22 23 24 24 24 24 25 27 29 29 29 28 29 31 31 32 32 33 34 35 35 34 34 34 33 34 35 36 36 36 37 37 37 37 38 38 38 38
18 17 17 18 20 20 21 22 23 24 23 23 24 25 27 28 28 29 29 30 31 31 32 32 33 33 34 34 33 33 33 33 33 35 35 36 36 36 36 36 36 37 37 37
17 17 17 18 19 20 21 21 22 22 23 23 23 24 26 27 28 29 29 29 29 30 30 31 32 32 33 33 33 32 32 32 33 33 34 35 35 35 35 35 35 36 36 37
18 18 18 19 19 19 20 21 22 22 23 23 23 24 25 26 26 27 28 28 29 29 30 31 31 31 31 31 32 32 32 32 32 32 33 33 34 34 34 35 35 35 35 35
16 17 18 18 19 19 19 20 21 22 22 23 23 24 25 26 26 26 26 27 28 29 29 29 30 30 30 31 31 31 32 32 32 32 32 32 33 33 33 33 33 34 34 33
14 15 16 17 18 19 19 20 20 21 22 22 23 23 24 25 26 26 26 26 27 28 28 29 29 29 29 30 30 31 31 31 32 31 31 31 31 31 31 31 32 32 31 31
14 15 15 16 17 18 19 20 20 20 21 22 22 23 24 24 25 25 25 25 26 26 27 28 28 29 29 29 29 30 30 30 30 30 30 30 30 29 29 29 28 28 28 28
13 14 15 15 17 17 18 18 19 20 21 21 22 22 23 24 25 25 25 25 26 26 26 27 28 28 28 28 28 28 28 28 28 28 28 28 28 27 27 26 26 25 26 26
14 14 14 15 15 16 16 17 18 19 20 20 21 22 23 24 25 25 25 26 26 26 26 26 26 27 27 27 28 27 26 26 26 26 27 27 26 26 25 24 24 23 23 23
15 15 16 16 16 16 16 16 17 17 18 19 20 21 22 23 24 25 25 25 24 25 25 25 25 26 26 26 26 26 25 25 25 26 26 25 25 25 24 24 23 22 21 20
15 15 15 16 17 17 18 17 17 17 17 18 18 19 20 21 23 24 25 25 24 23 23 23 24 24 25 24 24 24 24 24 24 23 24 24 24 23 23 22 22 21 20 20
15 15 16 16 17 17 18 18 18 18 18 18 18 18 19 19 21 22 23 23 23 23 23 23 24 24 24 23 23 23 23 22 22 22 22 22 22 22 21 21 20 20 20 20
15 16 16 17 17 18 18 18 18 18 18 18 18 18 18 19 19 20 20 21 21 21 22 22 22 23 23 23 23 22 22 21 21 21 21 21 20 20 20 20 20 20 21 21
15 15 16 17 18 18 18 18 18 19 18 18 17 17 18 18 19 19 19 19 20 20 20 21 21 21 22 22 21 20 20 20 20 20 20 20 20 20 19 20 20 20 20 20
15 15 16 17 17 18 18 18 18 19 19 19 18 18 19 19 19 19 20 20 20 20 20 20 20 21 21 21 20 20 19 19 18 18 19 19 19 19 19 19 19 20 20 20
15 15 15 16 16 16 17 18 18 18 19 19 19 19 19 19 20 20 20 20 20 19 20 20 20 20 20 21 21 20 20 19 18 18 18 18 19 19 18 19 19 19 20 20
16 15 15 15 15 15 15 16 16 17 17 18 19 19 19 19 19 19 19 19 19 18 18 18 18 19 20 20 21 20 20 20 19 19 19 19 19 19 19 19 19 20 19 19
16 16 16 15 15 15 15 15 16 17 17 17 17 18 18 19 19 19 19 18 18 18 18 17 17 17 18 19 20 20 20 19 19 19 20 20 20 20 20 20 19 19 18 18
15 16 16 15 14 14 15 15 15 16 16 16 16 16 16 17 17 18 18 18 18 18 18 18 18 18 17 18 18 19 19 19 19 19 19 19 19 19 19 19 18 18 17 16
16 16 15 15 15 14 14 14 14 14 14 13 13 14 14 14 15 16 16 16 17 17 17 17 17 17 17 17 17 18 18 18 18 18 18 18 18 17 17 17 16 15 14 13

GEFSNGP_500_meanwind_228.txt.gz
Wind_Speed
22 23 25 25 26 26 27 27 27 26 27 27 27 28 30 31 32 33 34 34 34 35 36 38 39 39 39 39 40 39 39 39 38 38 38 38 38 38 38 38 38 38 37 37
22 23 24 24 26 26 26 26 27 27 27 27 28 28 29 30 32 32 33 33 33 34 35 36 37 37 38 39 39 39 38 38 38 38 38 38 38 38 38 38 38 39 38 38
21 22 23 24 24 24 24 25 26 28 27 28 28 28 28 29 31 31 32 33 33 33 34 34 34 35 36 37 37 37 37 37 37 38 38 39 39 38 38 38 38 38 38 38
20 22 24 23 23 23 24 24 25 26 27 28 29 29 30 30 30 31 32 33 33 33 33 33 34 34 35 36 37 37 37 37 37 37 37 37 37 37 37 37 38 38 38 38
19 20 21 22 23 23 24 25 26 27 27 27 28 29 29 30 29 30 32 33 33 33 33 33 34 34 34 35 36 36 36 36 36 36 36 37 37 37 36 37 37 37 37 37
20 21 21 23 24 24 25 26 26 27 27 27 27 28 28 29 29 29 31 32 33 32 32 33 34 34 34 34 34 34 34 34 34 35 35 35 36 36 36 36 36 36 36 36
20 22 22 23 23 24 25 25 26 25 26 26 27 27 27 28 29 29 29 30 31 32 32 32 33 34 33 33 33 33 33 33 34 34 34 35 35 35 35 35 35 36 36 36
20 21 22 22 23 23 23 24 25 26 26 26 26 27 28 27 28 29 29 29 30 31 32 31 32 32 32 32 32 33 33 34 34 34 34 34 34 34 35 35 35 36 36 36
20 20 21 22 23 23 22 23 23 24 25 25 25 26 27 27 28 29 29 30 30 30 31 31 31 31 31 31 32 32 33 33 32 32 33 33 33 34 34 34 35 35 35 35
18 19 21 22 23 24 24 24 24 23 24 25 25 25 25 26 27 28 28 29 30 30 30 30 32 32 32 31 31 32 32 32 32 32 32 32 32 33 33 34 34 35 35 34
18 18 19 21 22 22 23 23 23 23 24 24 25 26 26 26 27 28 28 28 29 30 30 30 30 31 32 32 31 31 32 32 32 32 32 31 31 31 32 33 33 34 34 34
18 17 18 18 19 20 21 22 22 23 23 23 24 24 24 25 26 26 27 28 28 29 29 29 29 30 30 30 31 31 32 32 32 31 31 31 31 31 32 32 33 33 33 33
19 18 17 17 17 18 19 20 21 21 22 22 23 23 23 23 24 25 26 26 27 28 28 29 29 29 29 30 31 31 31 31 31 31 31 31 31 31 31 31 31 31 31 31
18 17 17 16 16 16 16 18 19 20 21 21 21 21 22 23 23 23 24 25 26 27 28 28 29 29 29 29 30 29 29 29 29 29 29 29 30 30 30 30 29 29 29 29
16 16 16 16 16 16 16 17 18 19 19 20 21 21 21 22 23 23 24 24 25 26 27 28 29 29 29 30 30 29 29 28 28 28 28 28 28 29 28 28 27 26 27 27
16 16 16 17 17 17 17 17 17 18 18 19 20 21 21 21 22 23 23 24 25 26 26 27 28 29 30 29 29 28 28 27 27 26 27 26 26 26 26 25 25 24 25 25
16 16 16 16 17 17 18 18 18 18 18 18 19 19 20 21 22 22 23 23 24 25 26 27 27 27 28 27 27 27 27 27 26 26 25 25 24 24 23 23 23 23 23 22
16 16 17 18 18 18 18 19 19 19 19 19 19 19 19 20 21 22 22 23 23 24 25 26 26 26 26 26 26 26 27 26 25 25 25 24 24 23 23 22 22 21 21 21
17 17 18 19 19 19 19 19 20 20 20 20 20 21 20 20 20 20 21 22 23 24 25 26 26 26 26 26 25 25 25 25 25 24 24 24 23 23 22 21 20 20 21 21
17 17 18 19 19 20 20 20 20 21 21 21 21 21 21 21 21 21 21 21 22 23 24 25 25 26 26 26 25 25 24 25 25 24 24 23 23 22 22 22 21 21 21 21
17 17 18 18 19 20 20 20 20 21 21 22 22 22 22 22 21 21 21 21 22 22 23 23 23 24 25 25 25 25 24 25 25 24 23 23 22 22 23 22 22 22 21 21
18 17 18 18 18 18 19 19 20 20 20 21 21 21 22 22 21 21 21 21 20 21 21 21 22 22 23 23 23 24 24 24 25 24 23 22 22 22 22 22 22 22 22 22
17 17 17 18 17 18 18 18 18 18 18 19 19 20 20 20 20 21 21 20 20 19 19 20 20 21 21 22 22 22 22 23 24 23 23 22 22 21 22 22 22 21 21 21
18 18 17 17 17 17 17 17 17 17 17 18 18 18 19 19 20 20 20 20 19 19 19 19 19 20 20 20 21 21 21 22 22 22 22 22 22 22 22 21 21 21 21 20
18 17 17 17 16 16 16 16 16 16 16 16 17 17 18 18 18 19 19 19 19 19 19 19 19 19 19 20 20 21 21 21 22 22 21 21 21 21 21 21 21 21 20 20
17 17 16 16 15 14 14 14 14 14 15 15 15 15 15 16 16 17 17 17 17 17 17 18 18 18 18 19 19 20 21 21 21 21 21 21 21 21 21 21 21 21 20 20
17 17 16 15 14 14 14 13 13 13 14 14 14 14 14 15 15 16 16 16 16 16 17 17 17 17 17 17 18 18 19 20 20 20 20 20 20 20 20 20 20 20 19 19

GEFSNGP_500_meanwind_234.txt.gz
Wind_Speed
17 19 21 21 22 25 26 26 26 25 26 26 26 26 27 27 27 28 29 30 31 33 35 35 35 36 37 38 39 39 39 39 39 39 39 38 38 38 39 39 39 37 36 36
17 18 20 21 22 23 24 25 24 23 23 24 25 26 27 28 28 28 28 29 30 31 33 35 35 35 35 36 37 38 39 39 39 39 39 39 39 39 40 40 39 39 38 37
17 18 19 20 21 22 22 24 24 24 24 24 25 26 26 27 28 28 28 28 29 30 32 34 35 35 35 35 36 37 38 39 40 40 39 39 38 39 39 39 39 38 38 37
17 18 18 19 20 21 22 22 22 23 24 25 25 25 27 26 27 27 27 27 28 29 31 32 34 35 35 36 36 36 37 37 38 38 38 38 38 37 38 38 38 38 38 37
18 18 18 18 20 21 21 21 21 21 22 23 25 25 26 27 27 28 28 28 28 29 30 31 33 34 35 35 35 36 37 36 37 37 37 37 38 37 37 37 37 37 37 37
18 18 17 17 19 21 22 22 21 21 22 23 24 25 25 26 27 28 29 29 28 29 29 30 31 33 33 34 34 35 35 36 36 36 36 36 37 36 36 36 36 36 36 36
17 18 17 18 19 20 22 21 21 22 22 23 24 25 26 26 27 28 28 29 29 29 30 30 30 31 32 32 33 34 35 35 35 35 35 35 35 36 36 36 36 36 36 36
16 17 17 18 19 20 20 21 21 21 22 23 24 25 25 26 27 28 28 29 30 30 31 31 30 31 31 32 33 33 34 34 34 34 34 34 34 34 35 35 35 35 35 36
17 17 18 18 19 19 19 20 20 21 22 23 24 24 24 25 26 27 28 29 30 30 30 31 31 32 32 32 32 32 33 33 33 34 33 33 33 34 34 34 34 34 34 34
17 18 18 19 19 19 19 20 20 21 22 23 23 24 25 25 26 26 26 27 29 30 30 30 31 31 32 32 31 31 32 32 33 33 33 33 33 33 34 34 35 35 34 34
17 17 18 18 19 19 19 20 20 20 21 22 22 22 23 24 24 25 26 27 28 29 30 30 31 31 31 32 32 31 31 32 32 32 32 32 32 32 32 33 33 34 34 33
16 16 17 17 18 18 18 19 19 19 20 21 22 22 22 22 23 24 25 25 27 29 30 31 31 31 31 31 31 31 31 31 31 31 31 31 31 32 32 32 32 32 32 32
15 15 15 16 17 18 18 18 18 18 18 19 20 21 21 21 21 22 23 24 25 27 29 30 31 31 31 31 31 31 31 31 31 31 31 30 30 31 31 31 31 30 30 30
14 14 14 15 16 17 18 19 19 19 18 18 19 20 21 21 21 21 22 23 23 25 27 28 29 30 30 30 30 30 30 31 31 31 31 30 30 30 30 30 29 29 29 28
14 13 13 14 15 16 17 18 18 18 18 17 17 18 20 21 21 22 22 22 23 23 24 26 28 28 29 30 30 30 29 29 30 30 30 29 29 29 28 28 29 29 28 27
13 13 13 14 15 16 16 16 17 17 17 16 17 18 19 20 20 21 22 22 23 23 23 25 27 28 29 30 30 29 29 29 29 29 29 28 28 28 27 27 27 27 26 26
12 13 13 13 14 15 15 15 16 16 16 17 17 18 19 19 20 20 21 22 22 23 23 24 25 27 28 29 29 28 28 28 28 28 28 28 28 27 27 26 25 25 24 24
13 14 14 15 14 15 16 16 16 17 17 17 17 18 18 19 19 20 21 22 23 23 24 25 25 26 27 27 28 28 28 28 28 28 27 27 27 26 26 25 25 24 24 24
15 15 15 16 15 16 16 16 17 17 18 17 17 17 18 18 19 20 20 21 22 22 23 24 24 25 26 26 27 28 28 27 27 27 27 27 27 26 26 26 25 25 25 24
16 16 17 17 16 16 16 17 17 17 17 18 18 18 18 19 20 20 21 21 22 21 21 22 23 24 25 26 26 27 27 27 27 27 27 26 25 25 25 25 25 25 24 23
17 17 18 18 17 17 17 16 16 16 16 16 17 17 18 19 19 20 21 21 22 22 22 22 22 22 23 25 26 27 27 27 27 27 27 26 25 25 25 24 24 24 23 23
17 18 18 17 17 16 16 16 16 16 16 16 16 16 17 17 18 19 19 20 21 21 20 20 20 21 21 23 24 25 25 26 26 25 25 25 25 25 24 23 23 22 22 22
18 18 17 16 16 16 16 16 16 16 16 16 16 16 16 16 17 17 18 19 19 19 19 19 19 20 20 21 22 23 23 24 24 24 24 25 25 25 24 23 22 22 22 21
17 16 15 15 15 15 15 16 16 15 15 15 15 15 16 16 15 16 16 17 18 19 19 18 18 18 19 19 20 21 22 22 22 23 23 24 24 24 24 23 22 21 21 20
16 15 15 14 14 14 15 15 15 14 14 14 14 14 15 15 15 15 15 16 17 18 18 18 18 18 18 19 19 20 21 21 22 22 22 22 23 23 22 22 21 20 20 20
16 16 16 15 15 14 14 14 14 14 14 14 13 13 13 13 14 14 14 15 16 17 17 18 18 18 18 18 19 19 20 21 21 22 22 22 22 22 21 21 20 20 19 19
16 16 15 15 15 14 14 13 13 14 14 14 13 13 13 13 13 13 14 14 15 16 17 17 17 17 17 18 18 18 19 20 20 21 21 21 21 21 21 20 20 19 18 18